Date StartTime U_cm/s V_cm/s W_cm/s Ustd_cm/s Vstd_cm/s Wstd_cm/s Uvar_(cm/s)^2 Vvar_(cm/s)^2 Wvar_(cm/s)^2 KE_(m/s)^2 TurbulentKE_(m/s)^2 HorizWindSpeed_cm/s FrictionSpeec_cm/s DragCoef SpeedOfSound_m/s SonicTemperature_C Pressure_mb 
01/23/2014  00:00:00     -136.834      -18.209      -17.017       18.479       22.608       15.427      341.458      511.128      237.987        1.022        0.055      138.041       10.390        0.006      332.505        1.209      863.290
01/23/2014  00:01:00     -111.066       -3.276       -9.576       44.059       18.235       17.445     1941.184      332.524      304.317        0.751        0.129      111.114       21.250        0.037      332.634        1.424      863.279
01/23/2014  00:02:00      -28.481       26.367       -6.377       17.225       17.652       10.577      296.690      311.607      111.876        0.113        0.036       38.812        7.329        0.036      332.913        1.886      863.319
01/23/2014  00:03:00      -33.094       10.685       -0.125       15.279       18.303        9.569      233.453      335.016       91.573        0.093        0.033       34.776        7.369        0.045      332.919        1.895      863.319
01/23/2014  00:04:00     -102.038      -44.652      -16.563       24.048       25.428       13.594      578.313      646.565      184.785        0.704        0.070      111.380        6.687        0.004      332.554        1.293      863.303
01/23/2014  00:05:00      -88.176      -48.846      -13.518       41.197       18.964       16.026     1697.185      359.629      256.826        0.633        0.116      100.802       11.403        0.013      332.580        1.333      863.318
01/23/2014  00:06:00      -86.902      -43.670       -5.214       33.903       28.668       16.091     1149.409      821.873      258.936        0.586        0.112       97.258       16.569        0.029      332.574        1.326      863.340
01/23/2014  00:07:00      -92.186      -23.647       -8.516       48.233       24.562       20.462     2326.440      603.297      418.695        0.624        0.167       95.171       18.823        0.039      332.510        1.219      863.348
01/23/2014  00:08:00      -47.214      -25.122      -11.331       24.547       14.192       16.517      602.567      201.416      272.814        0.203        0.054       53.481       10.439        0.038      332.558        1.297      863.379
01/23/2014  00:09:00      -86.942       22.779      -11.174       25.404       26.222       18.227      645.362      687.601      332.241        0.493        0.083       89.877       19.845        0.049      332.586        1.345      863.380
01/23/2014  00:10:00      -66.653        8.038       -7.465       37.742       28.976       17.424     1424.442      839.607      303.583        0.356        0.128       67.136       16.099        0.058      332.774        1.656      863.364
01/23/2014  00:11:00        1.561      -27.494       -7.472       13.808       17.473       14.776      190.666      305.304      218.321        0.076        0.036       27.538        6.099        0.049      332.861        1.801      863.383
01/23/2014  00:12:00       -9.130      -14.498       -0.065       16.969       14.837       12.501      287.943      220.139      156.277        0.048        0.033       17.133        7.052        0.169      332.956        1.956      863.385
01/23/2014  00:13:00      -82.122      -41.645      -14.324       15.755       15.078        9.325      248.229      227.341       86.960        0.462        0.028       92.078        5.774        0.004      332.672        1.486      863.350
01/23/2014  00:14:00      -88.311      -33.295      -10.208       16.330       22.592       14.320      266.676      510.401      205.072        0.500        0.049       94.379        9.451        0.010      332.636        1.427      863.295
01/23/2014  00:15:00      -86.534      -10.358      -20.498       19.464       16.518       12.536      378.864      272.858      157.142        0.441        0.040       87.152        8.538        0.010      332.669        1.481      863.252
01/23/2014  00:16:00      -53.714      -32.680       -8.664       21.474       21.389       17.325      461.133      457.469      300.146        0.262        0.061       62.874       13.315        0.045      332.578        1.332      863.235
01/23/2014  00:17:00      -97.180      -31.433      -15.183       24.252       15.530       11.242      588.165      241.180      126.386        0.581        0.048      102.137        6.697        0.004      332.560        1.301      863.208
01/23/2014  00:18:00      -99.733      -38.674      -17.157       16.344       15.895       11.645      267.128      252.657      135.610        0.620        0.033      106.969        6.151        0.003      332.665        1.474      863.174
01/23/2014  00:19:00      -94.272      -23.979      -16.404       20.835       17.869       15.028      434.116      319.319      225.854        0.536        0.049       97.274       10.420        0.011      332.647        1.445      863.150
01/23/2014  00:20:00      -71.616      -32.056      -18.100       15.602       15.417       11.205      243.424      237.688      125.542        0.355        0.030       78.463        4.290        0.003      332.574        1.323      863.153
01/23/2014  00:21:00      -82.098      -16.093      -20.422       17.406       13.666        8.170      302.966      186.757       66.757        0.399        0.028       83.660        4.043        0.002      332.749        1.614      863.164
01/23/2014  00:22:00      -73.521      -44.555      -18.816       20.206       18.905       15.948      408.282      357.407      254.333        0.438        0.051       85.968       14.045        0.027      332.620        1.400      863.179
01/23/2014  00:23:00     -123.154      -29.793      -16.289       25.585       24.300       11.849      654.605      590.500      140.396        0.885        0.069      126.706        5.493        0.002      332.541        1.270      863.186
01/23/2014  00:24:00     -107.280      -40.086      -17.720       21.284       19.002       15.446      453.023      361.064      238.573        0.724        0.053      114.525       10.823        0.009      332.568        1.315      863.204
01/23/2014  00:25:00      -83.944      -39.499       -9.519       22.213       22.500       14.549      493.432      506.262      211.668        0.495        0.061       92.773        8.279        0.008      332.553        1.290      863.226
01/23/2014  00:26:00     -108.449      -33.129       -5.477       28.316       23.878       22.075      801.804      570.153      487.307        0.737        0.093      113.396       19.717        0.030      332.433        1.092      863.247
01/23/2014  00:27:00     -104.710      -58.252      -26.491       37.238       30.268       19.845     1386.648      916.149      393.836        0.888        0.135      119.822        9.745        0.007      332.426        1.080      863.232
01/23/2014  00:28:00      -36.852      -51.370       -9.952       27.741       31.263       21.908      769.572      977.391      479.944        0.316        0.111       63.221       10.512        0.028      332.523        1.240      863.235
01/23/2014  00:29:00     -114.304      -56.939      -13.415       34.095       21.978       19.101     1162.483      483.033      364.866        0.925        0.101      127.700       14.299        0.013      332.528        1.249      863.224
01/23/2014  00:30:00     -116.639      -52.442        1.985       42.588       30.918       17.740     1813.737      955.907      314.699        0.972        0.154      127.886       17.429        0.019      332.596        1.362      863.184
01/23/2014  00:31:00      -83.890      -41.748       -3.322       25.319       24.177       17.368      641.035      584.507      301.632        0.516        0.076       93.704       15.573        0.028      332.677        1.496      863.160
01/23/2014  00:32:00     -110.026      -37.211      -16.103       15.726       15.758        8.462      247.309      248.308       71.603        0.716        0.028      116.148        3.770        0.001      332.704        1.541      863.149
01/23/2014  00:33:00     -125.072      -42.992      -14.474       17.466       16.920       14.470      305.069      286.271      209.388        0.925        0.040      132.254        9.580        0.005      332.661        1.469      863.134
01/23/2014  00:34:00     -117.348      -31.797      -13.056       11.447       16.276       10.228      131.045      264.892      104.614        0.773        0.025      121.580        7.484        0.004      332.660        1.467      863.146
01/23/2014  00:35:00      -94.550      -20.831      -16.140        7.326       10.177        7.263       53.669      103.571       52.748        0.492        0.010       96.818        3.520        0.001      332.645        1.442      863.151
01/23/2014  00:36:00      -98.049      -18.788      -13.358       11.642       11.965       11.408      135.539      143.169      130.136        0.528        0.020       99.833        5.081        0.003      332.817        1.726      863.149
01/23/2014  00:37:00      -97.321       -7.300      -10.969       20.966       18.450       12.244      439.592      340.389      149.909        0.529        0.046       97.594        9.001        0.009      332.987        2.007      863.149
01/23/2014  00:38:00      -82.116      -41.222      -12.894       14.997       16.932       13.168      224.905      286.679      173.401        0.465        0.034       91.882        9.181        0.010      332.802        1.701      863.138
01/23/2014  00:39:00      -86.146      -25.666      -11.609       17.238       19.990       13.273      297.137      399.604      176.167        0.454        0.044       89.888       10.571        0.014      332.663        1.472      863.150
01/23/2014  00:40:00      -73.346      -33.863      -11.914       28.822       25.034       17.533      830.689      626.703      307.409        0.422        0.088       80.786       16.612        0.042      332.633        1.424      863.173
01/23/2014  00:41:00     -107.740      -37.288       -4.634       34.138       28.940       20.399     1165.394      837.519      416.099        0.772        0.121      114.010       18.596        0.027      332.526        1.245      863.209
01/23/2014  00:42:00     -101.500      -28.258      -12.250       24.708       22.473       11.358      610.507      505.048      129.015        0.625        0.062      105.360        5.417        0.003      332.579        1.334      863.244
01/23/2014  00:43:00     -135.611       -6.422      -21.457       16.244       16.444       17.064      263.854      270.402      291.174        0.986        0.041      135.763       12.131        0.008      332.615        1.391      863.266
01/23/2014  00:44:00     -134.748        9.493      -20.987       12.870       12.679        9.882      165.626      160.760       97.657        0.956        0.021      135.082        8.058        0.004      332.679        1.498      863.276
01/23/2014  00:45:00     -104.709       -3.387      -20.161       18.645       17.923       10.145      347.632      321.244      102.921        0.608        0.039      104.763        3.361        0.001      332.734        1.591      863.284
01/23/2014  00:46:00      -82.735        7.898      -18.919       12.718       13.530       10.547      161.759      183.065      111.244        0.386        0.023       83.111        7.733        0.009      332.851        1.782      863.293
01/23/2014  00:47:00      -55.146      -26.054      -13.348       14.165       19.181       10.443      200.655      367.920      109.063        0.229        0.034       60.991        5.378        0.008      332.771        1.650      863.299
01/23/2014  00:48:00      -58.242      -18.063      -16.355       12.934       12.917        9.575      167.295      166.855       91.681        0.221        0.021       60.979        8.195        0.018      332.871        1.816      863.312
01/23/2014  00:49:00      -78.689      -39.865      -11.544       17.967       15.952       11.001      322.803      254.453      121.025        0.431        0.035       88.211        6.973        0.006      332.541        1.269      863.298
01/23/2014  00:50:00      -66.509      -29.291       -7.255        9.185       11.089        8.870       84.359      122.976       78.676        0.281        0.014       72.673        3.343        0.002      332.554        1.292      863.299
01/23/2014  00:51:00      -71.386      -23.505      -13.276       10.584       14.242       11.275      112.014      202.830      127.123        0.313        0.022       75.156        6.202        0.007      332.531        1.252      863.304
01/23/2014  00:52:00      -64.154      -18.089      -17.460       13.025       14.201        9.110      169.654      201.680       82.990        0.260        0.023       66.655        3.653        0.003      332.577        1.329      863.301
01/23/2014  00:53:00      -61.324        7.926      -13.438        8.909       15.021        6.491       79.367      225.628       42.140        0.218        0.017       61.834        4.805        0.006      332.802        1.703      863.274
01/23/2014  00:54:00      -54.577       20.467       -9.821       13.304       10.470       12.019      176.997      109.629      144.466        0.196        0.022       58.289        8.433        0.021      333.199        2.359      863.254
01/23/2014  00:55:00      -27.263      -13.125       -6.687       18.207       17.815       10.638      331.492      317.371      113.160        0.086        0.038       30.258        7.758        0.066      332.967        1.974      863.236
01/23/2014  00:56:00      -36.063        2.205      -10.660       14.989       19.939        7.541      224.658      397.558       56.862        0.105        0.034       36.131        5.345        0.022      333.013        2.049      863.223
01/23/2014  00:57:00      -51.832      -41.718      -18.811       18.367       14.428       10.349      337.361      208.173      107.101        0.272        0.033       66.535        8.141        0.015      332.666        1.477      863.216
01/23/2014  00:58:00      -74.923      -26.961      -18.507       12.867       10.888        8.089      165.553      118.556       65.425        0.352        0.017       79.627        7.906        0.010      332.517        1.230      863.211
01/23/2014  00:59:00      -58.834      -13.124      -14.753       11.787       11.542        7.618      138.943      133.222       58.031        0.209        0.017       60.280        7.333        0.015      332.482        1.173      863.230
01/23/2014  01:00:00      -81.345      -18.788      -19.299        7.444       11.012        7.273       55.413      121.273       52.897        0.379        0.011       83.487        3.261        0.002      332.378        1.002      863.236
01/23/2014  01:01:00      -95.033      -42.287      -14.804       18.485       18.152       13.499      341.678      329.484      182.217        0.595        0.043      104.017        8.034        0.006      332.267        0.818      863.221
01/23/2014  01:02:00     -112.332      -34.230      -20.006       19.647       15.990       13.029      385.986      255.672      169.754        0.750        0.041      117.432       10.163        0.007      332.232        0.761      863.216
01/23/2014  01:03:00     -100.842      -34.023      -14.292       27.026       26.211       13.629      730.405      687.014      185.753        0.657        0.080      106.426       13.297        0.016      332.202        0.713      863.201
01/23/2014  01:04:00     -121.038      -51.721       -8.410       31.021       29.719       17.775      962.277      883.218      315.934        0.978        0.108      131.626       15.159        0.013      332.186        0.687      863.186
01/23/2014  01:05:00     -115.917      -37.837      -17.024       54.350       27.070       24.340     2953.954      732.799      592.457        0.972        0.214      121.936       25.023        0.042      332.207        0.721      863.196
01/23/2014  01:06:00      -80.297      -59.549       -1.175       48.234       33.501       22.056     2326.484     1122.324      486.454        0.696        0.197       99.969       23.865        0.057      332.180        0.676      863.233
01/23/2014  01:07:00     -103.594      -56.984      -11.556       22.324       19.612       15.535      498.359      384.638      241.346        0.762        0.056      118.232       11.004        0.009      332.221        0.744      863.258
01/23/2014  01:08:00     -109.393      -48.220       -8.475       23.445       24.456       17.186      549.654      598.085      295.370        0.790        0.072      119.549       12.508        0.011      332.195        0.699      863.268
01/23/2014  01:09:00      -99.559      -50.501      -18.822       20.022       21.431       17.739      400.888      459.296      314.682        0.700        0.059      111.634       15.236        0.019      332.248        0.787      863.267
01/23/2014  01:10:00     -117.168      -45.559       -7.470       25.593       21.616       17.011      654.987      467.241      289.388        0.864        0.071      125.714       11.625        0.009      332.263        0.813      863.268
01/23/2014  01:11:00     -120.787      -50.307      -10.932       29.420       27.369       18.802      865.518      749.062      353.498        0.960        0.098      130.845       16.575        0.016      332.239        0.773      863.269
01/23/2014  01:12:00      -98.460       -1.984       -1.783       36.018       34.273       20.507     1297.298     1174.645      420.553        0.630        0.145       98.480       13.163        0.018      332.229        0.756      863.287
01/23/2014  01:13:00     -133.829        9.959       -6.785       44.488       41.694       25.916     1979.179     1738.399      671.631        1.122        0.219      134.199       23.436        0.030      332.249        0.789      863.298
01/23/2014  01:14:00      -91.517      -15.694       -6.385       37.745       25.415       24.124     1424.670      645.898      581.973        0.566        0.133       92.853       23.536        0.064      332.302        0.876      863.306
01/23/2014  01:15:00      -88.180      -13.637      -10.730       33.876       24.145       19.462     1147.606      582.964      378.758        0.509        0.105       89.228       19.421        0.047      332.254        0.798      863.312
01/23/2014  01:16:00      -78.374       -6.622      -19.008       24.687       21.660       15.532      609.470      469.159      241.242        0.393        0.066       78.653       13.728        0.030      332.311        0.892      863.318
01/23/2014  01:17:00      -72.069       -9.865      -11.998       11.171       21.631       18.138      124.790      467.883      328.989        0.318        0.046       72.741        9.547        0.017      332.396        1.030      863.325
01/23/2014  01:18:00      -68.507      -17.730      -10.095       12.559        9.850        8.309      157.740       97.026       69.039        0.272        0.016       70.764        5.123        0.005      332.361        0.972      863.326
01/23/2014  01:19:00      -55.772      -13.033       -3.717       13.714       13.806       13.762      188.082      190.610      189.394        0.193        0.028       57.275       10.691        0.035      332.566        1.312      863.305
01/23/2014  01:20:00      -40.234       10.643       -3.386       14.866       16.795       12.583      220.987      282.079      158.331        0.120        0.033       41.618       10.078        0.059      332.746        1.610      863.278
01/23/2014  01:21:00      -39.523       -5.687      -11.734       15.406       14.179       10.492      237.335      201.049      110.074        0.114        0.027       39.930        9.813        0.060      332.595        1.360      863.242
01/23/2014  01:22:00      -43.335      -28.056      -15.356       13.424       11.680        8.282      180.213      136.413       68.597        0.164        0.019       51.624        2.925        0.003      332.630        1.417      863.219
01/23/2014  01:23:00      -71.850      -27.383      -18.161       12.778       12.412        8.871      163.280      154.068       78.695        0.332        0.020       76.891        2.539        0.001      332.408        1.050      863.206
01/23/2014  01:24:00      -81.643      -24.313      -19.262       14.494       19.218       10.506      210.063      369.340      110.368        0.416        0.034       85.186        5.819        0.005      332.304        0.878      863.206
01/23/2014  01:25:00      -92.581      -16.195      -13.417       15.707       17.172       13.400      246.717      294.862      179.548        0.487        0.036       93.986        9.123        0.009      332.316        0.899      863.220
01/23/2014  01:26:00      -91.355      -36.086      -14.742       15.087       17.334       14.782      227.606      300.465      218.506        0.531        0.037       98.224        9.989        0.010      332.143        0.614      863.257
01/23/2014  01:27:00      -83.021      -46.750      -18.211       24.013       19.838       14.897      576.611      393.551      221.925        0.530        0.060       95.279       11.487        0.015      332.187        0.688      863.314
01/23/2014  01:28:00     -119.304      -37.440      -18.202       23.451       25.422       18.962      549.965      646.274      359.571        0.876        0.078      125.041        8.919        0.005      332.105        0.551      863.368
01/23/2014  01:29:00     -130.489      -45.716      -18.289       22.762       26.512       14.420      518.116      702.912      207.923        1.044        0.071      138.265        7.392        0.003      332.070        0.494      863.409
01/23/2014  01:30:00     -160.972      -19.951      -14.391       19.568       20.203       13.957      382.898      408.169      194.785        1.375        0.049      162.204       10.394        0.004      332.133        0.599      863.427
01/23/2014  01:31:00     -104.484      -37.862      -10.569       22.768       20.637       11.763      518.378      425.886      138.369        0.677        0.054      111.132       11.311        0.010      332.178        0.672      863.444
01/23/2014  01:32:00     -109.121      -25.850      -15.895       16.706       18.989       16.119      279.079      360.572      259.809        0.686        0.045      112.141       13.991        0.016      332.235        0.768      863.446
01/23/2014  01:33:00      -58.224      -45.516      -14.311       27.763       18.618       13.666      770.774      346.639      186.772        0.349        0.065       73.903       15.519        0.044      332.358        0.969      863.435
01/23/2014  01:34:00      -99.384      -17.281      -17.074       33.360       19.981       13.701     1112.920      399.222      187.725        0.608        0.085      100.875        4.332        0.002      332.399        1.036      863.418
01/23/2014  01:35:00     -128.648      -25.004      -21.412       30.491       16.423       13.530      929.707      269.705      183.073        0.951        0.069      131.056       12.290        0.009      332.236        0.768      863.383
01/23/2014  01:36:00     -123.866      -18.416      -13.478       32.611       16.925       15.152     1063.450      286.463      229.588        0.872        0.079      125.228       15.119        0.015      332.212        0.728      863.366
01/23/2014  01:37:00      -93.690      -21.831      -14.459       15.944       16.726       10.616      254.210      279.748      112.690        0.505        0.032       96.200        6.388        0.004      332.180        0.676      863.366
01/23/2014  01:38:00      -79.652       -2.170      -13.798       15.055       15.262       13.061      226.644      232.923      170.579        0.358        0.032       79.681       10.107        0.016      332.334        0.929      863.362
01/23/2014  01:39:00      -69.610       -5.018       -6.115       24.216       16.933       17.411      586.412      286.727      303.152        0.304        0.059       69.791       12.525        0.032      332.206        0.719      863.369
01/23/2014  01:40:00      -75.915      -12.044       -7.871       19.381       15.548       11.186      375.642      241.741      125.123        0.336        0.037       76.864       10.513        0.019      332.258        0.803      863.377
01/23/2014  01:41:00      -69.350       -1.968      -13.052       10.288       12.345        8.050      105.844      152.406       64.802        0.265        0.016       69.378        7.032        0.010      332.168        0.654      863.398
01/23/2014  01:42:00      -33.797       29.312       -3.543       23.838       18.475        9.169      568.236      341.308       84.074        0.150        0.050       44.737        9.013        0.041      332.717        1.561      863.414
01/23/2014  01:43:00       36.449       26.295        8.951       17.652       19.767       12.334      311.601      390.737      152.128        0.148        0.043       44.944        8.104        0.033      332.905        1.872      863.424
01/23/2014  01:44:00       29.542       20.617        0.493       13.999       11.135       12.140      195.976      123.983      147.372        0.088        0.023       36.025        8.561        0.056      332.694        1.523      863.434
01/23/2014  01:45:00       19.063       13.744       -2.356       13.140        9.535        8.554      172.666       90.923       73.170        0.045        0.017       23.501        6.695        0.081      332.675        1.490      863.425
01/23/2014  01:46:00       11.185       30.954       -4.426       10.084       10.436        6.053      101.684      108.911       36.640        0.068        0.012       32.913        4.618        0.020      333.049        2.109      863.409
01/23/2014  01:47:00        5.995       33.981       -2.795       11.881       14.995        5.111      141.167      224.853       26.120        0.080        0.020       34.506        6.040        0.031      333.203        2.363      863.407
01/23/2014  01:48:00       10.190       -1.604       -1.027        9.326       10.902        7.979       86.967      118.857       63.659        0.019        0.013       10.315        6.160        0.357      333.106        2.204      863.411
01/23/2014  01:49:00      -45.710       -3.769       -8.079       16.146       10.362        9.311      260.685      107.374       86.691        0.131        0.023       45.865        9.869        0.046      332.522        1.240      863.415
01/23/2014  01:50:00      -63.706      -14.366       -6.167       13.078        9.891        7.577      171.046       97.829       57.404        0.231        0.016       65.305        4.598        0.005      332.293        0.860      863.424
01/23/2014  01:51:00      -56.501      -16.347       -9.324        9.445       12.269        6.010       89.208      150.523       36.119        0.191        0.014       58.818        5.162        0.008      332.365        0.978      863.442
01/23/2014  01:52:00      -40.393        6.370       -8.862       10.909        9.403        7.618      118.997       88.417       58.033        0.101        0.013       40.892        3.108        0.006      332.583        1.340      863.467
01/23/2014  01:53:00      -10.331       14.698       -0.441       10.305       10.193        5.237      106.201      103.905       27.422        0.028        0.012       17.966        4.973        0.077      332.935        1.922      863.493
01/23/2014  01:54:00       -7.809       37.435       -5.922       15.475        9.801        5.340      239.465       96.055       28.521        0.093        0.018       38.240        4.399        0.013      333.257        2.454      863.487
01/23/2014  01:55:00      -12.052       34.179       -8.521       11.803       16.618       12.636      139.309      276.148      159.666        0.098        0.029       36.242        6.510        0.032      333.282        2.496      863.470
01/23/2014  01:56:00      -19.195        5.582       -2.368       19.898        9.046       11.323      395.916       81.836      128.218        0.051        0.030       19.990        9.476        0.225      332.992        2.016      863.460
01/23/2014  01:57:00        9.697        6.022        5.371       11.237        9.196        8.919      126.280       84.560       79.551        0.022        0.015       11.415        4.178        0.134      333.188        2.339      863.464
01/23/2014  01:58:00        2.460       -1.474        1.535       12.815        7.238        8.450      164.237       52.387       71.410        0.015        0.014        2.868        6.142        4.586      333.040        2.095      863.474
01/23/2014  01:59:00       -4.223       25.103        2.879       15.393       16.671       11.204      236.935      277.937      125.528        0.065        0.032       25.456       11.186        0.193      333.148        2.273      863.479
01/23/2014  02:00:00       -5.598       25.227        1.402       11.114       14.900        8.398      123.527      222.017       70.523        0.054        0.021       25.841        9.085        0.124      333.125        2.234      863.485
01/23/2014  02:01:00      -57.580        0.853       -3.803       18.469        8.601       10.078      341.100       73.986      101.570        0.192        0.026       57.586       10.338        0.032      332.417        1.067      863.481
01/23/2014  02:02:00      -65.711      -12.683       -6.232        8.601       12.131        7.428       73.983      147.173       55.170        0.240        0.014       66.923        7.177        0.012      332.162        0.645      863.462
01/23/2014  02:03:00      -46.785      -29.606       -5.316       14.995       10.736        9.571      224.841      115.262       91.605        0.176        0.022       55.366        7.119        0.017      332.229        0.756      863.446
01/23/2014  02:04:00      -66.071      -27.160       -8.540       11.617        9.392        6.348      134.947       88.209       40.291        0.272        0.013       71.436        2.709        0.001      332.313        0.894      863.421
01/23/2014  02:05:00      -75.535      -22.173      -13.038        6.840        8.089        7.029       46.783       65.426       49.406        0.326        0.008       78.723        4.325        0.003      332.285        0.849      863.393
01/23/2014  02:06:00      -63.657      -11.916       -8.612        8.377        5.592        5.705       70.178       31.266       32.547        0.220        0.007       64.763        4.628        0.005      332.264        0.814      863.386
01/23/2014  02:07:00      -60.157       -8.453       -8.903        6.498        6.960        5.376       42.224       48.436       28.900        0.194        0.006       60.748        2.408        0.002      332.360        0.971      863.387
01/23/2014  02:08:00      -67.672        2.866      -11.316        6.397        6.757        6.661       40.928       45.661       44.374        0.242        0.007       67.733        3.620        0.003      332.291        0.858      863.394
01/23/2014  02:09:00      -63.015       -7.904      -11.562        9.115        5.886        7.571       83.092       34.639       57.318        0.217        0.009       63.508        5.485        0.007      332.320        0.903      863.390
01/23/2014  02:10:00      -80.966      -31.127       -9.326        8.820       11.821        7.427       77.794      139.738       55.157        0.394        0.014       86.744        3.279        0.001      332.190        0.692      863.375
01/23/2014  02:11:00      -79.489      -37.529       -7.725       11.056       18.450        8.634      122.231      340.413       74.547        0.416        0.027       87.903        8.714        0.010      332.066        0.488      863.351
01/23/2014  02:12:00      -79.945      -31.117      -10.923        8.805       11.056        7.421       77.525      122.241       55.072        0.387        0.013       85.787        3.735        0.002      332.077        0.507      863.341
01/23/2014  02:13:00      -79.244      -17.519       -9.430        8.784        9.283        6.166       77.166       86.173       38.018        0.344        0.010       81.158        3.399        0.002      332.075        0.503      863.339
01/23/2014  02:14:00      -88.240      -11.664      -12.978        8.438        9.834        9.674       71.199       96.706       93.592        0.418        0.013       89.008        4.734        0.003      332.101        0.544      863.358
01/23/2014  02:15:00      -98.557      -27.606      -11.281       18.318       10.917        8.758      335.534      119.175       76.700        0.557        0.027      102.350        7.844        0.006      332.079        0.509      863.383
01/23/2014  02:16:00      -85.888      -42.447       -6.574        9.734       10.116        8.377       94.741      102.335       70.181        0.474        0.013       95.804        5.463        0.003      332.065        0.487      863.417
01/23/2014  02:17:00      -86.292      -35.791       -6.409       13.958       11.831        6.450      194.820      139.969       41.604        0.457        0.019       93.420        4.399        0.002      332.099        0.541      863.452
01/23/2014  02:18:00      -71.821      -40.123       -5.989       16.748        9.835        9.821      280.490       96.736       96.455        0.364        0.024       82.269        6.910        0.007      332.161        0.643      863.471
01/23/2014  02:19:00      -99.075      -46.519       -9.581       18.483       11.636        7.535      341.636      135.389       56.783        0.630        0.027      109.452        5.280        0.002      332.023        0.417      863.470
01/23/2014  02:20:00      -97.659      -55.816       -2.119       20.440       12.951       12.221      417.773      167.730      149.360        0.670        0.037      112.485       11.411        0.010      332.018        0.407      863.451
01/23/2014  02:21:00      -87.035      -53.557       -2.275       18.097       15.558       14.704      327.488      242.051      216.195        0.562        0.039      102.193        8.976        0.008      331.944        0.287      863.441
01/23/2014  02:22:00      -61.448      -48.438       -5.031       21.231       18.046       11.299      450.774      325.658      127.664        0.353        0.045       78.244        7.532        0.009      332.043        0.448      863.454
01/23/2014  02:23:00      -62.279      -50.679       -7.895       16.821       17.541       10.214      282.944      307.691      104.326        0.360        0.035       80.294        9.803        0.015      332.351        0.956      863.478
01/23/2014  02:24:00      -29.772      -24.015        2.100       19.686       11.699       11.750      387.537      136.860      138.059        0.106        0.033       38.251       10.001        0.068      332.330        0.920      863.510
01/23/2014  02:25:00      -27.599      -15.045       -4.555       12.700        9.921        7.856      161.282       98.423       61.714        0.067        0.016       31.433        6.643        0.045      332.415        1.063      863.525
01/23/2014  02:26:00      -40.639      -13.948       -8.808       10.480        7.453        7.908      109.835       55.543       62.530        0.108        0.011       42.966        5.069        0.014      332.580        1.335      863.520
01/23/2014  02:27:00      -53.643      -11.558       -8.855        7.703        8.826        5.466       59.341       77.901       29.872        0.163        0.008       54.874        3.016        0.003      332.345        0.947      863.512
01/23/2014  02:28:00      -57.232      -23.278       -8.478        5.682       16.323        6.298       32.284      266.430       39.670        0.211        0.017       61.785        3.873        0.004      332.419        1.069      863.506
01/23/2014  02:29:00      -45.045      -19.472      -10.427       22.029       15.702        8.043      485.288      246.549       64.693        0.166        0.040       49.074        8.626        0.031      332.263        0.812      863.507
01/23/2014  02:30:00      -74.124      -15.993      -14.284        7.485       15.517        5.645       56.022      240.770       31.872        0.314        0.016       75.829        3.157        0.002      332.268        0.822      863.519
01/23/2014  02:31:00      -75.176      -22.586      -17.629       15.900       19.126        8.932      252.821      365.798       79.783        0.359        0.035       78.495        9.020        0.013      332.341        0.940      863.521
01/23/2014  02:32:00      -42.598      -14.430        2.606       17.516        8.697        8.408      306.827       75.636       70.686        0.124        0.023       44.976       10.518        0.055      332.333        0.925      863.552
01/23/2014  02:33:00      -14.527      -21.560       -6.507       21.366       14.067       13.569      456.491      197.868      184.112        0.078        0.042       25.997       14.108        0.294      332.501        1.205      863.572
01/23/2014  02:34:00      -43.298      -16.099        4.664       18.472       12.649       14.427      341.197      160.007      208.130        0.143        0.035       46.194       11.308        0.060      332.927        1.907      863.566
01/23/2014  02:35:00      -28.496      -30.594       -6.508       18.161       15.339       20.764      329.826      235.293      431.162        0.139        0.050       41.809       14.961        0.128      332.206        0.718      863.566
01/23/2014  02:36:00      -57.635      -43.224       -2.839       17.425       15.711        9.877      303.618      246.822       97.555        0.292        0.032       72.043        9.326        0.017      332.488        1.184      863.571
01/23/2014  02:37:00      -37.937      -24.425        2.595       32.139       16.743       11.170     1032.903      280.329      124.759        0.174        0.072       45.120       13.370        0.088      332.394        1.026      863.564
01/23/2014  02:38:00      -51.357      -13.323       -8.035       16.015        7.823        8.146      256.473       61.205       66.362        0.163        0.019       53.057        8.844        0.028      332.308        0.885      863.566
01/23/2014  02:39:00      -40.934       -0.880       -4.540       11.995        4.683        6.452      143.887       21.931       41.626        0.095        0.010       40.944        6.882        0.028      332.209        0.726      863.576
01/23/2014  02:40:00      -60.833       -2.134      -10.857       14.929        4.532        4.353      222.890       20.540       18.950        0.204        0.013       60.870        3.721        0.004      332.374        0.994      863.566
01/23/2014  02:41:00      -75.574      -10.584      -10.372        6.744        7.057        6.568       45.484       49.801       43.137        0.303        0.007       76.312        4.374        0.003      332.268        0.821      863.555
01/23/2014  02:42:00      -59.276       -8.490      -11.787        5.416        5.759        4.927       29.338       33.170       24.274        0.191        0.004       59.881        2.888        0.002      332.205        0.716      863.562
01/23/2014  02:43:00      -48.990      -24.261       -4.974        9.939        6.721        5.453       98.776       45.175       29.738        0.159        0.009       54.668        3.904        0.005      332.262        0.813      863.562
01/23/2014  02:44:00       -8.171      -18.731        1.657       10.244        9.636        9.212      104.947       92.858       84.865        0.035        0.014       20.436        6.478        0.100      332.302        0.875      863.547
01/23/2014  02:45:00      -47.994       -6.722       -6.104       13.618        6.253        5.422      185.436       39.095       29.402        0.132        0.013       48.462        3.072        0.004      332.449        1.119      863.529
01/23/2014  02:46:00      -78.702        4.604       -1.911        7.291        7.294        5.165       53.156       53.204       26.675        0.318        0.007       78.837        2.815        0.001      332.205        0.716      863.490
01/23/2014  02:47:00      -59.323        6.692       -5.309       14.736        6.530       10.915      217.150       42.644      119.129        0.199        0.019       59.699        9.011        0.023      332.259        0.806      863.474
01/23/2014  02:48:00      -37.475        6.090       -6.081        8.795        8.380        5.379       77.355       70.229       28.929        0.083        0.009       37.966        3.557        0.009      332.444        1.111      863.467
01/23/2014  02:49:00      -39.491      -10.968       -5.219       12.151        8.471        6.119      147.636       71.755       37.443        0.098        0.013       40.986        4.661        0.013      332.565        1.310      863.459
01/23/2014  02:50:00      -42.749       -8.501       -8.322       13.418        5.455        4.873      180.047       29.756       23.741        0.110        0.012       43.586        3.594        0.007      332.750        1.616      863.440
01/23/2014  02:51:00      -53.453      -21.649      -10.874       10.309       11.615        7.114      106.284      134.898       50.606        0.187        0.015       57.671        4.771        0.007      332.701        1.534      863.425
01/23/2014  02:52:00      -48.726      -27.809       -7.359       12.661        8.766        7.111      160.295       76.842       50.565        0.174        0.014       56.103        6.327        0.013      332.318        0.903      863.415
01/23/2014  02:53:00      -76.137      -20.316       -9.577       10.002       11.317        8.467      100.033      128.075       71.682        0.330        0.015       78.800        2.719        0.001      332.250        0.791      863.417
01/23/2014  02:54:00      -50.664       -6.038       -8.765       11.016        7.025        8.176      121.344       49.355       66.841        0.146        0.012       51.022        5.442        0.011      332.340        0.940      863.441
01/23/2014  02:55:00      -28.616       -2.265       -3.178        7.532        5.120        4.751       56.738       26.214       22.568        0.047        0.005       28.706        4.174        0.021      332.502        1.206      863.472
01/23/2014  02:56:00      -49.312      -19.019       -4.334       10.002        8.006        4.507      100.040       64.098       20.313        0.150        0.009       52.852        3.326        0.004      332.520        1.235      863.472
01/23/2014  02:57:00      -61.305       -7.069      -12.186        4.614        7.015        6.216       21.286       49.204       38.643        0.203        0.005       61.712        4.130        0.004      332.351        0.957      863.475
01/23/2014  02:58:00      -67.708        1.636      -14.027       10.182        8.874        7.146      103.682       78.743       51.061        0.251        0.012       67.728        6.427        0.009      332.465        1.144      863.489
01/23/2014  02:59:00      -72.203        3.142       -9.616       13.001        5.151        6.153      169.014       26.536       37.860        0.277        0.012       72.272        1.327        0.000      332.705        1.540      863.504
01/23/2014  03:00:00      -57.855        2.869       -7.557       10.965        7.183        5.743      120.233       51.592       32.978        0.181        0.010       57.926        4.181        0.005      332.848        1.779      863.515
01/23/2014  03:01:00      -13.035       22.447        0.821       23.427       14.009        5.750      548.819      196.254       33.060        0.073        0.039       25.957        4.946        0.036      332.854        1.787      863.557
01/23/2014  03:02:00       19.578       55.944       -7.803       10.614       11.985        8.591      112.660      143.630       73.803        0.195        0.017       59.270        6.338        0.011      333.187        2.338      863.585
01/23/2014  03:03:00       22.746       61.028       -7.929        9.015       17.261       10.285       81.275      297.925      105.780        0.239        0.024       65.129       10.114        0.024      333.113        2.215      863.617
01/23/2014  03:04:00        8.831       52.466       -9.434        9.657        7.306        4.983       93.260       53.370       24.830        0.155        0.009       53.204        3.267        0.004      333.145        2.261      863.620
01/23/2014  03:05:00      -17.344       28.849       -3.829       12.254       17.602        5.920      150.167      309.828       35.043        0.082        0.025       33.661        5.311        0.025      332.994        2.017      863.606
01/23/2014  03:06:00       -8.864       12.320       -2.953        8.118       10.876        4.952       65.897      118.278       24.520        0.022        0.010       15.177        5.340        0.124      333.044        2.102      863.594
01/23/2014  03:07:00       -2.887       15.927       -1.348       13.318       16.150        7.220      177.381      260.809       52.128        0.038        0.025       16.186        8.162        0.254      333.021        2.063      863.577
01/23/2014  03:08:00        1.395       20.668       -1.705       10.446       19.976        6.460      109.128      399.051       41.737        0.049        0.027       20.715        8.913        0.185      333.089        2.176      863.561
01/23/2014  03:09:00       20.627       41.741       -5.807        9.070        9.407        6.316       82.266       88.486       39.897        0.121        0.011       46.560        5.014        0.012      333.177        2.321      863.540
01/23/2014  03:10:00        6.204       49.402       -5.561        6.887        8.800        4.962       47.436       77.446       24.622        0.133        0.007       49.790        5.278        0.011      333.229        2.406      863.541
01/23/2014  03:11:00        7.228       50.354       -6.797        9.333        7.117        5.715       87.103       50.654       32.661        0.140        0.009       50.870        3.246        0.004      333.261        2.459      863.537
01/23/2014  03:12:00        8.001       54.988      -10.398        7.932        7.628        5.939       62.913       58.194       35.269        0.168        0.008       55.567        2.526        0.002      333.277        2.487      863.531
01/23/2014  03:13:00       -3.648       30.816       -0.363       15.985       15.611        7.730      255.508      243.698       59.747        0.076        0.028       31.031        7.856        0.064      333.107        2.204      863.535
01/23/2014  03:14:00        8.539       13.078       -5.926        7.327       12.017        7.934       53.691      144.405       62.947        0.027        0.013       15.618        7.576        0.235      333.201        2.360      863.547
01/23/2014  03:15:00        0.880       32.615       -2.403        6.167       11.042        8.274       38.034      121.936       68.453        0.065        0.011       32.626        3.808        0.014      333.378        2.653      863.553
01/23/2014  03:16:00       -0.325       66.613       -4.856       11.263       13.298        6.511      126.862      176.833       42.397        0.240        0.017       66.614        7.210        0.012      333.591        3.005      863.560
01/23/2014  03:17:00       15.256       43.643       -3.885       11.469       31.984       12.007      131.529     1022.957      144.177        0.173        0.065       46.233       15.869        0.118      333.367        2.634      863.574
01/23/2014  03:18:00       19.969       64.466       -6.948       15.620       21.088       10.082      243.988      444.724      101.643        0.270        0.040       67.488        9.086        0.018      333.284        2.497      863.575
01/23/2014  03:19:00       13.380       71.807      -10.447       10.028        9.147        8.221      100.568       83.664       67.589        0.285        0.013       73.043        5.977        0.007      333.325        2.566      863.583
01/23/2014  03:20:00       21.989       62.483       -8.884       15.116       20.731       10.793      228.480      429.763      116.480        0.262        0.039       66.239       11.150        0.028      333.330        2.573      863.583
01/23/2014  03:21:00       30.421       30.654       -1.855       21.235       19.399       14.634      450.942      376.330      214.162        0.145        0.052       43.187       12.054        0.078      333.232        2.410      863.605
01/23/2014  03:22:00       52.902       36.254       -1.962       11.994       11.307       11.672      143.858      127.849      136.238        0.226        0.020       64.132        7.351        0.013      332.978        1.993      863.647
01/23/2014  03:23:00       19.329       28.787       -1.894       16.436        9.250        5.039      270.133       85.558       25.392        0.079        0.019       34.674        5.376        0.024      332.954        1.952      863.674
01/23/2014  03:24:00       -2.399       47.183       -3.762        6.052       10.872        4.962       36.626      118.204       24.621        0.121        0.009       47.244        2.420        0.003      333.214        2.379      863.696
01/23/2014  03:25:00       -3.214       40.138        1.097       12.901       23.138       10.748      166.427      535.385      115.517        0.122        0.041       40.266       12.311        0.093      333.066        2.136      863.726
01/23/2014  03:26:00        1.957       59.053       -8.033       11.237       14.456        8.457      126.280      208.963       71.519        0.198        0.020       59.086        4.375        0.005      333.334        2.581      863.746
01/23/2014  03:27:00       13.598       62.387      -10.719       10.807       12.793        6.662      116.788      163.650       44.379        0.226        0.016       63.851        4.852        0.006      333.353        2.612      863.755
01/23/2014  03:28:00       -5.584       51.781       -6.630        8.850       14.842        8.269       78.326      220.271       68.368        0.156        0.018       52.082        7.659        0.022      333.369        2.637      863.738
01/23/2014  03:29:00      -51.348      -16.523      -13.646       21.669       19.087        9.859      469.532      364.325       97.208        0.201        0.047       53.941        9.098        0.028      332.667        1.480      863.712
01/23/2014  03:30:00      -74.018      -10.659      -10.951       23.266       11.290        9.757      541.302      127.467       95.202        0.324        0.038       74.782        6.496        0.008      332.465        1.146      863.707
01/23/2014  03:31:00      -63.111      -20.513      -13.729       14.564        9.924        6.211      212.103       98.480       38.579        0.247        0.017       66.361        6.005        0.008      332.477        1.165      863.696
01/23/2014  03:32:00      -63.094       -6.340       -9.478       16.388       16.246       12.406      268.579      263.947      153.916        0.240        0.034       63.411        7.720        0.015      332.255        0.800      863.701
01/23/2014  03:33:00      -89.427       -5.401      -16.655       16.164       12.208       12.200      261.272      149.037      148.850        0.443        0.028       89.590        8.952        0.010      332.290        0.859      863.714
01/23/2014  03:34:00      -89.701       -8.083      -11.722       18.872       13.903       10.119      356.168      193.288      102.390        0.445        0.033       90.065        7.353        0.007      332.221        0.742      863.731
01/23/2014  03:35:00      -65.705      -29.940       -6.571       30.182       21.551       12.431      910.958      464.436      154.542        0.339        0.076       72.205       11.643        0.026      332.256        0.799      863.743
01/23/2014  03:36:00      -60.285      -30.029       -5.759       32.040       16.720       14.181     1026.571      279.563      201.108        0.304        0.075       67.350       13.657        0.041      332.227        0.752      863.744
01/23/2014  03:37:00      -65.571      -50.289       -7.280       25.986       24.182       15.057      675.273      584.778      226.712        0.418        0.074       82.635       10.597        0.016      332.224        0.747      863.735
01/23/2014  03:38:00      -98.184      -41.795       -1.224       22.568       19.838       12.467      509.311      393.550      155.433        0.622        0.053      106.709       10.036        0.009      332.129        0.591      863.723
01/23/2014  03:39:00      -86.985      -20.439       -7.888       12.605       12.736        9.177      158.879      162.206       84.218        0.423        0.020       89.354        5.570        0.004      332.150        0.625      863.731
01/23/2014  03:40:00      -93.515      -23.910       -8.872       15.415       13.252        9.338      237.630      175.616       87.201        0.495        0.025       96.523        6.418        0.004      332.202        0.711      863.740
01/23/2014  03:41:00      -46.068      -24.870        1.900       16.872       12.877        9.928      284.675      165.819       98.559        0.165        0.027       52.352        8.561        0.027      332.178        0.672      863.763
01/23/2014  03:42:00     -102.806      -31.885      -12.183       21.355       11.265        8.349      456.038      126.891       69.713        0.619        0.033      107.637       10.409        0.009      332.479        1.169      863.793
01/23/2014  03:43:00      -86.862      -33.967       -4.056       18.358       11.036        8.957      337.016      121.798       80.219        0.463        0.027       93.267        5.662        0.004      332.288        0.852      863.808
01/23/2014  03:44:00      -58.806      -44.164       -6.384       14.087       10.881        8.600      198.446      118.407       73.962        0.292        0.020       73.543        5.514        0.006      332.423        1.076      863.826
01/23/2014  03:45:00      -54.171      -32.321       -3.326       15.310       12.509        8.052      234.391      156.482       64.837        0.222        0.023       63.081        6.503        0.011      332.397        1.032      863.837
01/23/2014  03:46:00      -63.440      -18.450      -12.902        7.195       15.429        9.348       51.774      238.058       87.377        0.245        0.019       66.069        8.371        0.016      332.357        0.966      863.843
01/23/2014  03:47:00      -70.629      -16.675      -13.632       15.403       14.539       11.736      237.254      211.385      137.745        0.302        0.029       72.571       10.130        0.019      332.337        0.933      863.838
01/23/2014  03:48:00      -94.386        0.317      -14.413       11.343        6.738        9.212      128.670       45.397       84.855        0.469        0.013       94.386        6.198        0.004      332.334        0.928      863.832
01/23/2014  03:49:00      -87.933      -16.243      -10.639       17.504       11.784        9.844      306.373      138.874       96.903        0.433        0.027       89.421       10.279        0.013      332.251        0.792      863.841
01/23/2014  03:50:00      -67.950      -14.151       -6.953       11.141       10.402        6.700      124.133      108.212       44.884        0.257        0.014       69.408        5.569        0.006      332.226        0.754      863.870
01/23/2014  03:51:00      -87.383      -18.972      -10.467       12.573       14.664       10.537      158.088      215.040      111.019        0.429        0.024       89.418        7.556        0.007      332.231        0.759      863.874
01/23/2014  03:52:00      -73.714      -12.721      -14.547        8.960        7.397        5.736       80.277       54.713       32.903        0.299        0.008       74.804        1.218        0.000      332.177        0.670      863.884
01/23/2014  03:53:00      -85.110       -5.652      -14.913       15.842        7.546        8.403      250.977       56.941       70.603        0.394        0.019       85.298        6.580        0.006      332.182        0.677      863.907
01/23/2014  03:54:00      -80.570       -2.761      -14.025       13.495       10.318       11.587      182.117      106.471      134.248        0.356        0.021       80.618        6.783        0.007      332.084        0.517      863.915
01/23/2014  03:55:00      -47.224       11.952      -13.069       16.456       20.454        8.920      270.790      418.349       79.574        0.166        0.038       48.713       10.568        0.047      332.684        1.508      863.929
01/23/2014  03:56:00       -2.729       32.530       -0.824       22.477       11.967        6.807      505.227      143.205       46.340        0.088        0.035       32.645        4.051        0.015      332.991        2.015      863.925
01/23/2014  03:57:00       -2.306       21.224        4.008       10.464       19.526       10.050      109.490      381.268      101.000        0.053        0.030       21.349       10.668        0.250      332.778        1.663      863.914
01/23/2014  03:58:00       -2.723       67.558       -9.260       10.400       11.205        7.355      108.150      125.547       54.091        0.247        0.014       67.613        3.938        0.003      333.184        2.331      863.898
01/23/2014  03:59:00        9.960       86.389      -10.394       15.014       23.172        9.802      225.415      536.949       96.075        0.426        0.043       86.961       12.262        0.020      333.263        2.463      863.894
01/23/2014  04:00:00       23.876       74.108      -11.270       16.672       28.578       16.250      277.965      816.717      264.050        0.377        0.068       77.859       12.229        0.025      333.036        2.087      863.910
01/23/2014  04:01:00       37.497      103.693      -21.036       14.278       18.289       11.598      203.867      334.493      134.511        0.664        0.034      110.265        7.600        0.005      333.024        2.069      863.940
01/23/2014  04:02:00       28.917       71.266       -8.626       20.465       29.843       19.168      418.803      890.621      367.393        0.383        0.084       76.909       16.385        0.045      332.915        1.889      863.971
01/23/2014  04:03:00       22.146       63.200       -5.038       20.822       39.080       15.795      433.546     1527.215      249.493        0.336        0.111       66.968       18.553        0.077      332.826        1.742      863.999
01/23/2014  04:04:00       22.036       43.918        2.146       18.731       20.655       15.832      350.864      426.633      250.649        0.172        0.051       49.137       12.194        0.062      332.756        1.626      864.009
01/23/2014  04:05:00       17.786       35.058       -3.558       16.166       23.137       12.532      261.354      535.316      157.047        0.126        0.048       39.312       13.250        0.114      332.756        1.627      864.011
01/23/2014  04:06:00       36.496       38.136       -2.281       17.159       20.869       16.213      294.421      435.502      262.848        0.189        0.050       52.786       10.286        0.038      332.964        1.970      864.014
01/23/2014  04:07:00       31.070       38.767       -5.532       16.155       19.549       15.051      260.969      382.173      226.544        0.168        0.043       49.681       10.900        0.048      332.912        1.883      864.025
01/23/2014  04:08:00       44.016       34.069        5.901       26.041       16.722       18.623      678.137      279.629      346.826        0.222        0.065       55.661        7.285        0.017      332.873        1.819      864.040
01/23/2014  04:09:00       61.366       35.276        4.694       21.395       14.632       12.713      457.735      214.088      161.626        0.293        0.042       70.783        6.760        0.009      332.894        1.855      864.064
01/23/2014  04:10:00       46.406       30.048        2.575       17.589       13.290        9.545      309.379      176.615       91.100        0.182        0.029       55.285        6.981        0.016      332.829        1.746      864.083
01/23/2014  04:11:00       49.667       26.712       -5.890       17.050       12.290        9.569      290.714      151.051       91.573        0.187        0.027       56.395        7.550        0.018      332.923        1.902      864.095
01/23/2014  04:12:00       26.566       11.844        4.270       14.710        8.614        7.560      216.393       74.198       57.151        0.061        0.017       29.086        7.057        0.059      332.913        1.885      864.096
01/23/2014  04:13:00        6.828       -5.246        3.009        7.299        9.779        6.926       53.281       95.630       47.970        0.014        0.010        8.610        3.001        0.121      332.793        1.686      864.107
01/23/2014  04:14:00       16.699        0.791       11.857       23.230       11.956       10.269      539.616      142.937      105.455        0.060        0.039       16.717       11.184        0.448      332.537        1.263      864.120
01/23/2014  04:15:00       33.649       -3.476        8.866       19.890       11.397       11.585      395.618      129.898      134.218        0.094        0.033       33.828        8.284        0.060      332.766        1.643      864.123
01/23/2014  04:16:00       32.062        1.127        1.691       17.800        8.961        9.116      316.845       80.295       83.103        0.076        0.024       32.082        9.810        0.093      332.907        1.875      864.112
01/23/2014  04:17:00       35.245       13.539       10.394       19.260        9.777       12.000      370.959       95.580      144.000        0.107        0.031       37.756       11.598        0.094      332.809        1.714      864.114
01/23/2014  04:18:00       23.277        6.437        7.507       24.784       13.790        8.914      614.266      190.154       79.459        0.076        0.044       24.151        7.294        0.091      332.720        1.566      864.110
01/23/2014  04:19:00       30.165       17.353        8.522       19.352        5.585        6.801      374.504       31.192       46.254        0.087        0.023       34.801        3.712        0.011      332.926        1.907      864.099
01/23/2014  04:20:00      -18.430       -3.465        2.750        8.270        7.096        6.426       68.388       50.358       41.300        0.026        0.008       18.753        3.943        0.044      332.582        1.339      864.094
01/23/2014  04:21:00      -10.950        4.041       -4.083       11.196        5.510        8.213      125.344       30.363       67.451        0.019        0.011       11.672        3.429        0.086      332.734        1.588      864.093
01/23/2014  04:22:00       -8.668       -3.788        1.631       10.711        7.324        6.074      114.720       53.644       36.889        0.015        0.010        9.459        6.056        0.410      332.500        1.202      864.125
01/23/2014  04:23:00        5.360       -4.708        2.818       10.331        7.316        6.056      106.720       53.521       36.679        0.013        0.010        7.134        3.640        0.260      332.589        1.349      864.145
01/23/2014  04:24:00        3.461      -16.964        4.000        9.541       12.195        6.575       91.032      148.718       43.230        0.030        0.014       17.313        4.691        0.073      332.763        1.637      864.154
01/23/2014  04:25:00      -22.807      -11.554        3.765       16.089       12.530       11.165      258.864      156.997      124.654        0.060        0.027       25.566       10.153        0.158      332.420        1.071      864.166
01/23/2014  04:26:00      -50.949      -18.536       -5.195       19.495       11.354        6.163      380.044      128.912       37.978        0.176        0.027       54.216        7.097        0.017      332.495        1.195      864.172
01/23/2014  04:27:00      -78.310      -14.404      -17.388       16.561        8.162        7.830      274.268       66.615       61.308        0.352        0.020       79.624        8.311        0.011      332.163        0.649      864.161
01/23/2014  04:28:00      -71.049       -6.168       -5.801        9.049       13.380        8.130       81.882      179.013       66.104        0.272        0.016       71.316        7.912        0.012      332.002        0.381      864.174
01/23/2014  04:29:00      -91.911       -0.359       -8.513       13.099       10.763        8.744      171.576      115.850       76.455        0.444        0.018       91.912        8.219        0.008      332.057        0.473      864.193
01/23/2014  04:30:00      -81.402       -7.659      -12.658       11.927        9.028        7.407      142.260       81.513       54.865        0.356        0.014       81.762        5.855        0.005      332.103        0.548      864.210
01/23/2014  04:31:00      -81.625      -32.564      -11.241       11.430       16.298        9.391      130.651      265.625       88.187        0.417        0.024       87.881        7.843        0.008      331.969        0.328      864.215
01/23/2014  04:32:00      -64.234      -30.974       -7.239       23.240       22.395       15.059      540.092      501.526      226.787        0.320        0.063       71.312       11.547        0.026      331.875        0.172      864.251
01/23/2014  04:33:00      -77.811       -4.001      -10.219       12.859       11.065       12.039      165.348      122.423      144.926        0.330        0.022       77.914        8.279        0.011      332.022        0.413      864.301
01/23/2014  04:34:00      -57.076       -4.030       -3.710       13.265       12.174       10.588      175.948      148.217      112.096        0.186        0.022       57.218        8.575        0.022      331.895        0.204      864.329
01/23/2014  04:35:00      -71.445      -24.044      -12.713       14.796       15.029        9.359      218.933      225.880       87.585        0.319        0.027       75.382        5.434        0.005      331.879        0.177      864.343
01/23/2014  04:36:00     -115.288        7.345      -21.367       20.054       13.939       10.743      402.165      194.285      115.415        0.726        0.036      115.522        7.611        0.004      331.798        0.047      864.350
01/23/2014  04:37:00      -86.734        5.554      -11.318       24.310       20.306       17.283      590.983      412.332      298.718        0.449        0.065       86.912       12.676        0.021      331.708       -0.102      864.379
01/23/2014  04:38:00     -113.999        8.805      -19.492       25.306       21.316       18.117      640.400      454.368      328.239        0.744        0.071      114.339       13.458        0.014      331.842        0.118      864.406
01/23/2014  04:39:00      -82.022       -7.710      -21.689       17.936       15.940       10.475      321.691      254.075      109.731        0.397        0.034       82.383       11.123        0.018      331.610       -0.263      864.426
01/23/2014  04:40:00      -66.937      -17.209      -16.769       15.968       17.965       10.117      254.975      322.737      102.350        0.287        0.034       69.114        8.827        0.016      331.682       -0.144      864.434
01/23/2014  04:41:00      -51.416      -19.721      -10.323       14.106       11.595       10.710      198.979      134.433      114.710        0.179        0.022       55.068        7.984        0.021      331.942        0.283      864.448
01/23/2014  04:42:00      -34.787      -10.009       -7.217        9.476       15.905        7.718       89.787      252.981       59.562        0.088        0.020       36.199        6.127        0.029      332.184        0.681      864.473
01/23/2014  04:43:00      -40.263      -12.362      -12.766       21.499       15.179        8.831      462.191      230.389       77.993        0.135        0.039       42.118        6.921        0.027      332.251        0.793      864.490
01/23/2014  04:44:00      -34.105       -7.013      -11.871       15.149        9.414        7.265      229.501       88.615       52.786        0.086        0.019       34.819        6.236        0.032      332.487        1.181      864.503
01/23/2014  04:45:00      -55.498      -13.346      -11.401        9.453       12.422        6.732       89.352      154.310       45.317        0.184        0.014       57.080        3.885        0.005      331.963        0.319      864.497
01/23/2014  04:46:00      -46.537       -0.457       -6.862       12.346       15.493       10.061      152.435      240.020      101.231        0.135        0.025       46.540        9.111        0.038      332.133        0.598      864.506
01/23/2014  04:47:00      -42.632      -24.068       -5.234       15.101       20.302        8.955      228.033      412.179       80.187        0.157        0.036       48.957        5.021        0.011      332.220        0.742      864.524
01/23/2014  04:48:00      -51.936      -41.000      -12.795       18.020       13.542       12.680      324.713      183.376      160.783        0.261        0.033       66.169        7.851        0.014      331.836        0.108      864.549
01/23/2014  04:49:00      -82.959      -29.383      -13.885       20.671       19.637       13.628      427.303      385.597      185.730        0.447        0.050       88.009        6.032        0.005      331.754       -0.026      864.568
01/23/2014  04:50:00      -89.474      -25.988      -10.017       29.149       23.055       19.190      849.640      531.527      368.269        0.527        0.087       93.172       18.166        0.038      331.695       -0.123      864.597
01/23/2014  04:51:00      -92.409      -21.011      -29.040       17.685       20.580       12.592      312.758      423.556      158.560        0.536        0.045       94.768       11.703        0.015      331.606       -0.271      864.623
01/23/2014  04:52:00      -95.321       -5.773      -18.474       16.253       15.850       12.083      264.150      251.223      146.008        0.506        0.033       95.496        3.489        0.001      331.772        0.003      864.648
01/23/2014  04:53:00      -98.156       14.894      -14.590       37.766       21.625       17.834     1426.252      467.660      318.062        0.614        0.111       99.280       19.993        0.041      332.012        0.398      864.659
01/23/2014  04:54:00      -88.428      -14.474      -14.607       19.359       20.378       18.259      374.762      415.278      333.404        0.468        0.056       89.605       14.516        0.026      331.807        0.058      864.653
01/23/2014  04:55:00      -73.616       12.025      -19.101       22.195       42.345       14.647      492.613     1793.118      214.549        0.421        0.125       74.592       12.216        0.027      332.064        0.483      864.661
01/23/2014  04:56:00      -60.082       56.859      -10.517       26.640       43.138       18.747      709.675     1860.886      351.446        0.494        0.146       82.721       13.695        0.027      332.479        1.168      864.677
01/23/2014  04:57:00      -28.039      106.899       -9.610       34.506       30.105       20.194     1190.650      906.286      407.806        0.740        0.125      110.515       14.627        0.018      333.371        2.642      864.683
01/23/2014  04:58:00       23.440       68.694        0.022       40.972       30.629       20.408     1678.691      938.162      416.476        0.415        0.152       72.583       16.708        0.053      333.259        2.455      864.695
01/23/2014  04:59:00       31.355        8.076        4.719       22.333       13.798       14.288      498.748      190.385      204.136        0.098        0.045       32.378       12.256        0.143      333.006        2.038      864.688
01/23/2014  05:00:00      -24.085      -13.764       -2.572       19.555       10.039       12.057      382.388      100.783      145.359        0.070        0.031       27.740       11.304        0.166      332.514        1.227      864.678
01/23/2014  05:01:00      -44.678       -3.600      -13.873       19.446       14.561        9.638      378.145      212.015       92.884        0.144        0.034       44.822        4.910        0.012      332.199        0.705      864.675
01/23/2014  05:02:00      -54.996        0.107      -19.254       18.954       12.740        9.128      359.255      162.304       83.312        0.200        0.030       54.996        5.674        0.011      332.067        0.487      864.674
01/23/2014  05:03:00      -56.247        5.819       -1.701       19.132       11.933       13.935      366.046      142.406      194.184        0.195        0.035       56.547       10.442        0.034      332.378        1.001      864.676
01/23/2014  05:04:00      -42.520        2.387       -9.935       24.412       10.647        7.411      595.926      113.351       54.926        0.134        0.038       42.587        7.449        0.031      332.353        0.962      864.681
01/23/2014  05:05:00      -33.548      -11.447       -4.156       21.054       11.163        8.497      443.270      124.618       72.206        0.096        0.032       35.447        7.627        0.046      332.533        1.258      864.664
01/23/2014  05:06:00      -28.822      -13.836       -9.147       14.619       13.097        7.890      213.723      171.530       62.250        0.078        0.022       31.970        6.744        0.044      332.536        1.262      864.645
01/23/2014  05:07:00      -44.808      -19.986      -11.302       17.247       11.110        7.743      297.464      123.426       59.948        0.151        0.024       49.063        5.416        0.012      332.284        0.846      864.627
01/23/2014  05:08:00      -66.769      -10.202      -14.094       13.375        9.590        7.002      178.891       91.977       49.035        0.254        0.016       67.544        7.278        0.012      332.244        0.781      864.625
01/23/2014  05:09:00      -48.348       -9.303      -17.082       12.626        7.514        6.334      159.418       56.466       40.124        0.149        0.013       49.235        5.911        0.014      332.399        1.035      864.626
01/23/2014  05:10:00      -35.410       -7.469       -0.619       23.355       10.605       11.978      545.467      112.466      143.462        0.106        0.040       36.189       10.521        0.085      332.514        1.226      864.616
01/23/2014  05:11:00      -44.657       -9.421       -5.788       23.577       16.825        8.989      555.861      283.065       80.808        0.152        0.046       45.640        7.526        0.027      332.537        1.264      864.612
01/23/2014  05:12:00      -58.509      -12.236      -13.382       12.203       12.472       11.285      148.916      155.559      127.343        0.209        0.022       59.775        8.314        0.019      332.626        1.410      864.613
01/23/2014  05:13:00      -48.444       -1.836      -11.381       19.188       25.380        8.939      368.175      644.147       79.903        0.179        0.055       48.479        7.406        0.023      332.591        1.354      864.603
01/23/2014  05:14:00      -59.403       -4.435       -8.766       10.971       10.400        7.144      120.371      108.169       51.036        0.195        0.014       59.568        3.613        0.004      332.539        1.269      864.595
01/23/2014  05:15:00      -36.038      -15.106      -10.659       21.012       15.586        7.184      441.510      242.922       51.607        0.119        0.037       39.076        2.764        0.005      332.874        1.821      864.588
01/23/2014  05:16:00      -29.514       -9.675       -3.189       25.191       19.449       15.233      634.586      378.270      232.031        0.111        0.062       31.060       15.164        0.238      333.015        2.053      864.584
01/23/2014  05:17:00      -31.584      -19.058       -3.871       21.736       19.096        8.662      472.460      364.648       75.025        0.114        0.046       36.889        7.075        0.037      332.785        1.672      864.594
01/23/2014  05:18:00      -13.583       -7.440       -2.643       29.524       21.398       16.768      871.689      457.864      281.170        0.093        0.081       15.487       11.593        0.560      333.009        2.043      864.606
01/23/2014  05:19:00      -21.588        9.925       -1.277       30.592       16.307       14.121      935.855      265.905      199.416        0.098        0.070       23.760       10.938        0.212      332.887        1.842      864.628
01/23/2014  05:20:00      -36.390       -7.457       -6.964        9.893        7.405       10.861       97.870       54.841      117.955        0.085        0.014       37.146        7.619        0.042      332.418        1.067      864.639
01/23/2014  05:21:00      -21.241       -3.485       -1.274       16.176       15.627        7.524      261.663      244.199       56.613        0.051        0.028       21.525        7.132        0.110      332.590        1.352      864.637
01/23/2014  05:22:00      -48.596      -26.612       -9.402       21.373       17.395       12.805      456.817      302.581      163.957        0.204        0.046       55.406       11.892        0.046      332.371        0.989      864.637
01/23/2014  05:23:00      -71.912      -20.006      -15.060        9.219       11.302        8.656       84.985      127.744       74.923        0.304        0.014       74.643        4.465        0.004      332.004        0.385      864.642
01/23/2014  05:24:00      -61.558       -4.209      -15.791       14.152       16.143        9.621      200.284      260.604       92.570        0.230        0.028       61.702        8.323        0.018      332.030        0.428      864.653
01/23/2014  05:25:00      -65.316      -20.592      -12.100       10.454       13.204        8.924      109.295      174.351       79.642        0.260        0.018       68.485        8.097        0.014      331.969        0.326      864.678
01/23/2014  05:26:00      -73.952      -34.687      -17.224       16.527       18.187       11.420      273.137      330.757      130.408        0.385        0.037       81.682       10.061        0.015      331.881        0.183      864.697
01/23/2014  05:27:00      -69.707      -21.689      -11.386       12.328       14.526       13.972      151.976      210.992      195.230        0.301        0.028       73.003        7.627        0.011      331.971        0.330      864.716
01/23/2014  05:28:00      -68.862       -1.611       -9.890       12.976       15.550        8.311      168.388      241.803       69.079        0.266        0.024       68.880        7.650        0.012      331.940        0.280      864.712
01/23/2014  05:29:00      -69.143        2.153      -13.770        7.083       11.059        7.184       50.166      122.294       51.603        0.260        0.011       69.177        4.695        0.005      332.073        0.500      864.699
01/23/2014  05:30:00      -65.964        0.945      -11.983        7.105       11.137        7.222       50.484      124.025       52.154        0.236        0.011       65.971        2.330        0.001      332.149        0.624      864.694
01/23/2014  05:31:00      -28.672      -24.653      -11.883       16.343       15.635       10.189      267.091      244.461      103.812        0.109        0.031       37.814        9.836        0.068      332.190        0.690      864.694
01/23/2014  05:32:00      -11.264      -36.482       11.184       22.043       11.147       17.966      485.895      124.266      322.793        0.126        0.047       38.182       10.143        0.071      331.948        0.293      864.694
01/23/2014  05:33:00       -2.265      -19.916        2.976       12.198       13.557       10.657      148.780      183.788      113.577        0.043        0.022       20.044        9.339        0.217      332.254        0.798      864.690
01/23/2014  05:34:00       17.703       28.738       -4.806       21.697       19.236        9.012      470.759      370.009       81.223        0.104        0.046       33.753       12.387        0.135      332.709        1.549      864.686
01/23/2014  05:35:00      -13.423       40.814       -2.284       19.202       14.276       11.367      368.705      203.795      129.215        0.128        0.035       42.965        9.417        0.048      332.960        1.965      864.676
01/23/2014  05:36:00       -1.266       48.320       -6.265       16.544       17.358       10.182      273.720      301.308      103.676        0.153        0.034       48.337        8.627        0.032      333.102        2.197      864.687
01/23/2014  05:37:00      -53.122       21.825       -5.809       33.330       15.924        9.921     1110.907      253.587       98.427        0.240        0.073       57.431       14.547        0.064      332.319        0.905      864.711
01/23/2014  05:38:00       27.449       32.027       19.477       30.599       29.427       20.615      936.278      865.954      424.974        0.219        0.111       42.180       20.498        0.236      332.464        1.144      864.771
01/23/2014  05:39:00       -9.029       37.497       -2.110       26.008       29.093       14.481      676.418      846.403      209.711        0.161        0.087       38.569       15.822        0.168      332.513        1.224      864.807
01/23/2014  05:40:00      -47.289       -5.319       -8.008       15.820       22.601       11.188      250.267      510.806      125.174        0.161        0.044       47.587        4.416        0.009      332.199        0.706      864.825
01/23/2014  05:41:00      -44.738       31.775       -7.602       35.028       31.760       23.849     1226.959     1008.711      568.774        0.294        0.140       54.874       21.077        0.148      332.486        1.179      864.834
01/23/2014  05:42:00      -48.300       -0.673      -11.267       22.692       28.191       15.910      514.940      794.748      253.115        0.201        0.078       48.304       13.550        0.079      332.274        0.830      864.834
01/23/2014  05:43:00      -66.578      -13.429      -13.216       25.086       18.519       14.042      629.323      342.948      197.177        0.298        0.058       67.919       13.146        0.037      331.961        0.314      864.827
01/23/2014  05:44:00      -86.012       -3.012      -16.593       16.688       15.440       14.326      278.494      238.393      205.226        0.420        0.036       86.065        5.660        0.004      331.539       -0.381      864.824
01/23/2014  05:45:00      -45.403        2.235      -12.396       24.217       26.042       12.820      586.450      678.173      164.355        0.182        0.071       45.458        7.545        0.028      331.789        0.030      864.826
01/23/2014  05:46:00      -30.782       69.957      -11.066       28.216       33.895       15.160      796.157     1148.872      229.837        0.407        0.109       76.430       15.880        0.043      332.559        1.300      864.835
01/23/2014  05:47:00      -34.839       82.571       -8.820       30.017       30.556       18.771      901.035      933.639      352.366        0.515        0.109       89.619       17.190        0.037      332.903        1.869      864.838
01/23/2014  05:48:00      -32.384       81.824       -6.972       42.882       38.291       21.758     1838.834     1466.165      473.415        0.578        0.189       88.000       19.683        0.050      332.882        1.833      864.836
01/23/2014  05:49:00       27.468      102.336      -15.691       30.868       31.284       17.287      952.844      978.706      298.832        0.685        0.112      105.959       14.989        0.020      333.337        2.586      864.841
01/23/2014  05:50:00       20.633       61.908       -6.644       21.718       39.967       21.422      471.686     1597.390      458.891        0.341        0.126       65.256       25.063        0.148      333.172        2.312      864.835
01/23/2014  05:51:00       21.987       94.718      -13.211       19.788       29.519       10.691      391.568      871.345      114.296        0.550        0.069       97.237        8.664        0.008      333.200        2.359      864.833
01/23/2014  05:52:00      -16.986       89.748      -16.368       17.415       21.909        9.977      303.298      480.003       99.540        0.475        0.044       91.342        5.598        0.004      333.114        2.216      864.832
01/23/2014  05:53:00      -23.124       72.144      -18.750       30.100       50.637       15.712      905.993     2564.081      246.876        0.490        0.186       75.759       16.793        0.049      333.004        2.034      864.815
01/23/2014  05:54:00       -1.065       81.797       -9.452       22.716       36.344       13.536      516.011     1320.870      183.231        0.440        0.101       81.804       14.409        0.031      333.258        2.455      864.814
01/23/2014  05:55:00       -3.639       41.836       -8.882       17.205       31.193       13.015      296.005      972.978      169.382        0.164        0.072       41.994       15.499        0.136      333.246        2.435      864.814
01/23/2014  05:56:00       -6.204       21.156       -0.346       23.946       16.383       15.017      573.409      268.403      225.524        0.078        0.053       22.046       10.707        0.236      333.102        2.198      864.819
01/23/2014  05:57:00      -11.848       31.925        2.124       28.305       22.386       17.720      801.184      501.113      314.008        0.139        0.081       34.052       13.244        0.151      333.046        2.105      864.828
01/23/2014  05:58:00        7.485       80.502      -10.569       32.946       32.482       13.785     1085.410     1055.075      190.014        0.449        0.117       80.849       14.830        0.034      333.304        2.531      864.845
01/23/2014  05:59:00       -3.065       53.716       -8.657       30.349       36.936       15.742      921.044     1364.261      247.802        0.275        0.127       53.803       15.001        0.078      333.032        2.083      864.858
01/23/2014  06:00:00      -30.085       -6.595       -6.100       38.772       33.036       14.547     1503.303     1091.380      211.624        0.190        0.140       30.799       15.670        0.259      332.509        1.218      864.879
01/23/2014  06:01:00      -92.702      -31.401      -12.974       16.713       22.171       11.802      279.321      491.573      139.294        0.533        0.046       97.876       10.086        0.011      331.654       -0.190      864.888
01/23/2014  06:02:00      -91.254      -23.397      -20.706       26.410       20.202       17.916      697.511      408.133      320.975        0.536        0.071       94.205       11.495        0.015      331.574       -0.322      864.901
01/23/2014  06:03:00     -115.855      -32.545      -15.774       24.745       33.202       17.106      612.314     1102.359      292.611        0.837        0.100      120.339        5.295        0.002      331.597       -0.285      864.915
01/23/2014  06:04:00     -120.166        2.395      -17.666       27.446       27.729       17.948      753.306      768.891      322.121        0.830        0.092      120.190        8.800        0.005      331.631       -0.230      864.927
01/23/2014  06:05:00     -108.336       18.749      -22.780       30.688       31.894       18.022      941.777     1017.222      324.776        0.744        0.114      109.946       11.015        0.010      331.650       -0.197      864.920
01/23/2014  06:06:00      -70.223        4.177      -22.514       22.453       24.661       16.009      504.136      608.158      256.294        0.341        0.068       70.347       13.401        0.036      331.765       -0.009      864.906
01/23/2014  06:07:00      -72.782      -12.734      -16.482       19.115       14.625       11.412      365.402      213.882      130.224        0.322        0.035       73.888        7.132        0.009      331.601       -0.279      864.900
01/23/2014  06:08:00      -77.754      -22.973      -19.949       21.425       14.416       12.307      459.024      207.807      151.458        0.389        0.041       81.077        7.696        0.009      331.549       -0.365      864.906
01/23/2014  06:09:00     -100.681      -32.947      -12.996       15.912       18.519       12.752      253.176      342.958      162.602        0.607        0.038      105.934        9.952        0.009      331.578       -0.316      864.899
01/23/2014  06:10:00      -76.012      -15.101      -18.561       17.374       18.995       10.222      301.862      360.797      104.499        0.356        0.038       77.497        7.274        0.009      331.700       -0.115      864.905
01/23/2014  06:11:00      -88.924       -7.281      -21.775       12.250       10.239        9.232      150.055      104.834       85.232        0.439        0.017       89.222        6.442        0.005      331.800        0.048      864.917
01/23/2014  06:12:00      -74.113      -11.795      -16.213       13.450       14.952       11.371      180.889      223.548      129.310        0.321        0.027       75.046       10.367        0.019      331.707       -0.103      864.923
01/23/2014  06:13:00      -73.152       -7.336      -18.335       17.263       19.254       11.457      298.020      370.722      131.256        0.327        0.040       73.519        9.942        0.018      331.903        0.219      864.918
01/23/2014  06:14:00      -87.505      -11.283      -19.847       15.110       13.385       11.974      228.316      179.145      143.372        0.436        0.028       88.229        8.712        0.010      331.827        0.092      864.933
01/23/2014  06:15:00     -106.299       -2.219      -20.801       22.158       20.255       15.338      490.958      410.254      235.252        0.644        0.057      106.322       13.199        0.015      331.691       -0.131      864.928
01/23/2014  06:16:00      -88.070       -1.248      -16.971       27.726       16.510       13.362      768.721      272.577      178.541        0.463        0.061       88.079       10.607        0.015      331.676       -0.156      864.944
01/23/2014  06:17:00      -99.739      -11.430      -22.116       31.784       21.123       17.970     1010.231      446.192      322.925        0.617        0.089      100.392       15.962        0.025      331.629       -0.233      864.960
01/23/2014  06:18:00     -106.454       -8.523      -15.794       30.430       27.866       24.072      925.970      776.501      579.442        0.697        0.114      106.795       18.958        0.032      331.612       -0.261      864.985
01/23/2014  06:19:00      -90.211      -12.941      -14.383       22.944       22.661       16.858      526.449      513.530      284.183        0.492        0.066       91.135        6.833        0.006      331.580       -0.313      865.010
01/23/2014  06:20:00      -90.779        0.761      -21.930       19.604       18.496       14.652      384.314      342.091      214.675        0.483        0.047       90.783        8.450        0.009      331.604       -0.274      865.007
01/23/2014  06:21:00      -75.759       34.530      -15.336       31.980       46.387       22.493     1022.728     2151.749      505.933        0.542        0.184       83.257       15.533        0.035      332.149        0.625      864.999
01/23/2014  06:22:00      -63.469        2.041      -10.808       32.192       28.903       17.735     1036.328      835.357      314.532        0.317        0.109       63.502       15.961        0.063      331.924        0.254      865.004
01/23/2014  06:23:00      -50.907       13.989       -5.312       31.767       42.934       19.408     1009.111     1843.366      376.673        0.302        0.161       52.794       21.024        0.159      332.143        0.614      865.006
01/23/2014  06:24:00      -60.942       26.104      -13.231       36.508       63.624       19.214     1332.849     4048.024      369.191        0.516        0.288       66.297       25.876        0.152      332.092        0.531      865.000
01/23/2014  06:25:00      -38.352       59.512      -14.786       27.502       59.675       14.630      756.352     3561.065      214.050        0.488        0.227       70.800       22.181        0.098      332.796        1.692      864.997
01/23/2014  06:26:00      -12.568       27.332        7.013       46.481       47.534       20.816     2160.480     2259.459      433.298        0.290        0.243       30.083       17.943        0.356      332.386        1.016      865.000
01/23/2014  06:27:00      -11.143       38.100        2.480       28.422       43.877       16.146      807.785     1925.154      260.685        0.229        0.150       39.696       22.213        0.313      332.558        1.298      865.003
01/23/2014  06:28:00      -33.562       16.201       -3.747       30.233       30.777       19.519      914.059      947.222      380.983        0.182        0.112       37.268       16.323        0.192      332.302        0.877      865.024
01/23/2014  06:29:00      -38.235       -9.518       -0.456       29.888       25.130       20.495      893.300      631.508      420.041        0.175        0.097       39.401       13.255        0.113      332.055        0.471      865.031
01/23/2014  06:30:00      -32.622        6.442       -8.330       23.362       21.597       14.693      545.805      466.449      215.877        0.120        0.061       33.252       13.291        0.160      331.994        0.369      865.035
01/23/2014  06:31:00      -50.396       47.478       -8.956       44.078       32.919       23.937     1942.904     1083.655      573.001        0.424        0.180       69.239       16.740        0.058      332.268        0.820      865.041
01/23/2014  06:32:00      -13.614       74.380       -8.583       28.750       34.022       20.612      826.550     1157.476      424.842        0.410        0.120       75.616        9.997        0.017      332.574        1.325      865.050
01/23/2014  06:33:00       -9.854       93.488       -9.953       29.330       56.454       19.340      860.251     3187.005      374.053        0.668        0.221       94.006       22.328        0.056      332.619        1.399      865.065
01/23/2014  06:34:00       -7.586       37.964        1.338       25.306       34.521       15.439      640.411     1191.674      238.375        0.179        0.104       38.714       16.481        0.181      332.395        1.029      865.059
01/23/2014  06:35:00      -10.228       69.669      -10.143       32.948       31.490       19.435     1085.548      991.624      377.718        0.376        0.123       70.416       15.240        0.047      332.555        1.295      865.054
01/23/2014  06:36:00      -19.650      146.143      -22.178       38.156       51.995       22.364     1455.907     2703.474      500.166        1.345        0.233      147.458       26.779        0.033      332.859        1.796      865.058
01/23/2014  06:37:00       -1.153      119.903      -15.102       30.028       28.989       15.997      901.694      840.354      255.900        0.830        0.100      119.909       11.656        0.009      332.824        1.738      865.074
01/23/2014  06:38:00       14.320       74.623       -9.890       20.198       18.164       13.505      407.949      329.930      182.373        0.340        0.046       75.984        7.699        0.010      332.690        1.516      865.085
01/23/2014  06:39:00      -13.147       36.798       -4.914       19.349       41.640       17.300      374.368     1733.892      299.292        0.198        0.120       39.077       19.514        0.249      332.522        1.241      865.084
01/23/2014  06:40:00      -30.678        0.919        4.710       37.369       26.937       16.946     1396.427      725.599      287.174        0.169        0.120       30.692       13.377        0.190      332.422        1.073      865.091
01/23/2014  06:41:00      -25.157       -1.715      -10.371       30.986       32.311       18.028      960.162     1044.014      325.013        0.154        0.116       25.216       20.635        0.670      332.033        0.433      865.088
01/23/2014  06:42:00        7.447       29.216       -3.181       18.938       25.606       16.836      358.658      655.650      283.435        0.111        0.065       30.150       15.948        0.280      332.540        1.268      865.091
01/23/2014  06:43:00       11.333        1.033        8.669       16.861       21.592       11.256      284.307      466.210      126.696        0.054        0.044       11.380        7.314        0.413      332.522        1.239      865.101
01/23/2014  06:44:00       26.614        7.447       -2.005        9.336        8.556        9.324       87.165       73.202       86.929        0.051        0.012       27.636        4.321        0.024      332.606        1.378      865.105
01/23/2014  06:45:00      -34.056       -5.322       -8.363       37.200       10.003       10.556     1383.848      100.066      111.424        0.143        0.080       34.470       14.451        0.176      332.323        0.911      865.090
01/23/2014  06:46:00      -67.633      -16.115      -13.395       11.741        9.792       10.985      137.847       95.883      120.671        0.268        0.018       69.527        5.856        0.007      331.793        0.037      865.078
01/23/2014  06:47:00      -53.168      -31.925      -11.278        9.607        9.610        7.281       92.296       92.348       53.020        0.211        0.012       62.017        4.012        0.004      331.767       -0.006      865.096
01/23/2014  06:48:00      -54.207      -32.335       -9.404       11.595       13.946       10.624      134.446      194.500      112.879        0.226        0.022       63.119        7.959        0.016      331.877        0.177      865.125
01/23/2014  06:49:00      -36.503      -31.518       -3.533       11.650       11.506        8.469      135.713      132.385       71.727        0.134        0.017       48.227        6.088        0.016      331.978        0.342      865.159
01/23/2014  06:50:00      -44.028      -38.684       -5.256       20.031       15.476        9.128      401.241      239.519       83.327        0.209        0.036       58.608        9.284        0.025      331.907        0.225      865.178
01/23/2014  06:51:00      -65.265      -42.427       -9.792       14.407       14.758        8.493      207.563      217.806       72.136        0.333        0.025       77.843        9.500        0.015      332.080        0.512      865.193
01/23/2014  06:52:00      -38.446      -11.991       -2.494        8.765       10.198        9.106       76.818      103.992       82.914        0.095        0.013       40.272        4.222        0.011      331.671       -0.164      865.223
01/23/2014  06:53:00      -27.426       -8.876       -1.222       13.543        8.453        4.644      183.403       71.454       21.567        0.055        0.014       28.826        2.535        0.008      331.685       -0.139      865.250
01/23/2014  06:54:00      -47.454      -16.280       -5.618       27.467        7.983        8.326      754.445       63.721       69.322        0.172        0.044       50.169        5.215        0.011      331.755       -0.026      865.252
01/23/2014  06:55:00     -106.414       -3.358      -16.873       14.013       11.715        9.640      196.354      137.249       92.926        0.602        0.021      106.467        4.177        0.002      331.545       -0.371      865.245
01/23/2014  06:56:00     -126.393       -7.561      -15.943        8.938        7.565        9.169       79.888       57.234       84.076        0.825        0.011      126.619        5.685        0.002      331.767       -0.006      865.243
01/23/2014  06:57:00     -115.776      -16.837      -14.033       17.843       11.537       10.517      318.384      133.111      110.605        0.722        0.028      116.994        6.469        0.003      331.737       -0.054      865.247
01/23/2014  06:58:00      -90.148      -18.861       -6.475       21.695       14.056       13.609      470.665      197.576      185.192        0.469        0.043       92.100        7.830        0.007      331.716       -0.090      865.246
01/23/2014  06:59:00     -119.604      -13.859      -14.115       26.249       19.620       16.549      688.999      384.946      273.884        0.802        0.067      120.404       11.663        0.009      331.672       -0.160      865.245
01/23/2014  07:00:00     -117.329      -18.789      -13.525       25.052       15.891       14.082      627.588      252.530      198.292        0.769        0.054      118.824       13.950        0.014      331.583       -0.309      865.244
01/23/2014  07:01:00     -116.077       -3.173      -13.495       27.198       23.626       15.104      739.734      558.211      228.120        0.760        0.076      116.120       13.691        0.014      331.512       -0.426      865.250
01/23/2014  07:02:00     -112.380       -2.054      -13.523       23.385       20.681       15.434      546.864      427.723      238.216        0.701        0.061      112.399       10.849        0.009      331.481       -0.476      865.255
01/23/2014  07:03:00     -112.583      -28.749      -13.468       33.485       30.998       18.994     1121.271      960.905      360.754        0.806        0.122      116.195       18.645        0.026      331.489       -0.463      865.261
01/23/2014  07:04:00      -87.124      -22.519       -6.647       17.210       20.446       13.583      296.186      418.031      184.511        0.452        0.045       89.987        9.756        0.012      331.460       -0.511      865.279
01/23/2014  07:05:00      -96.327        6.000      -20.741       11.426       10.801       10.120      130.543      116.669      102.416        0.505        0.017       96.514        5.799        0.004      331.622       -0.244      865.300
01/23/2014  07:06:00      -92.340       -0.991      -15.531       14.465       17.894       10.665      209.229      320.209      113.749        0.471        0.032       92.345        9.993        0.012      331.553       -0.358      865.312
01/23/2014  07:07:00      -92.684      -12.733      -10.728       23.977       17.993       11.870      574.900      323.733      140.896        0.495        0.052       93.555        8.337        0.008      331.637       -0.219      865.311
01/23/2014  07:08:00     -137.413       24.931      -17.866       28.857       24.281       16.162      832.736      589.583      261.203        1.075        0.084      139.657       12.972        0.009      331.690       -0.133      865.306
01/23/2014  07:09:00     -105.023      -18.054      -12.225       27.333       25.602       18.763      747.098      655.452      352.040        0.663        0.088      106.563       11.822        0.012      331.430       -0.560      865.309
01/23/2014  07:10:00     -110.524       -2.057      -14.219       31.586       27.962       22.249      997.656      781.861      495.021        0.735        0.114      110.543       18.358        0.028      331.388       -0.630      865.316
01/23/2014  07:11:00      -55.710      -20.029      -13.727       30.489       22.955       15.878      929.568      526.954      252.123        0.270        0.085       59.202       15.907        0.072      331.338       -0.711      865.322
01/23/2014  07:12:00      -48.685      -20.586       -9.292       28.955       18.229       14.224      838.398      332.294      202.319        0.213        0.069       52.858       18.792        0.126      331.419       -0.579      865.327
01/23/2014  07:13:00      -60.660      -10.393       -9.512       23.432       14.500       11.836      549.046      210.251      140.098        0.239        0.045       61.544        9.841        0.026      331.494       -0.455      865.336
01/23/2014  07:14:00      -18.547      -36.950       -8.251       15.961       26.492       12.889      254.767      701.841      166.116        0.145        0.056       41.343        9.097        0.048      331.743       -0.046      865.362
01/23/2014  07:15:00      -15.124       11.941        3.977       17.141       14.650       11.201      293.818      214.635      125.458        0.051        0.032       19.270        9.325        0.234      331.712       -0.096      865.390
01/23/2014  07:16:00       -1.773       -5.373        1.247        6.260        6.424        5.208       39.190       41.274       27.128        0.007        0.005        5.658        4.173        0.544      331.723       -0.077      865.393
01/23/2014  07:17:00      -14.181        3.434        0.450       11.777        9.447        7.306      138.698       89.239       53.375        0.025        0.014       14.591        6.235        0.183      331.922        0.250      865.394
01/23/2014  07:18:00      -46.761       12.268       -7.855       22.376       15.701       10.345      500.675      246.511      107.025        0.163        0.043       48.343       13.465        0.078      331.992        0.365      865.387
01/23/2014  07:19:00      -17.546      -31.243       -6.028       18.397       13.266       13.107      338.445      175.989      171.785        0.100        0.034       35.833        8.791        0.060      331.656       -0.187      865.417
01/23/2014  07:20:00      -49.294      -25.033      -10.059       19.598        7.512        8.447      384.090       56.435       71.356        0.183        0.026       55.286        8.715        0.025      331.713       -0.094      865.426
01/23/2014  07:21:00      -53.850       15.884       -8.906       17.874       14.881       10.823      319.483      221.433      117.143        0.194        0.033       56.144       11.987        0.046      332.068        0.489      865.431
01/23/2014  07:22:00      -16.945       18.986       -6.292       13.481       10.740        6.292      181.725      115.345       39.589        0.051        0.017       25.448        3.836        0.023      332.291        0.859      865.437
01/23/2014  07:23:00       -5.585       35.080       -3.954       21.923       25.150       12.791      480.610      632.533      163.605        0.128        0.064       35.521       11.666        0.108      332.616        1.396      865.421
01/23/2014  07:24:00      -13.186       13.184       -2.605       14.766       19.764        8.316      218.037      390.604       69.148        0.052        0.034       18.646        7.630        0.167      332.191        0.694      865.414
01/23/2014  07:25:00      -57.032       -9.839      -11.522       29.958       13.033        8.650      897.498      169.855       74.830        0.231        0.057       57.874        6.643        0.013      331.805        0.057      865.405
01/23/2014  07:26:00      -37.280      -20.297       -4.286       23.898        9.457       11.061      571.098       89.427      122.335        0.130        0.039       42.447        3.083        0.005      331.492       -0.459      865.431
01/23/2014  07:27:00      -36.672      -28.614       -7.910       21.060       19.328       20.428      443.528      373.562      417.287        0.173        0.062       46.514       15.073        0.105      331.891        0.201      865.448
01/23/2014  07:28:00      -32.720      -16.541       -3.002       39.336       25.286       20.155     1547.306      639.361      406.228        0.197        0.130       36.663       22.459        0.375      332.173        0.664      865.429
01/23/2014  07:29:00      -72.653      -30.987      -12.857       15.981       15.519       14.507      255.393      240.851      210.464        0.356        0.035       78.985       11.127        0.020      331.492       -0.459      865.411
01/23/2014  07:30:00      -77.685      -27.449      -10.916       14.467       13.852       10.139      209.289      191.869      102.807        0.371        0.025       82.392        3.539        0.002      331.466       -0.501      865.411
01/23/2014  07:31:00      -66.922      -29.213       -9.937       13.603       14.373       11.372      185.037      206.591      129.329        0.298        0.026       73.021        6.608        0.008      331.741       -0.048      865.413
01/23/2014  07:32:00      -68.789      -15.259      -16.781       10.574       13.015       11.400      111.802      169.389      129.965        0.283        0.021       70.461        7.727        0.012      331.527       -0.401      865.416
01/23/2014  07:33:00      -77.346      -21.244      -18.133        9.796       13.844        9.614       95.963      191.650       92.436        0.357        0.019       80.211        3.547        0.002      331.454       -0.521      865.416
01/23/2014  07:34:00     -117.575       -5.962      -18.087       21.754       21.971       18.699      473.254      482.725      349.670        0.775        0.065      117.726        6.286        0.003      331.442       -0.540      865.402
01/23/2014  07:35:00     -108.741        7.031      -17.150       33.264       25.176       21.125     1106.491      633.856      446.265        0.718        0.109      108.968       12.325        0.013      331.435       -0.553      865.410
01/23/2014  07:36:00      -80.378       -5.664      -15.792       20.636       16.623       15.058      425.862      276.315      226.736        0.384        0.046       80.578        7.241        0.008      331.442       -0.540      865.424
01/23/2014  07:37:00      -73.676      -25.017      -12.267       12.827       14.090        8.454      164.532      198.519       71.475        0.332        0.022       77.808        5.406        0.005      331.518       -0.416      865.434
01/23/2014  07:38:00      -49.836      -25.210       -7.595       20.721       12.621       14.407      429.349      159.292      207.563        0.199        0.040       55.850       14.812        0.070      331.468       -0.500      865.453
01/23/2014  07:39:00      -65.224      -18.914      -11.810       14.125       11.958        9.923      199.523      143.005       98.465        0.260        0.022       67.912        9.386        0.019      331.527       -0.401      865.447
01/23/2014  07:40:00      -20.160      -24.890       -6.283       17.205       15.686        9.229      296.007      246.048       85.169        0.085        0.031       32.030        4.336        0.018      331.800        0.048      865.458
01/23/2014  07:41:00      -45.137       -2.135      -16.477       32.132       22.520       20.923     1032.472      507.146      437.756        0.214        0.099       45.188       20.646        0.209      332.018        0.407      865.465
01/23/2014  07:42:00      -40.758      -28.948       -4.779       14.780       11.578       10.412      218.437      134.042      108.415        0.149        0.023       49.992        7.966        0.025      331.644       -0.207      865.483
01/23/2014  07:43:00        6.166        2.285       -9.904       26.436       21.287       12.887      698.841      453.117      166.068        0.073        0.066        6.576        9.472        2.075      332.180        0.676      865.505
01/23/2014  07:44:00       34.443       27.635       -3.314       24.208       22.399       15.978      586.016      501.706      255.288        0.165        0.067       44.159       10.496        0.057      332.470        1.153      865.507
01/23/2014  07:45:00      -14.067      112.676      -14.579       19.183       32.997       16.681      367.986     1088.819      278.241        0.742        0.087      113.551       11.199        0.010      332.882        1.834      865.486
01/23/2014  07:46:00       13.996      112.089      -12.898       23.872       37.681       15.174      569.863     1419.867      230.249        0.757        0.111      112.960       15.388        0.019      332.854        1.787      865.487
01/23/2014  07:47:00       22.546      135.252      -12.448       34.403       41.867       25.645     1183.542     1752.836      657.659        1.127        0.180      137.119       22.505        0.027      332.868        1.811      865.489
01/23/2014  07:48:00       27.828       40.607        5.578       33.725       28.875       22.704     1137.392      833.776      515.485        0.247        0.124       49.227       17.732        0.130      332.770        1.648      865.504
01/23/2014  07:49:00       37.510       59.550       -8.499       25.987       23.475       19.444      675.345      551.081      378.066        0.331        0.080       70.379       14.188        0.041      332.706        1.544      865.521
01/23/2014  07:50:00       25.888       96.979      -11.938       22.056       25.412       16.298      486.465      645.780      265.636        0.581        0.070      100.375       14.562        0.021      332.757        1.628      865.522
01/23/2014  07:51:00       27.302      101.881       -4.944       25.544       53.431       31.750      652.505     2854.832     1008.081        0.783        0.226      105.475       35.269        0.112      332.839        1.762      865.504
01/23/2014  07:52:00       37.554       73.303       -5.795       43.333       35.974       33.178     1877.774     1294.129     1100.805        0.554        0.214       82.363       25.680        0.097      332.850        1.781      865.505
01/23/2014  07:53:00       32.798       53.586       -0.474       31.773       44.972       33.737     1009.540     2022.511     1138.160        0.406        0.209       62.827       31.031        0.244      332.875        1.824      865.508
01/23/2014  07:54:00       72.657       60.626       10.122       54.144       33.115       32.305     2931.622     1096.591     1043.624        0.706        0.254       94.628       24.558        0.067      332.954        1.952      865.524
01/23/2014  07:55:00      150.565       96.932       29.108       38.173       27.112       27.897     1457.183      735.061      778.225        1.794        0.149      179.069       16.610        0.009      332.958        1.960      865.532
01/23/2014  07:56:00      138.474       96.592       25.251       48.929       32.601       31.813     2394.052     1062.831     1012.053        1.680        0.223      168.834       14.341        0.007      332.945        1.937      865.538
01/23/2014  07:57:00       99.907       65.381       18.545       53.779       39.979       45.633     2892.138     1598.348     2082.368        1.059        0.329      119.398       23.076        0.037      333.038        2.091      865.535
01/23/2014  07:58:00      157.767      109.557       30.713       53.090       41.472       42.313     2818.595     1719.945     1790.398        2.208        0.316      192.076       30.050        0.024      333.151        2.275      865.534
01/23/2014  07:59:00      145.320       98.662       24.689       58.179       43.314       38.015     3384.804     1876.119     1445.127        1.908        0.335      175.647       20.258        0.013      333.087        2.172      865.556
01/23/2014  08:00:00      169.513      115.539       25.530       80.692       60.526       52.520     6511.167     3663.362     2758.317        2.783        0.647      205.144       49.000        0.057      333.062        2.130      865.557
01/23/2014  08:01:00      194.994      139.820       24.514       52.715       35.247       42.568     2778.904     1242.339     1811.993        3.200        0.292      239.942       25.118        0.011      333.106        2.199      865.567
01/23/2014  08:02:00      168.891       98.742       31.032       64.603       43.421       39.534     4173.538     1885.341     1562.963        2.343        0.381      195.638       36.946        0.036      333.095        2.182      865.581
01/23/2014  08:03:00      156.562       97.020       15.600       41.631       32.123       31.050     1733.119     1031.899      964.099        1.895        0.186      184.186       18.230        0.010      333.145        2.267      865.592
01/23/2014  08:04:00      166.278       93.968       22.299       53.062       42.932       35.974     2815.561     1843.144     1294.126        2.146        0.298      190.993       13.656        0.005      333.167        2.303      865.598
01/23/2014  08:05:00      147.243       72.191       32.489       54.589       43.114       40.153     2979.986     1858.783     1612.289        1.720        0.323      163.988       32.525        0.039      333.162        2.296      865.609
01/23/2014  08:06:00      221.589      130.717       23.545       52.351       42.463       38.197     2740.627     1803.114     1458.983        3.637        0.300      257.272       28.017        0.012      333.118        2.218      865.623
01/23/2014  08:07:00      169.175      114.474       27.039       57.685       48.547       42.741     3327.572     2356.828     1826.770        2.498        0.376      204.266       32.498        0.025      333.199        2.355      865.622
01/23/2014  08:08:00      202.919      120.462       20.702       37.685       33.026       37.011     1420.146     1090.726     1369.816        3.000        0.194      235.981       18.861        0.006      333.132        2.243      865.640
01/23/2014  08:09:00      187.544      119.987       17.058       66.957       55.218       34.347     4483.208     3048.980     1179.697        2.928        0.436      222.642       29.085        0.017      333.132        2.245      865.653
01/23/2014  08:10:00      169.372       98.223       23.058       70.785       52.513       39.927     5010.497     2757.634     1594.198        2.411        0.468      195.792       29.517        0.023      333.211        2.376      865.646
01/23/2014  08:11:00      175.990      129.162       37.440       53.464       40.240       33.912     2858.414     1619.274     1150.033        2.734        0.281      218.301       14.447        0.004      333.220        2.389      865.647
01/23/2014  08:12:00      171.639       96.967       28.401       58.081       51.085       36.467     3373.398     2609.673     1329.808        2.349        0.366      197.135       26.910        0.019      333.257        2.450      865.646
01/23/2014  08:13:00      165.842      103.581       23.901       65.522       57.475       49.729     4293.196     3303.326     2473.016        2.443        0.503      195.531       36.426        0.035      333.295        2.514      865.648
01/23/2014  08:14:00      137.174       81.180       12.584       63.690       54.815       39.024     4056.445     3004.654     1522.888        1.707        0.429      159.396       17.308        0.012      333.316        2.550      865.646
01/23/2014  08:15:00      165.633       98.040        7.775       33.860       32.127       28.379     1146.494     1032.141      805.345        2.004        0.149      192.474       14.358        0.006      333.353        2.612      865.651
01/23/2014  08:16:00      151.256       91.778        9.537       49.312       43.863       36.678     2431.636     1923.938     1345.277        1.855        0.285      176.922       21.162        0.014      333.381        2.657      865.658
01/23/2014  08:17:00      186.555      106.276       15.612       65.827       43.481       43.232     4333.163     1890.570     1868.968        2.722        0.405      214.703       17.785        0.007      333.411        2.704      865.676
01/23/2014  08:18:00      141.229       97.876       26.019       51.821       44.014       40.254     2685.383     1937.249     1620.386        1.822        0.312      171.830       26.204        0.023      333.468        2.800      865.699
01/23/2014  08:19:00      144.672      105.864       15.459       66.276       45.643       40.822     4392.501     2083.315     1666.459        2.026        0.407      179.268       27.879        0.024      333.542        2.925      865.702
01/23/2014  08:20:00      111.014      100.292        7.965       75.160       56.873       49.041     5649.038     3234.516     2405.055        1.687        0.564      149.608       35.121        0.055      333.602        3.023      865.695
01/23/2014  08:21:00      106.909      100.006        7.793       65.579       57.342       46.699     4300.558     3288.134     2180.814        1.563        0.488      146.393       32.360        0.049      333.646        3.096      865.702
01/23/2014  08:22:00      131.446       79.945        4.427       71.034       53.112       42.222     5045.764     2820.845     1782.683        1.667        0.482      153.848       17.903        0.014      333.682        3.156      865.712
01/23/2014  08:23:00      140.609       73.325       16.868       73.922       50.118       43.609     5464.389     2511.774     1901.728        1.765        0.494      158.580       35.066        0.049      333.722        3.221      865.721
01/23/2014  08:24:00      190.692      119.720       11.358       65.088       57.125       48.141     4236.447     3263.235     2317.566        3.032        0.491      225.158       29.001        0.017      333.616        3.045      865.721
01/23/2014  08:25:00      154.123      114.574       32.494       69.531       56.410       59.249     4834.592     3182.103     3510.433        2.473        0.576      192.045       41.119        0.046      333.664        3.123      865.716
01/23/2014  08:26:00      217.638      135.910       32.178       79.783       64.386       64.200     6365.302     4145.607     4121.654        4.075        0.732      256.589       31.938        0.015      333.668        3.130      865.704
01/23/2014  08:27:00      152.064      100.482       20.508      102.038       76.465       38.472    10411.831     5846.867     1480.129        2.569        0.887      182.264       22.960        0.016      333.697        3.177      865.708
01/23/2014  08:28:00      170.604      101.727       11.992       64.705       48.828       43.747     4186.796     2384.128     1913.811        2.404        0.424      198.631       17.058        0.007      333.765        3.291      865.723
01/23/2014  08:29:00      128.764       65.143       10.465       65.360       74.689       41.246     4271.944     5578.452     1701.252        1.624        0.578      144.304       18.159        0.016      333.748        3.264      865.742
01/23/2014  08:30:00      129.502       55.133       11.008       64.493       46.538       38.263     4159.303     2165.829     1464.081        1.386        0.389      140.749       20.485        0.021      333.784        3.326      865.740
01/23/2014  08:31:00       86.006       72.028       57.041       69.732       61.883       56.312     4862.506     3829.513     3171.001        1.385        0.593      112.183       47.813        0.182      333.850        3.435      865.738
01/23/2014  08:32:00       90.617       42.981       25.776       66.498       48.099       41.046     4421.981     2313.559     1684.788        0.957        0.421      100.294       26.606        0.070      333.923        3.556      865.727
01/23/2014  08:33:00      157.914       67.954       20.965       87.504       68.801       49.697     7657.016     4733.609     2469.771        2.242        0.743      171.914       38.114        0.049      333.730        3.233      865.712
01/23/2014  08:34:00      147.024       78.804       76.574       82.007       62.106       52.865     6725.151     3857.159     2794.694        2.353        0.669      166.811       43.951        0.069      333.819        3.382      865.709
01/23/2014  08:35:00      145.247       89.269       18.692       94.149       69.593       49.865     8863.979     4843.211     2486.544        2.280        0.810      170.487       33.950        0.040      333.816        3.378      865.732
01/23/2014  08:36:00      148.090       99.140        7.935       64.198       52.339       44.648     4121.400     2739.358     1993.413        2.034        0.443      178.212       34.166        0.037      333.813        3.372      865.729
01/23/2014  08:37:00      197.981      132.703       18.968       66.576       51.762       54.631     4432.373     2679.346     2984.507        3.363        0.505      238.341       27.546        0.013      333.703        3.188      865.727
01/23/2014  08:38:00      141.642      121.261       53.217       53.747       46.504       46.208     2888.779     2162.602     2135.178        2.239        0.359      186.459       41.670        0.050      333.785        3.325      865.718
01/23/2014  08:39:00      137.195       78.129       10.924       64.765       46.885       41.075     4194.447     2198.194     1687.123        1.656        0.404      157.882       18.533        0.014      333.817        3.380      865.706
01/23/2014  08:40:00       91.299       51.715       12.634       70.331       53.674       42.169     4946.387     2880.889     1778.266        1.039        0.480      104.928       29.812        0.081      333.948        3.599      865.681
01/23/2014  08:41:00      138.213       72.364       20.310       63.136       45.205       37.187     3986.131     2043.453     1382.901        1.608        0.371      156.011        8.492        0.003      333.748        3.265      865.686
01/23/2014  08:42:00      100.013       82.499        6.367       64.133       41.152       37.547     4113.025     1693.522     1409.791        1.203        0.361      129.648       18.332        0.020      333.818        3.382      865.678
01/23/2014  08:43:00      135.191       89.476       22.169       53.362       49.082       42.642     2847.454     2409.004     1818.320        1.692        0.354      162.119       25.622        0.025      333.880        3.485      865.680
01/23/2014  08:44:00       35.743       71.275       83.778       53.729       43.385       38.116     2886.847     1882.251     1452.797        0.980        0.311       79.735       26.091        0.107      334.184        3.989      865.693
01/23/2014  08:45:00      139.420       77.722       41.216       64.240       41.758       45.958     4126.790     1743.748     2112.097        1.758        0.399      159.620       26.319        0.027      333.897        3.512      865.703
01/23/2014  08:46:00       67.155       47.738       45.368       43.010       39.246       29.991     1849.900     1540.256      899.472        0.657        0.214       82.394       24.254        0.087      333.967        3.630      865.716
01/23/2014  08:47:00       99.785       34.232       46.133       76.373       71.684       42.754     5832.881     5138.666     1827.943        1.303        0.640      105.494       31.651        0.090      334.037        3.744      865.713
01/23/2014  08:48:00      168.367       93.627       52.846       62.000       57.534       55.897     3843.963     3310.164     3124.491        2.509        0.514      192.649       38.015        0.039      333.565        2.958      865.735
01/23/2014  08:49:00       72.399       74.936       89.261       72.894       55.246       57.680     5313.491     3052.157     3326.942        1.526        0.585      104.197       48.422        0.216      333.744        3.259      865.756
01/23/2014  08:50:00       57.583       79.738       87.924       65.543       80.025       59.245     4295.886     6403.989     3509.975        1.580        0.710       98.357       52.884        0.289      333.776        3.311      865.762
01/23/2014  08:51:00       69.197       73.453       74.037       65.548       43.379       42.088     4296.487     1881.716     1771.379        1.181        0.397      100.914       38.317        0.144      333.772        3.306      865.773
01/23/2014  08:52:00       32.414      -80.276        7.714       60.600      105.872       61.099     3672.374    11208.844     3733.055        1.308        0.931       86.573       74.408        0.739      333.871        3.470      865.784
01/23/2014  08:53:00        0.941     -127.140      -19.579       48.746       49.089       39.307     2376.134     2409.765     1545.014        1.144        0.317      127.144       20.573        0.026      333.713        3.207      865.775
01/23/2014  08:54:00       30.807        0.747       29.898       33.047       60.924       45.906     1092.093     3711.781     2107.324        0.438        0.346       30.816       48.738        2.501      333.877        3.480      865.797
01/23/2014  08:55:00       25.844       16.756       54.568       35.654       35.145       30.091     1271.195     1235.162      905.446        0.367        0.171       30.801       24.638        0.640      333.996        3.676      865.803
01/23/2014  08:56:00       15.301       12.105       62.221       42.304       53.815       39.542     1789.627     2896.047     1563.568        0.525        0.312       19.510       34.776        3.177      334.044        3.757      865.820
01/23/2014  08:57:00       56.075      -20.267       43.273       60.755       90.194       62.837     3691.134     8134.974     3948.487        1.060        0.789       59.625       68.977        1.338      333.750        3.269      865.837
01/23/2014  08:58:00       46.192       44.700       58.791       48.521       47.753       37.754     2354.283     2280.360     1425.394        0.682        0.303       64.280       30.684        0.228      333.676        3.147      865.839
01/23/2014  08:59:00       12.239      -29.126       37.054       19.521       37.463       29.992      381.081     1403.456      899.492        0.253        0.134       31.593       21.869        0.479      333.837        3.413      865.832
01/23/2014  09:00:00       93.275       43.904       26.787       58.015       43.904       36.789     3365.698     1927.597     1353.460        0.899        0.332      103.091       27.852        0.073      333.698        3.183      865.811
01/23/2014  09:01:00       81.810        7.370       28.616       61.538       66.846       35.185     3786.956     4468.385     1237.965        0.853        0.475       82.141       36.430        0.197      333.719        3.217      865.826
01/23/2014  09:02:00       10.552       21.183       51.187       34.462       50.421       32.952     1187.626     2542.232     1085.802        0.400        0.241       23.666       35.481        2.248      333.999        3.682      865.832
01/23/2014  09:03:00       96.969     -133.988      -10.493       66.212       79.725       43.370     4384.056     6356.153     1880.935        2.004        0.631      165.396       48.279        0.085      333.630        3.070      865.825
01/23/2014  09:04:00       57.094      -53.652       14.614       60.699       60.057       51.154     3684.357     3606.808     2616.711        0.813        0.495       78.348       42.024        0.288      333.939        3.583      865.830
01/23/2014  09:05:00       29.504        6.189       33.357       33.918       56.069       31.508     1150.400     3143.780      992.727        0.365        0.264       30.146       30.256        1.007      334.145        3.925      865.844
01/23/2014  09:06:00       43.895      -41.586       15.654       38.007       50.676       31.198     1444.556     2568.032      973.337        0.444        0.249       60.466       28.492        0.222      334.099        3.849      865.845
01/23/2014  09:07:00       22.641       -8.099       42.975       37.777       82.208       40.138     1427.066     6758.137     1611.079        0.611        0.490       24.046       47.834        3.957      334.063        3.787      865.848
01/23/2014  09:08:00       53.964       15.583       54.534       46.896       31.923       37.137     2199.222     1019.094     1379.131        0.536        0.230       56.169       31.316        0.311      334.150        3.934      865.846
01/23/2014  09:09:00       36.168       19.679       26.540       28.941       36.046       26.592      837.594     1299.280      707.121        0.262        0.142       41.175        7.933        0.037      333.939        3.583      865.854
01/23/2014  09:10:00       59.321       14.356       26.517       39.059       37.761       30.898     1525.636     1425.927      954.716        0.417        0.195       61.033       19.969        0.107      333.896        3.513      865.859
01/23/2014  09:11:00      117.645      -83.328       33.077       72.484       77.398       40.369     5253.972     5990.409     1629.671        1.737        0.644      144.166       43.471        0.091      333.928        3.562      865.828
01/23/2014  09:12:00       60.078       51.904       29.449       47.153       59.191       43.240     2223.366     3503.604     1869.729        0.738        0.380       79.394       25.566        0.104      334.020        3.717      865.839
01/23/2014  09:13:00       36.191       56.177        8.705       38.885       21.528       29.081     1512.062      463.461      845.688        0.368        0.141       66.826       16.005        0.057      334.040        3.751      865.839
01/23/2014  09:14:00       18.784       58.417       75.093       40.511       61.524       35.379     1641.168     3785.182     1251.698        0.804        0.334       61.362       39.003        0.404      334.242        4.085      865.851
01/23/2014  09:15:00       46.901      -82.513        7.012       49.894       77.452       46.733     2489.435     5998.811     2183.994        0.986        0.534       94.911       49.121        0.268      334.277        4.142      865.866
01/23/2014  09:16:00       68.389      -49.474       -4.562       70.835       80.631       60.144     5017.534     6501.379     3617.314        1.114        0.757       84.408       60.523        0.514      334.230        4.064      865.880
01/23/2014  09:17:00      145.846     -141.845      -48.407       65.179       70.015       47.035     4248.277     4902.150     2212.284        2.755        0.568      203.448       44.298        0.047      333.899        3.511      865.878
01/23/2014  09:18:00       92.250      -59.795       -8.428       67.008       70.957       44.068     4490.028     5034.926     1941.981        1.181        0.573      109.934       42.366        0.149      334.002        3.687      865.885
01/23/2014  09:19:00      102.941      -67.463       15.895       74.574       96.062       46.377     5561.266     9227.922     2150.855        1.617        0.847      123.077       48.168        0.153      334.063        3.786      865.895
01/23/2014  09:20:00       47.810        3.364       38.548       45.706       61.647       41.650     2089.034     3800.362     1734.743        0.570        0.381       47.928       42.213        0.776      334.143        3.921      865.896
01/23/2014  09:21:00      -14.000        6.026       39.059       37.020       35.002       28.829     1370.514     1225.111      831.114        0.259        0.171       15.242       21.674        2.022      334.339        4.248      865.894
01/23/2014  09:22:00       -9.376      -13.277       60.314       31.590       50.207       31.416      997.939     2520.716      986.978        0.420        0.225       16.254       24.989        2.364      334.436        4.407      865.875
01/23/2014  09:23:00       -9.237       67.331      109.580       29.737       61.185       32.499      884.287     3743.596     1056.184        1.115        0.284       67.962       35.329        0.270      334.426        4.392      865.874
01/23/2014  09:24:00       32.077       43.587       59.299       45.764       61.760       34.546     2094.339     3814.285     1193.399        0.677        0.355       54.118       35.599        0.433      334.256        4.108      865.875
01/23/2014  09:25:00       27.383      -22.799       37.913       46.288       40.112       35.985     2142.549     1608.990     1294.924        0.388        0.252       35.632       29.759        0.698      334.517        4.543      865.888
01/23/2014  09:26:00       52.576      -75.574        0.831       52.302       58.012       39.335     2735.525     3365.402     1547.263        0.806        0.382       92.063       41.530        0.203      334.401        4.349      865.918
01/23/2014  09:27:00       66.548       46.932       63.955       49.959       67.188       34.946     2495.864     4514.168     1221.205        0.947        0.412       81.433       34.504        0.180      334.430        4.398      865.940
01/23/2014  09:28:00       20.738       10.669       32.049       44.951       28.498       25.708     2020.599      812.110      660.926        0.253        0.175       23.321       16.576        0.505      334.539        4.578      865.954
01/23/2014  09:29:00       24.606        7.066       48.457       35.437       49.689       32.546     1255.772     2468.974     1059.274        0.389        0.239       25.600       28.491        1.239      334.759        4.945      865.967
01/23/2014  09:30:00       10.436       58.298       70.465       40.129       36.285       34.079     1610.309     1316.566     1161.407        0.628        0.204       59.224       23.390        0.156      334.663        4.783      865.979
01/23/2014  09:31:00       35.519       47.646       59.843       35.212       40.880       32.307     1239.860     1671.156     1043.751        0.553        0.198       59.428       23.569        0.157      334.594        4.669      865.973
01/23/2014  09:32:00       67.696      -74.956       -0.729       45.776       81.892       42.968     2095.445     6706.308     1846.278        1.042        0.532      101.001       50.430        0.249      334.482        4.483      865.979
01/23/2014  09:33:00       79.395       21.375       62.428       99.493      120.056       71.319     9898.887    14413.412     5086.329        2.002        1.470       82.222       70.057        0.726      334.856        5.104      865.938
01/23/2014  09:34:00      171.610      128.283      104.901      128.328       90.754       91.031    16468.010     8236.324     8286.660        4.494        1.650      214.259       60.233        0.079      334.839        5.073      865.907
01/23/2014  09:35:00      123.029       56.654      102.204      105.408       88.155       70.958    11110.880     7771.330     5035.084        2.635        1.196      135.447       50.081        0.137      334.936        5.236      865.886
01/23/2014  09:36:00       50.533       84.099       76.265       71.606       76.016       63.548     5127.420     5778.438     4038.301        1.519        0.747       98.113       53.157        0.294      335.189        5.656      865.879
01/23/2014  09:37:00      127.112      105.661       92.178      129.190       85.370      104.247    16689.960     7288.089    10867.453        3.532        1.742      165.292       89.732        0.295      335.119        5.539      865.882
01/23/2014  09:38:00      170.794      137.970      119.690      153.606      105.430       88.369    23594.724    11115.457     7808.998        5.252        2.126      219.560       86.493        0.155      334.963        5.280      865.894
01/23/2014  09:39:00      161.515       87.000       89.326       94.771       76.430       64.455     8981.523     5841.539     4154.384        3.030        0.949      183.456       53.957        0.087      335.090        5.490      865.913
01/23/2014  09:40:00      217.801      111.350       89.547      164.784      118.874       80.208    27153.820    14130.966     6433.320        5.778        2.386      244.615       83.308        0.116      334.942        5.244      865.917
01/23/2014  09:41:00      112.496      129.679      133.543      138.985      108.516       92.116    19316.948    11775.701     8485.349        4.343        1.979      171.674       88.688        0.267      335.058        5.438      865.907
01/23/2014  09:42:00      183.230      122.060       71.755      130.964      118.312      111.023    17151.597    13997.757    12326.115        4.854        2.174      220.163       79.643        0.131      334.894        5.166      865.904
01/23/2014  09:43:00      110.335      105.671       61.285       97.279       74.053       63.045     9463.119     5483.859     3974.724        2.301        0.946      152.775       46.182        0.091      335.154        5.599      865.919
01/23/2014  09:44:00      108.653       80.743       86.099      107.295       76.159       58.783    11512.209     5800.138     3455.426        2.325        1.038      135.369       47.072        0.121      335.342        5.910      865.928
01/23/2014  09:45:00      190.123       51.734       72.712      122.213       91.399       86.376    14936.037     8353.729     7460.776        3.742        1.538      197.036       81.141        0.170      335.134        5.565      865.908
01/23/2014  09:46:00      128.340       58.865        3.996       74.314       80.849       52.334     5522.629     6536.611     2738.839        1.737        0.740      141.196       32.781        0.054      335.302        5.844      865.909
01/23/2014  09:47:00      219.678      139.478       96.747      120.322       96.234       98.036    14477.406     9260.926     9610.985        5.520        1.667      260.216       71.247        0.075      335.051        5.426      865.901
01/23/2014  09:48:00      119.057       64.795       82.599       93.367       73.637       57.676     8717.435     5422.359     3326.500        2.133        0.873      135.547       50.547        0.139      335.243        5.746      865.910
01/23/2014  09:49:00      183.871       31.641       76.768      159.080      132.346       81.755    25306.599    17515.488     6683.958        4.509        2.475      186.573       86.925        0.217      335.271        5.793      865.924
01/23/2014  09:50:00      125.060       54.450      143.172      123.840      141.249       90.649    15336.318    19951.354     8217.284        4.130        2.175      136.399       91.842        0.453      335.097        5.503      865.894
01/23/2014  09:51:00       93.590       77.753       74.804       94.137       94.382       73.166     8861.710     8907.953     5353.245        2.176        1.156      121.674       64.609        0.282      335.152        5.594      865.896
01/23/2014  09:52:00      102.107       39.012       64.444       96.613       65.267       44.155     9334.037     4259.829     1949.667        1.582        0.777      109.306       42.617        0.152      335.140        5.576      865.891
01/23/2014  09:53:00      168.675       92.483       65.999       92.088       81.988       73.059     8480.117     6722.072     5337.665        3.095        1.027      192.366       56.295        0.086      335.230        5.723      865.873
01/23/2014  09:54:00       87.504      108.041      115.762       87.502       75.887       85.781     7656.569     5758.868     7358.318        2.675        1.039      139.031       74.167        0.285      335.403        6.011      865.873
01/23/2014  09:55:00       86.017      128.742      139.355       99.201       90.006       67.193     9840.869     8101.048     4514.907        3.292        1.123      154.833       55.974        0.131      335.403        6.011      865.872
01/23/2014  09:56:00       85.753       83.298       82.009      113.021       54.929       54.295    12773.727     3017.243     2947.918        1.987        0.937      119.549       54.266        0.206      335.532        6.229      865.884
01/23/2014  09:57:00       33.151       81.420       91.305       63.972       65.489       57.397     4092.429     4288.798     3294.442        1.387        0.584       87.911       38.767        0.194      335.494        6.166      865.876
01/23/2014  09:58:00       31.958       85.745      101.178       90.999       87.252       75.409     8280.776     7612.959     5686.558        2.009        1.079       91.507       68.696        0.564      335.612        6.360      865.864
01/23/2014  09:59:00      127.361      154.637      135.492      130.983      132.099      109.835    17156.502    17450.067    12063.646        5.257        2.334      200.334      101.769        0.258      335.177        5.636      865.853
01/23/2014  10:00:00      198.821      177.739      144.743      132.938      136.140      107.395    17672.480    18533.993    11533.617        6.990        2.387      266.685       83.602        0.098      335.021        5.378      865.850
01/23/2014  10:01:00       78.610       95.059      159.134       96.655      123.147       81.842     9342.199    15165.165     6698.118        3.587        1.560      123.352       93.199        0.571      335.242        5.744      865.866
01/23/2014  10:02:00      171.962      119.261      126.473      166.063      118.485       88.789    27576.787    14038.740     7883.478        5.463        2.475      209.270       79.651        0.145      335.280        5.808      865.857
01/23/2014  10:03:00      231.915      200.370      193.448      146.454      135.269       93.157    21448.799    18297.732     8678.310        8.988        2.421      306.484       94.178        0.094      334.944        5.247      865.833
01/23/2014  10:04:00      204.445      130.734      105.668      109.793       84.817       73.303    12054.543     7193.962     5373.335        4.733        1.231      242.671       69.586        0.082      335.123        5.546      865.819
01/23/2014  10:05:00      192.322       60.012       69.872      166.023      115.786       94.894    27563.672    13406.360     9004.938        4.771        2.499      201.468       74.644        0.137      335.135        5.566      865.804
01/23/2014  10:06:00      225.111      131.358       72.036      106.093       96.576       76.533    11255.765     9326.965     5857.274        4.977        1.322      260.633       41.446        0.025      335.119        5.538      865.794
01/23/2014  10:07:00      151.886       67.697       57.128      124.549       91.682       63.515    15512.516     8405.613     4034.161        2.943        1.398      166.290       37.864        0.052      335.313        5.861      865.796
01/23/2014  10:08:00       72.819       67.686      101.171       86.104       86.481       64.674     7413.919     7479.002     4182.737        1.959        0.954       99.418       56.808        0.327      335.634        6.395      865.795
01/23/2014  10:09:00       95.919       73.126       77.612       93.525       78.889       58.989     8746.940     6223.438     3479.744        1.951        0.923      120.614       45.490        0.142      335.559        6.273      865.790
01/23/2014  10:10:00       76.830      121.130      140.626       99.211      108.751       85.234     9842.855    11826.691     7264.779        3.464        1.447      143.441       73.620        0.263      335.570        6.291      865.793
01/23/2014  10:11:00      171.981      222.181      217.641      137.342      135.415      104.211    18862.752    18337.182    10860.018        8.718        2.403      280.966       86.924        0.096      335.032        5.394      865.773
01/23/2014  10:12:00      229.641      165.522       64.349      116.116       87.083       89.202    13483.033     7583.478     7956.980        5.664        1.451      283.077       40.154        0.020      335.084        5.481      865.777
01/23/2014  10:13:00      198.263      112.575       31.033      102.383       80.715       62.887    10482.341     6514.913     3954.812        3.694        1.048      227.994       49.720        0.048      335.209        5.688      865.784
01/23/2014  10:14:00      201.423       72.129       26.376      123.642       87.912       60.308    15287.434     7728.507     3637.028        3.656        1.333      213.948       33.137        0.024      335.224        5.714      865.753
01/23/2014  10:15:00      246.037      122.311       80.980      124.330       97.097       79.290    15458.013     9427.879     6286.924        5.661        1.559      274.762       62.175        0.051      335.353        5.927      865.757
01/23/2014  10:16:00       95.895       94.775      116.959       98.557      124.432      103.370     9713.424    15483.404    10685.401        3.386        1.794      134.827       95.456        0.501      335.438        6.069      865.752
01/23/2014  10:17:00       83.720       37.981       96.028       99.991       99.155       88.037     9998.217     9831.798     7750.585        2.262        1.379       91.933       60.207        0.429      335.407        6.021      865.734
01/23/2014  10:18:00       78.471       88.411      100.946       71.968       98.317       90.448     5179.463     9666.220     8180.805        2.359        1.151      118.212       70.121        0.352      335.463        6.112      865.715
01/23/2014  10:19:00      196.528      164.723      156.861      128.395      129.216      113.902    16485.390    16696.663    12973.654        6.825        2.308      256.431       81.751        0.102      335.282        5.809      865.730
01/23/2014  10:20:00      139.228       72.475      128.650      140.107      171.003      110.005    19630.005    29242.133    12101.200        5.107        3.049      156.962      122.085        0.605      335.299        5.838      865.737
01/23/2014  10:21:00      108.997       98.209       99.278      105.200       83.659       72.663    11067.050     6998.876     5279.936        2.736        1.167      146.716       52.308        0.127      335.487        6.152      865.740
01/23/2014  10:22:00       74.787      101.917       81.891       68.231       62.220       42.669     4655.536     3871.282     1820.651        1.651        0.517      126.413       31.072        0.060      335.718        6.538      865.729
01/23/2014  10:23:00      166.758       77.423       65.098      107.539       78.238       76.518    11564.669     6121.176     5855.008        3.079        1.177      183.855       66.661        0.131      335.508        6.186      865.705
01/23/2014  10:24:00      200.671      150.170       63.739      107.344       87.488       73.149    11522.838     7654.229     5350.726        4.570        1.226      250.639       54.664        0.048      335.326        5.884      865.696
01/23/2014  10:25:00      158.554       94.694       18.426       90.367       79.581       57.992     8166.137     6333.071     3363.074        2.615        0.893      184.679       30.268        0.027      335.727        6.551      865.691
01/23/2014  10:26:00       10.558       10.511       48.523       74.669       99.590       61.407     5575.435     9918.094     3770.815        1.092        0.963       14.898       58.819       15.587      336.052        7.094      865.696
01/23/2014  10:27:00      150.465      111.145      126.555      113.129      136.665       88.518    12798.063    18677.444     7835.403        4.515        1.966      187.064       82.263        0.193      335.674        6.462      865.695
01/23/2014  10:28:00      147.047      114.188      103.834      130.612       94.135       80.494    17059.424     8861.417     6479.209        3.892        1.620      186.177       60.696        0.106      335.455        6.098      865.684
01/23/2014  10:29:00      163.933      143.929      135.271      122.694      107.641       90.482    15053.799    11586.639     8186.925        5.035        1.741      218.150       64.711        0.088      335.690        6.488      865.685
01/23/2014  10:30:00      187.788      184.542      185.674      142.633      120.524       94.469    20344.236    14526.045     8924.317        7.379        2.190      263.287       78.645        0.089      335.396        5.998      865.658
01/23/2014  10:31:00      223.134      159.355      125.769      117.485       96.791       92.381    13802.805     9368.525     8534.308        6.135        1.585      274.195       69.872        0.065      335.365        5.947      865.637
01/23/2014  10:32:00      176.750      145.077       95.115      102.841       82.730       87.012    10576.176     6844.196     7571.076        4.316        1.250      228.665       70.180        0.094      335.454        6.094      865.650
01/23/2014  10:33:00      170.321      125.896      130.166      113.827      102.199       76.728    12956.551    10444.558     5887.233        4.554        1.464      211.799       74.194        0.123      335.449        6.086      865.628
01/23/2014  10:34:00      109.023      165.924      155.306       92.878       88.521       80.432     8626.329     7835.941     6469.366        4.323        1.147      198.537       67.543        0.116      335.437        6.067      865.640
01/23/2014  10:35:00      109.891       45.864      103.454      110.465      143.697       89.208    12202.505    20648.833     7958.026        3.284        2.040      119.078       96.187        0.652      335.595        6.330      865.643
01/23/2014  10:36:00       62.589       58.380       86.381       66.940       62.269       49.170     4480.979     3877.386     2417.692        1.278        0.539       85.589       42.928        0.252      335.923        6.880      865.634
01/23/2014  10:37:00      124.912       85.997       77.714       75.082       63.874       60.681     5637.309     4079.836     3682.184        2.122        0.670      151.653       42.322        0.078      335.692        6.493      865.633
01/23/2014  10:38:00      175.819      108.336       47.477      129.353       81.140       65.420    16732.204     6583.762     4279.770        3.624        1.380      206.516       47.442        0.053      335.703        6.512      865.635
01/23/2014  10:39:00      337.308      183.718       55.353      143.247      113.427       76.559    20519.610    12865.576     5861.230        9.491        1.962      384.095       75.129        0.038      335.680        6.470      865.619
01/23/2014  10:40:00      267.650      183.898       38.763      128.254       95.047       80.037    16449.121     9034.000     6405.874        6.942        1.594      324.738       38.797        0.014      335.631        6.390      865.631
01/23/2014  10:41:00      336.701      228.277       59.139      119.229       93.747       92.460    14215.667     8788.450     8548.831       10.026        1.578      406.789       52.475        0.017      335.587        6.317      865.619
01/23/2014  10:42:00      348.442      229.130       38.302      156.124      114.915       89.453    24374.639    13205.356     8001.850       11.047        2.279      417.028       50.117        0.014      335.538        6.236      865.612
01/23/2014  10:43:00      223.298      147.536       41.958      113.841       75.273       71.628    12959.663     5666.099     5130.569        4.857        1.188      267.636       46.984        0.031      335.839        6.736      865.603
01/23/2014  10:44:00      153.729      102.493       35.246      121.915       64.516       72.915    14863.306     4162.359     5316.614        2.986        1.217      184.763       63.636        0.119      335.974        6.963      865.594
01/23/2014  10:45:00      213.874       94.510       47.719      132.516      114.799       82.465    17560.453    13178.863     6800.530        4.724        1.877      233.826       53.346        0.052      335.766        6.614      865.610
01/23/2014  10:46:00      215.079      135.229       72.339      141.966       82.848       76.796    20154.484     6863.853     5897.627        5.134        1.646      254.058       67.548        0.071      335.700        6.507      865.604
01/23/2014  10:47:00      173.941       88.056       77.444      107.144      105.107       71.699    11479.841    11047.541     5140.700        3.583        1.383      194.960       53.378        0.075      335.895        6.831      865.588
01/23/2014  10:48:00      144.331      104.906       87.091      119.830      105.601      100.207    14359.145    11151.479    10041.536        3.748        1.778      178.429       78.655        0.194      336.100        7.171      865.584
01/23/2014  10:49:00      294.615      204.755      120.218      150.072       95.996       89.404    22521.561     9215.163     7993.036        9.144        1.986      358.780       79.169        0.049      335.717        6.533      865.557
01/23/2014  10:50:00      206.009       63.799       53.847      139.898       86.515       69.085    19571.584     7484.760     4772.724        4.061        1.591      215.662       38.894        0.033      335.792        6.660      865.550
01/23/2014  10:51:00      154.734      132.086      148.395       97.134       78.931       73.429     9435.106     6230.037     5391.860        4.223        1.053      203.443       63.349        0.097      335.633        6.391      865.540
01/23/2014  10:52:00      247.051      152.152       68.742      151.218      130.484       85.658    22866.734    17026.117     7337.342        6.806        2.362      290.145       54.028        0.035      335.839        6.737      865.546
01/23/2014  10:53:00      313.674      222.829       35.328      141.492      100.483      102.366    20020.077    10096.890    10478.710        9.494        2.030      384.765       68.842        0.032      335.733        6.560      865.557
01/23/2014  10:54:00      364.300      255.592       60.480      141.777      109.092       88.260    20100.635    11901.074     7789.811       12.074        1.990      445.019       60.302        0.018      335.647        6.418      865.565
01/23/2014  10:55:00      242.817      170.675       51.150      137.112      113.478       89.608    18799.748    12877.295     8029.613        6.520        1.985      296.800       72.026        0.059      335.744        6.577      865.538
01/23/2014  10:56:00      199.722      133.551       46.239      142.277      113.856       87.760    20242.609    12963.199     7701.832        5.038        2.045      240.260       62.218        0.067      335.874        6.795      865.544
01/23/2014  10:57:00      136.898       87.481      107.031      129.326      104.225       82.727    16725.221    10862.811     6843.682        3.613        1.722      162.462       85.500        0.277      336.142        7.242      865.528
01/23/2014  10:58:00      219.096      140.919      130.553      122.629      123.355       94.975    15037.926    15216.348     9020.293        6.208        1.964      260.502       74.005        0.081      335.936        6.898      865.504
01/23/2014  10:59:00      205.145      151.475      134.351      146.965       94.448      108.477    21598.589     8920.350    11767.270        6.267        2.114      255.008       97.569        0.146      336.063        7.109      865.514
01/23/2014  11:00:00      249.413       90.701      132.440      167.579      142.007      115.520    28082.821    20166.068    13344.849        7.477        3.080      265.393      103.953        0.153      335.540        6.238      865.522
01/23/2014  11:01:00      235.131      202.528      175.389      156.882      148.540      121.255    24612.065    22064.051    14702.801        9.421        3.069      310.329      102.746        0.110      335.613        6.360      865.499
01/23/2014  11:02:00      116.855      226.665      223.685      128.358      123.184       80.682    16475.677    15174.196     6509.593        7.661        1.908      255.014       82.297        0.104      335.498        6.169      865.492
01/23/2014  11:03:00      115.502      127.483       59.136      116.197       75.697       81.638    13501.810     5730.089     6664.755        2.949        1.295      172.025       70.478        0.168      335.960        6.938      865.495
01/23/2014  11:04:00      262.838      137.194       35.211      138.558      102.016       73.791    19198.387    10407.221     5445.112        6.209        1.753      296.490       39.478        0.018      335.782        6.642      865.478
01/23/2014  11:05:00      247.195      146.233       54.330      158.048      109.627       81.667    24979.315    12018.149     6669.455        6.455        2.183      287.210       43.689        0.023      336.029        7.053      865.451
01/23/2014  11:06:00      377.000      249.733       93.030      170.403      145.804      127.187    29037.080    21258.928    16176.505       13.980        3.324      452.212       55.163        0.015      335.782        6.643      865.416
01/23/2014  11:07:00      314.991      189.823       35.483      178.306      133.927       80.819    31793.055    17936.415     6531.720        9.638        2.813      367.766       43.267        0.014      335.889        6.821      865.397
01/23/2014  11:08:00      180.554      135.842      113.767      127.299      119.535      115.869    16204.978    14288.652    13425.686        5.395        2.196      225.949       81.189        0.129      336.131        7.225      865.386
01/23/2014  11:09:00      210.362      195.481      139.184      155.319       90.168       95.652    24124.098     8130.201     9149.259        7.161        2.070      287.167      104.129        0.131      336.056        7.096      865.368
01/23/2014  11:10:00       81.305      139.158      130.472      114.635       74.806       62.787    13141.238     5595.918     3942.252        3.283        1.134      161.168       69.537        0.186      336.174        7.295      865.369
01/23/2014  11:11:00       92.478      160.795      152.090      125.101      103.103      101.701    15650.289    10630.175    10343.108        4.707        1.831      185.492       89.189        0.231      336.322        7.543      865.360
01/23/2014  11:12:00      238.201      150.839       56.863      151.890      103.055       92.231    23070.441    10620.341     8506.604        6.245        2.110      281.944       66.297        0.055      336.032        7.060      865.342
01/23/2014  11:13:00      129.863      137.974      114.313      100.237       71.707       76.005    10047.390     5141.942     5776.808        3.496        1.048      189.476       53.978        0.081      336.503        7.845      865.337
01/23/2014  11:14:00      352.240      211.542       76.443      174.030      125.198      120.705    30286.607    15674.632    14569.711       11.759        3.027      410.880       59.958        0.021      335.826        6.714      865.313
01/23/2014  11:15:00      265.577      140.194       81.154      195.829      134.946      102.548    38349.094    18210.311    10516.172        8.191        3.354      300.309       88.275        0.086      335.894        6.830      865.285
01/23/2014  11:16:00      257.483      190.713       38.572      190.637      142.930       90.049    36342.624    20429.068     8108.912        8.451        3.244      320.420       78.874        0.061      335.929        6.886      865.273
01/23/2014  11:17:00      225.968      182.114       47.340      146.978      117.594       77.963    21602.454    13828.295     6078.300        6.398        2.075      290.219       18.979        0.004      336.033        7.060      865.235
01/23/2014  11:18:00      241.558      122.325       25.223      116.222       97.653       63.376    13507.596     9536.028     4016.534        5.050        1.353      270.765       38.656        0.020      336.259        7.437      865.256
01/23/2014  11:19:00      231.831      112.815       28.554      159.658      108.128       75.984    25490.826    11691.767     5773.564        5.511        2.148      257.823       63.599        0.061      336.327        7.552      865.257
01/23/2014  11:20:00      328.105      176.000       61.334      240.380      117.123      102.315    57782.553    13717.743    10468.396       11.216        4.098      372.329       69.244        0.035      336.134        7.230      865.247
01/23/2014  11:21:00      128.421      115.879       86.364      175.252       95.897      105.563    30713.287     9196.189    11143.528        4.421        2.553      172.974       94.380        0.298      336.078        7.137      865.236
01/23/2014  11:22:00      194.679      134.311       63.031      234.848       99.208       66.948    55153.379     9842.203     4482.023        6.468        3.474      236.515       78.964        0.111      336.425        7.717      865.257
01/23/2014  11:23:00      236.447      199.105       73.493      172.246      121.878      112.160    29668.674    14854.246    12579.916        7.902        2.855      309.112       85.411        0.076      336.087        7.150      865.238
01/23/2014  11:24:00      183.414      130.548       85.198       99.814       93.092       84.930     9962.789     8666.171     7213.120        4.189        1.292      225.130       66.913        0.088      336.220        7.372      865.262
01/23/2014  11:25:00      252.783      140.727       85.113      182.706      131.561      117.107    33381.556    17308.190    13714.088        7.766        3.220      289.315       75.732        0.069      336.118        7.202      865.245
01/23/2014  11:26:00      325.946      145.424       60.802      170.216      119.099      100.327    28973.579    14184.645    10065.570        9.214        2.661      356.916       87.434        0.060      336.138        7.234      865.235
01/23/2014  11:27:00       90.205       92.720       92.781       92.125      100.222       88.499     8487.064    10044.350     7832.107        2.585        1.318      129.359       83.492        0.417      336.482        7.813      865.255
01/23/2014  11:28:00      211.620      141.360       63.207      154.337      104.031       80.468    23819.948    10822.367     6475.141        5.493        2.056      254.491       77.901        0.094      336.303        7.512      865.255
01/23/2014  11:29:00      211.206       84.934       79.205      162.754      143.471       89.134    26488.976    20583.888     7944.896        5.655        2.751      227.644       72.663        0.102      336.215        7.364      865.235
01/23/2014  11:30:00      295.397      168.780       97.424      150.894      126.770      102.246    22769.135    16070.510    10454.345        8.726        2.465      340.215       84.121        0.061      336.105        7.180      865.203
01/23/2014  11:31:00      191.756      107.475       99.244      137.779      115.292      104.208    18983.157    13292.261    10859.343        5.064        2.157      219.821       92.513        0.177      336.153        7.260      865.204
01/23/2014  11:32:00      216.449      178.290       98.229      141.779      106.108       97.700    20101.223    11258.942     9545.235        6.459        2.045      280.424       77.713        0.077      336.226        7.382      865.148
01/23/2014  11:33:00      215.700      210.994      205.256      141.020      167.012      104.291    19886.695    27892.912    10876.590        9.590        2.933      301.737      116.776        0.150      336.033        7.059      865.154
01/23/2014  11:34:00      294.501       73.644       95.074      167.377      137.688       94.310    28015.202    18958.006     8894.308        7.852        2.793      303.569       77.115        0.065      336.118        7.202      865.141
01/23/2014  11:35:00      171.271      167.642      177.947      159.699      138.270      100.582    25503.651    19118.473    10116.753        7.191        2.737      239.661       90.542        0.143      336.234        7.397      865.142
01/23/2014  11:36:00      149.203      152.507      190.173      165.904      154.962      138.499    27523.985    24013.169    19181.843        7.619        3.536      213.354      137.806        0.417      336.226        7.384      865.124
01/23/2014  11:37:00      185.411      159.994      143.227      118.991       95.441      107.231    14158.894     9108.935    11498.402        5.762        1.738      244.898       71.006        0.084      336.224        7.380      865.101
01/23/2014  11:38:00      245.973      213.326      169.148      170.246      130.445      127.105    28983.761    17015.951    16155.696        9.838        3.108      325.593      116.175        0.127      336.212        7.359      865.071
01/23/2014  11:39:00      218.905      167.607      165.734      175.345      158.458      112.007    30745.928    25108.998    12545.576        8.593        3.420      275.702       84.483        0.094      336.098        7.168      865.065
01/23/2014  11:40:00      284.964      140.419       67.218      133.505      121.064       90.525    17823.698    14656.505     8194.709        7.305        2.034      317.682       74.138        0.054      336.125        7.214      865.077
01/23/2014  11:41:00      182.176      142.695       90.487      138.066      136.987       83.223    19062.331    18765.334     6926.087        5.324        2.238      231.409       35.484        0.024      336.282        7.475      865.062
01/23/2014  11:42:00      256.570      138.537       79.756      173.390      118.561       87.942    30064.064    14056.810     7733.766        7.161        2.593      291.583       63.213        0.047      336.212        7.359      865.063
01/23/2014  11:43:00      354.051      168.101       92.719      147.699      137.868      105.467    21814.878    19007.695    11123.336       10.707        2.597      391.931       70.331        0.032      336.145        7.247      865.080
01/23/2014  11:44:00      187.616      124.506       94.921      151.614      113.268       90.369    22986.718    12829.548     8166.532        5.184        2.199      225.170       86.135        0.146      336.360        7.607      865.081
01/23/2014  11:45:00      121.529      101.522       87.060      101.834       70.480       76.511    10370.237     4967.370     5853.906        2.692        1.060      158.354       60.831        0.148      336.462        7.777      865.077
01/23/2014  11:46:00       89.202       50.309        4.183       87.860       66.668       54.592     7719.386     4444.643     2980.290        1.282        0.757      102.411       36.511        0.127      336.569        7.958      865.062
01/23/2014  11:47:00      111.081       77.037       85.237      113.833      119.625       91.538    12957.942    14310.163     8379.152        3.059        1.782      135.180       90.131        0.445      336.783        8.314      865.042
01/23/2014  11:48:00       84.564       73.452       91.727      118.680      108.864       76.129    14084.948    11851.433     5795.614        2.634        1.587      112.010       58.088        0.269      336.801        8.346      865.039
01/23/2014  11:49:00      143.551       91.071       93.111      134.059      104.321       90.317    17971.811    10882.970     8157.207        3.728        1.851      170.003       74.319        0.191      336.398        7.670      865.048
01/23/2014  11:50:00      158.964      174.559      177.288      114.263       91.566       94.055    13056.057     8384.280     8846.378        5.872        1.514      236.093       71.999        0.093      335.978        6.967      865.051
01/23/2014  11:51:00       62.469      180.785      159.908       97.628       80.959       69.696     9531.253     6554.323     4857.602        4.155        1.047      191.273       61.703        0.104      336.195        7.330      865.061
01/23/2014  11:52:00      198.341      142.358      130.711      180.179      122.698      125.300    32464.345    15054.683    15700.032        6.994        3.161      244.141      101.796        0.174      336.318        7.536      865.025
01/23/2014  11:53:00      223.831      166.555      166.609      156.191      135.830      102.378    24395.766    18449.721    10481.170        7.945        2.666      279.000       94.733        0.115      336.291        7.490      865.042
01/23/2014  11:54:00      154.536       96.764       81.674      131.786      122.113       95.892    17367.627    14911.589     9195.274        4.069        2.074      182.331       83.453        0.209      336.158        7.269      865.061
01/23/2014  11:55:00      126.847       77.140       46.196       87.952       68.549       66.287     7735.586     4698.974     4394.015        2.050        0.841      148.461       53.202        0.128      336.612        8.030      865.065
01/23/2014  11:56:00      226.954      147.637       81.627      179.805      122.747       81.248    32329.893    15066.917     6601.201        6.697        2.700      270.748       87.262        0.104      336.414        7.695      865.039
01/23/2014  11:57:00      270.937      211.125       33.335      154.664      134.305      111.412    23921.030    18037.820    12412.580        8.672        2.719      343.483       40.071        0.014      336.402        7.675      865.019
01/23/2014  11:58:00      230.758      183.012       86.536      136.844       98.486      100.627    18726.159     9699.573    10125.844        6.638        1.928      294.521       59.812        0.041      336.559        7.940      864.999
01/23/2014  11:59:00      357.128      198.745       82.569      144.610      136.010       95.208    20912.129    18498.685     9064.586       11.116        2.424      408.705       49.863        0.015      336.310        7.522      865.002
01/23/2014  12:00:00      349.582      216.166       81.031      179.918      121.624       89.458    32370.454    14792.509     8002.731       11.532        2.758      411.018       64.326        0.024      336.267        7.452      864.970
01/23/2014  12:01:00      240.113      167.311       84.886      152.263      109.512       97.117    23184.058    11992.867     9431.645        6.872        2.230      292.656       76.275        0.068      336.683        8.147      864.969
01/23/2014  12:02:00      241.947      121.188      121.444      182.927      142.592      116.413    33462.216    20332.373    13552.089        7.765        3.367      270.601      102.991        0.145      336.546        7.915      864.946
01/23/2014  12:03:00       38.738       76.393      129.618       85.792      100.851       55.787     7360.198    10170.938     3112.145        2.239        1.032       85.653       53.843        0.395      336.748        8.256      864.939
01/23/2014  12:04:00       11.246      114.248      133.388       72.353       92.818       65.988     5234.940     8615.248     4354.437        2.458        0.910      114.800       53.272        0.215      336.885        8.485      864.922
01/23/2014  12:05:00      257.176      124.760       49.129      138.127      133.384       81.146    19079.099    17791.209     6584.655        6.378        2.173      285.840       61.850        0.047      336.830        8.392      864.920
01/23/2014  12:06:00      167.998      145.674      134.386      138.998      117.106       85.914    19320.356    13713.701     7381.205        5.395        2.021      222.361       91.141        0.168      336.462        7.776      864.922
01/23/2014  12:07:00      206.959      121.822      119.124      178.749      116.001      120.134    31951.250    13456.287    14432.103        6.584        2.992      240.151       96.532        0.162      336.445        7.747      864.876
01/23/2014  12:08:00      240.641      266.594      201.382      133.846      134.574      139.923    17914.740    18110.148    19578.525       11.256        2.780      359.139      117.920        0.108      336.243        7.409      864.902
01/23/2014  12:09:00      211.995      209.070      188.614      128.764      117.730      101.218    16580.141    13860.305    10245.001        8.245        2.034      297.745       73.342        0.061      336.006        7.014      864.934
01/23/2014  12:10:00      202.500      203.738      157.464      129.411      128.624      125.246    16747.088    16544.035    15686.458        7.813        2.449      287.255      102.531        0.127      336.242        7.408      864.937
01/23/2014  12:11:00      197.343      181.058      148.188      205.344      119.307      106.253    42166.286    14234.140    11289.794        8.067        3.385      267.817      114.925        0.184      336.287        7.484      864.920
01/23/2014  12:12:00      217.121      169.501      175.764      199.373      145.754      129.479    39749.618    21244.241    16764.840        9.225        3.888      275.449      139.852        0.258      336.126        7.213      864.938
01/23/2014  12:13:00      183.136      141.393      162.932      123.780      107.857       93.898    15321.479    11633.076     8816.743        5.792        1.789      231.368       85.347        0.136      335.967        6.950      864.958
01/23/2014  12:14:00      120.433      146.714       97.606      104.892       73.884       73.399    11002.305     5458.811     5387.482        3.370        1.092      189.814       55.867        0.087      336.246        7.417      864.936
01/23/2014  12:15:00      163.808       81.715       67.424      117.582       87.941       82.871    13825.612     7733.660     6867.586        3.324        1.421      183.059       77.052        0.177      336.297        7.501      864.919
01/23/2014  12:16:00      311.610      161.339       62.820      186.724      114.760       89.273    34865.751    13169.857     7969.662        9.153        2.800      350.900       75.917        0.047      336.421        7.708      864.890
01/23/2014  12:17:00      213.896      129.060       80.152      111.555       83.577       87.229    12444.481     6985.032     7608.835        4.793        1.352      249.816       58.222        0.054      336.425        7.715      864.901
01/23/2014  12:18:00      262.454      151.595       88.238      166.662      113.090       86.049    27776.211    12789.360     7404.489        7.380        2.399      303.090       77.546        0.065      336.469        7.788      864.864
01/23/2014  12:19:00      171.315      145.575      163.313      151.381      131.504      121.289    22916.101    17293.314    14711.006        6.606        2.746      224.812      113.726        0.256      336.452        7.760      864.854
01/23/2014  12:20:00      137.104      214.743      222.965      152.867      114.002       74.325    23368.319    12996.516     5524.183        7.825        2.094      254.778       56.277        0.049      336.201        7.340      864.858
01/23/2014  12:21:00      214.177      133.182      126.546      151.027      138.072       92.678    22809.093    19063.767     8589.154        6.503        2.523      252.208       71.499        0.080      336.135        7.231      864.833
01/23/2014  12:22:00      100.742       62.068       60.317      103.839       81.018       70.344    10782.453     6563.987     4948.230        1.996        1.115      118.327       44.054        0.139      336.539        7.908      864.816
01/23/2014  12:23:00      224.006      127.722      139.795      171.514      141.547      133.349    29417.175    20035.419    17781.823        7.662        3.362      257.860      124.982        0.235      336.380        7.640      864.812
01/23/2014  12:24:00      215.859      162.938       93.165      138.032      118.587      123.266    19052.854    14062.849    15194.544        6.506        2.416      270.451       87.997        0.106      336.106        7.181      864.811
01/23/2014  12:25:00      213.954      131.969      114.511      175.420      124.801       90.779    30772.017    15575.339     8240.839        6.544        2.729      251.381       85.124        0.115      336.221        7.375      864.803
01/23/2014  12:26:00      279.844      151.220       78.375      156.505      129.000       91.520    24493.929    16640.947     8375.947        7.841        2.476      318.088       47.402        0.022      336.241        7.409      864.786
01/23/2014  12:27:00      284.251      141.362       83.547      159.924       93.386       86.075    25575.727     8721.020     7408.914        7.473        2.085      317.461       61.547        0.038      336.320        7.539      864.794
01/23/2014  12:28:00      302.204      149.156       80.358      201.839      140.841      118.533    40738.914    19836.266    14050.132        9.731        3.731      337.008      103.700        0.095      336.239        7.404      864.750
01/23/2014  12:29:00      271.596      114.495      143.437      168.650      125.181      103.651    28442.762    15670.176    10743.518        8.114        2.743      294.743       80.336        0.074      336.335        7.563      864.762
01/23/2014  12:30:00      172.616      192.396      189.905      145.122      134.616      131.018    21060.273    18121.517    17165.600        7.960        2.817      258.481      116.516        0.203      336.271        7.457      864.743
01/23/2014  12:31:00      198.395      178.204      168.865      147.017      119.302       91.563    21613.965    14232.890     8383.865        7.192        2.212      266.678       80.870        0.092      336.374        7.628      864.739
01/23/2014  12:32:00      300.269      161.355      116.636      150.441      126.008       84.986    22632.525    15878.015     7222.696        8.776        2.287      340.876       71.264        0.044      336.158        7.269      864.736
01/23/2014  12:33:00      228.256      101.163       31.343      136.279      110.044       93.254    18571.898    12109.771     8696.382        5.134        1.969      249.669       72.824        0.085      336.362        7.610      864.741
01/23/2014  12:34:00      354.837      221.328       90.564      165.049      136.788      105.702    27241.209    18711.030    11172.911       12.010        2.856      418.205       75.163        0.032      336.272        7.459      864.709
01/23/2014  12:35:00      221.430      150.940      109.627      127.185      101.597       70.204    16176.134    10321.929     4928.587        5.762        1.571      267.981       61.271        0.052      336.453        7.763      864.691
01/23/2014  12:36:00      170.947      205.245      157.850      147.598       95.642      102.156    21785.257     9147.380    10435.788        6.881        2.068      267.112       88.887        0.111      336.440        7.740      864.660
01/23/2014  12:37:00      298.097      175.541       36.009      138.943      113.031       91.249    19305.177    12775.950     8326.408        8.068        2.020      345.943       29.524        0.007      336.413        7.694      864.631
01/23/2014  12:38:00      398.116      205.894       95.555      157.940      122.602      105.972    24945.123    15031.331    11230.167       13.060        2.560      448.206       78.823        0.031      336.275        7.464      864.604
01/23/2014  12:39:00      348.057      231.253       89.327      174.954      133.079      117.650    30608.980    17710.116    13841.480       12.237        3.108      417.878       92.478        0.049      336.191        7.325      864.611
01/23/2014  12:40:00      211.803      139.600       66.992      168.043      130.968       95.163    28238.341    17152.739     9056.073        6.163        2.722      253.670       62.459        0.061      336.197        7.334      864.612
01/23/2014  12:41:00      219.280      135.091       57.641      125.544       93.463       87.929    15761.214     8735.255     7731.425        5.094        1.611      257.553       58.832        0.052      336.563        7.946      864.591
01/23/2014  12:42:00      175.800      123.104      107.986      165.905       97.600      107.651    27524.459     9525.734    11588.734        5.317        2.432      214.616       84.973        0.157      336.468        7.788      864.561
01/23/2014  12:43:00      364.721      197.315       79.050      177.410      146.942      104.859    31474.339    21591.841    10995.342       12.112        3.203      414.674       51.304        0.015      336.191        7.324      864.547
01/23/2014  12:44:00      340.766      173.908       77.385      158.339      132.568      123.608    25071.346    17574.341    15278.868       10.513        2.896      382.577       83.582        0.048      336.225        7.381      864.528
01/23/2014  12:45:00      188.450      185.644      132.924      125.797       88.582       99.501    15824.798     7846.834     9900.373        6.060        1.679      264.532       81.695        0.095      336.528        7.887      864.568
01/23/2014  12:46:00      110.856       72.922      123.380      103.794      130.550       85.688    10773.216    17043.315     7342.407        3.399        1.758      132.690       78.990        0.354      336.504        7.849      864.572
01/23/2014  12:47:00      158.001      111.727       87.172      117.519       88.767       85.362    13810.625     7879.607     7286.681        3.701        1.449      193.512       80.043        0.171      336.371        7.625      864.554
01/23/2014  12:48:00      205.434      107.336       74.648      124.545       84.005       71.516    15511.388     7056.806     5114.589        4.348        1.384      231.784       67.307        0.084      336.612        8.028      864.531
01/23/2014  12:49:00      163.990      158.478      111.315      108.555       89.467       92.110    11784.275     8004.304     8484.180        4.633        1.414      228.053       66.828        0.086      336.753        8.264      864.518
01/23/2014  12:50:00      241.874      172.118      156.237      175.104      164.355      104.959    30661.397    27012.458    11016.287        9.060        3.435      296.863       93.677        0.100      336.345        7.581      864.495
01/23/2014  12:51:00      207.856      190.048      172.697      162.856      148.392      127.750    26521.980    22020.252    16319.964        8.699        3.243      281.642      115.799        0.169      336.188        7.318      864.498
01/23/2014  12:52:00      255.585      124.459      105.522      168.407      101.965      106.658    28360.786    10396.921    11375.842        7.103        2.507      284.278      105.302        0.137      336.259        7.438      864.487
01/23/2014  12:53:00      184.589       30.715       65.319      139.378      182.517       93.690    19426.222    33312.442     8777.772        5.039        3.076      187.126       95.123        0.258      336.525        7.884      864.450
01/23/2014  12:54:00      203.625       95.307       27.097      171.012      103.133       73.433    29245.191    10636.479     5392.397        4.827        2.264      224.826       34.807        0.024      336.525        7.883      864.455
01/23/2014  12:55:00      223.701      147.280       13.768      128.135      122.266       58.075    16418.502    14948.905     3372.674        5.332        1.737      267.831       39.721        0.022      336.315        7.531      864.438
01/23/2014  12:56:00       54.637       75.212       92.163       88.261       71.836       74.334     7789.962     5160.473     5525.565        1.780        0.924       92.962       65.918        0.503      336.886        8.488      864.401
01/23/2014  12:57:00      150.140      141.099       83.390      114.640       81.435       88.040    13142.340     6631.739     7750.991        3.846        1.376      206.036       71.051        0.119      336.853        8.430      864.386
01/23/2014  12:58:00      277.467      144.452       97.484      154.047      102.734       99.000    23730.325    10554.363     9800.963        7.571        2.204      312.817       84.786        0.073      336.647        8.086      864.372
01/23/2014  12:59:00      188.241       81.810      127.006      150.942      118.486       95.855    22783.551    14038.900     9188.251        5.213        2.301      205.250       85.241        0.172      336.704        8.181      864.357
01/23/2014  13:00:00       91.153      122.596      105.333      111.661       78.270       72.674    12468.235     6126.267     5281.462        2.915        1.194      152.770       61.682        0.163      337.067        8.788      864.349
01/23/2014  13:01:00      163.571      118.892       56.844      142.851       88.112       78.256    20406.425     7763.802     6123.932        3.920        1.715      202.215       73.852        0.133      336.874        8.466      864.369
01/23/2014  13:02:00      238.775      133.875       51.784      140.187      100.903       66.399    19652.340    10181.515     4408.870        5.592        1.712      273.745       26.406        0.009      336.564        7.948      864.340
01/23/2014  13:03:00      148.463       65.335       27.863      137.644       77.559       59.115    18945.855     6015.369     3494.606        2.777        1.423      162.203       42.658        0.069      336.765        8.285      864.318
01/23/2014  13:04:00      183.384      130.677      117.676      116.413       96.330       87.739    13551.945     9279.544     7698.089        4.754        1.526      225.180       59.390        0.070      336.849        8.424      864.309
01/23/2014  13:05:00      318.570      149.327       32.399      158.387      118.162       75.272    25086.385    13962.372     5665.877        8.477        2.236      351.831       40.330        0.013      336.623        8.045      864.303
01/23/2014  13:06:00      323.476      194.617      133.648      157.945      124.900      125.850    24946.592    15599.888    15838.194       10.837        2.819      377.509       95.848        0.064      336.545        7.915      864.289
01/23/2014  13:07:00      189.790      186.647      181.928      145.244      120.695       97.078    21095.896    14567.204     9424.049        7.451        2.254      266.190       85.212        0.102      336.558        7.936      864.300
01/23/2014  13:08:00      250.611      166.863       82.203      109.622      104.588      102.610    12016.895    10938.661    10528.870        6.544        1.674      301.080       68.595        0.052      336.466        7.783      864.305
01/23/2014  13:09:00      184.669      122.111      116.872      141.419      115.491       85.294    19999.471    13338.176     7274.983        5.163        2.031      221.390       66.314        0.090      336.653        8.096      864.286
01/23/2014  13:10:00      239.475      180.100      167.095      176.459      137.757      136.955    31137.692    18977.070    18756.744        9.327        3.444      299.641      122.254        0.166      336.372        7.626      864.269
01/23/2014  13:11:00      144.863       85.786       84.396      115.783      102.739       79.171    13405.709    10555.281     6268.014        3.284        1.511      168.358       65.034        0.149      336.389        7.656      864.270
01/23/2014  13:12:00      151.019      136.287      165.293      134.335      105.467       84.670    18045.852    11123.335     7168.949        5.251        1.817      203.423       87.211        0.184      336.418        7.703      864.247
01/23/2014  13:13:00      245.568      253.331      143.855      190.367      134.715      106.159    36239.582    18148.026    11269.823       10.540        3.283      352.818      101.319        0.082      336.464        7.780      864.220
01/23/2014  13:14:00      215.670      182.008      111.400      129.748      104.179      101.820    16834.432    10853.255    10367.296        6.505        1.903      282.206       75.847        0.072      336.630        8.057      864.204
01/23/2014  13:15:00      194.700       97.958       28.618      147.208       93.728       70.202    21670.172     8784.926     4928.344        4.185        1.769      217.954       34.606        0.025      336.732        8.229      864.209
01/23/2014  13:16:00      165.806       75.585       26.827      108.897       82.872       71.543    11858.581     6867.711     5118.386        2.888        1.192      182.222       42.041        0.053      336.734        8.233      864.198
01/23/2014  13:17:00      189.937      123.087      106.620      145.024       92.573       79.981    21032.096     8569.676     6397.016        4.929        1.800      226.332       67.594        0.089      336.946        8.585      864.187
01/23/2014  13:18:00      190.576      157.465      125.189      156.596      145.359      133.842    24522.318    21129.198    17913.551        7.016        3.178      247.214      109.527        0.196      336.781        8.310      864.196
01/23/2014  13:19:00      213.853      200.309      156.481      206.435      157.385      141.144    42615.481    24769.903    19921.698        9.881        4.365      293.013      133.844        0.209      336.510        7.856      864.171
01/23/2014  13:20:00      215.505      205.349      139.131      173.741      147.622      133.222    30185.846    21792.296    17748.003        8.883        3.486      297.675      106.715        0.129      336.584        7.981      864.148
01/23/2014  13:21:00      199.135      140.227       62.905      123.058      100.934       92.213    15143.334    10187.595     8503.217        4.855        1.692      243.554       56.517        0.054      336.967        8.620      864.197
01/23/2014  13:22:00      209.115      131.538      126.402      135.744      131.137      119.140    18426.334    17196.920    14194.457        6.340        2.491      247.045       97.326        0.155      336.781        8.309      864.205
01/23/2014  13:23:00      178.840      200.356      140.266      226.938      157.833      112.020    51501.051    24911.277    12548.398        9.036        4.448      268.563      118.068        0.193      336.644        8.082      864.215
01/23/2014  13:24:00      434.137      244.732       98.713      216.153      141.125      110.461    46721.961    19916.386    12201.700       16.846        3.942      498.366       88.780        0.032      336.468        7.788      864.215
01/23/2014  13:25:00      436.371      282.319       75.832      159.338      145.488      116.968    25388.663    21166.743    13681.526       16.804        3.012      519.734       66.751        0.016      336.344        7.578      864.230
01/23/2014  13:26:00      389.561      239.201       46.318      145.997      109.402       83.017    21315.176    11968.825     6891.845       12.564        2.009      457.138       64.955        0.020      336.402        7.676      864.248
01/23/2014  13:27:00      221.657      106.654       15.187      148.989       90.226       72.177    22197.580     8140.684     5209.566        4.814        1.777      245.982       29.879        0.015      336.698        8.171      864.241
01/23/2014  13:28:00      224.796      126.732        7.957      116.779       90.290       80.033    13637.228     8152.315     6405.211        4.742        1.410      258.058       45.176        0.031      336.497        7.835      864.232
01/23/2014  13:29:00      327.895      181.228       78.870      155.673      126.064       94.464    24233.977    15892.241     8923.485        9.780        2.452      374.644       66.613        0.032      336.516        7.866      864.218
01/23/2014  13:30:00      304.187      201.892       99.243      162.542      129.189       95.139    26419.793    16689.788     9051.432        9.764        2.608      365.089       59.183        0.026      336.457        7.768      864.188
01/23/2014  13:31:00      154.123      183.243      158.804      160.634      113.236      111.595    25803.161    12822.373    12453.384        6.680        2.554      239.441      104.093        0.189      336.561        7.941      864.186
01/23/2014  13:32:00       54.774       59.910       64.171      100.979       73.016       62.685    10196.797     5331.295     3929.384        1.508        0.973       81.175       54.780        0.455      336.990        8.661      864.189
01/23/2014  13:33:00      106.456       76.008       43.266       49.598       52.422       49.690     2459.981     2748.110     2469.109        1.333        0.384      130.806       30.552        0.055      336.818        8.374      864.177
01/23/2014  13:34:00      216.627      125.609       25.515      109.364       88.138       68.637    11960.510     7768.381     4711.072        4.389        1.222      250.409       19.284        0.006      336.906        8.518      864.168
01/23/2014  13:35:00      244.622      130.461       34.496      131.860      103.618       62.996    17387.150    10736.772     3968.520        5.506        1.605      277.236       20.117        0.005      336.561        7.942      864.163
01/23/2014  13:36:00      177.292      105.715       51.030       95.380       74.499       70.075     9097.340     5550.077     4910.460        3.238        0.978      206.417       49.819        0.058      336.845        8.417      864.132
01/23/2014  13:37:00      256.159      188.179      120.010      227.396      142.712      137.724    51709.142    20366.760    18968.010       10.322        4.552      317.851      121.112        0.145      336.873        8.464      864.135
01/23/2014  13:38:00      310.749      128.460       76.807      181.559      134.977      113.211    32963.503    18218.894    12816.665        9.147        3.200      336.254       98.915        0.087      336.670        8.125      864.168
01/23/2014  13:39:00      205.519      158.653       85.104      154.254      112.464       94.512    23794.359    12648.045     8932.436        6.000        2.269      259.632       60.123        0.054      336.662        8.111      864.210
01/23/2014  13:40:00      213.121      130.310       35.139      153.938      116.239       67.242    23696.987    13511.568     4521.523        5.267        2.087      249.803       48.002        0.037      336.672        8.128      864.221
01/23/2014  13:41:00      260.957      148.449       47.243      111.378       98.017       91.624    12404.988     9607.362     8394.936        6.138        1.520      300.227       45.673        0.023      336.619        8.038      864.219
01/23/2014  13:42:00      275.819      174.504       68.559      120.607      104.941       97.439    14546.074    11012.711     9494.393        7.313        1.753      326.386       65.034        0.040      336.742        8.244      864.226
01/23/2014  13:43:00      236.248       73.169       39.361      182.156      130.090       90.489    33180.635    16923.447     8188.291        6.049        2.915      247.319       76.205        0.095      336.697        8.170      864.227
01/23/2014  13:44:00      289.131      172.992       57.098      141.203      130.446       95.086    19938.425    17016.204     9041.310        8.138        2.300      336.931       61.218        0.033      336.692        8.160      864.235
01/23/2014  13:45:00      196.863      166.988      126.138      183.069      130.604      121.561    33514.329    17057.408    14777.145        7.394        3.267      258.147      108.478        0.177      336.690        8.158      864.212
01/23/2014  13:46:00      268.802      136.639      121.007      180.615      138.218      103.636    32621.814    19104.109    10740.400        8.400        3.123      301.537       82.648        0.075      336.862        8.445      864.206
01/23/2014  13:47:00      162.826      167.730       63.138      227.500      149.825       97.891    51756.130    22447.583     9582.590        7.119        4.189      233.764       93.122        0.159      336.981        8.647      864.222
01/23/2014  13:48:00      291.658      166.387       17.912      141.119      116.432       87.827    19914.526    13556.467     7713.579        7.712        2.059      335.781       56.386        0.028      336.625        8.049      864.204
01/23/2014  13:49:00      146.976       49.364       36.629      151.629      101.125       89.490    22991.404    10226.301     8008.426        3.330        2.061      155.044       56.016        0.131      336.795        8.333      864.186
01/23/2014  13:50:00      247.748      185.327      148.854      149.836      121.100      122.746    22450.876    14665.214    15066.614        8.502        2.609      309.395       75.374        0.059      336.860        8.443      864.179
01/23/2014  13:51:00      264.080      226.058      192.645      165.895      164.679      129.446    27521.024    27119.240    16756.328       11.466        3.570      347.621       94.810        0.074      336.774        8.298      864.163
01/23/2014  13:52:00      256.970      260.642      252.591      165.648      157.343      115.265    27439.315    24756.749    13286.039       13.161        3.274      366.016       92.609        0.064      336.642        8.077      864.175
01/23/2014  13:53:00      129.957      118.359      159.705      138.930      131.637      120.004    19301.613    17328.306    14401.006        5.371        2.552      175.777      104.704        0.355      336.679        8.140      864.175
01/23/2014  13:54:00      153.686       66.488      102.590      112.145       93.921       79.957    12576.561     8821.147     6393.121        3.317        1.390      167.452       62.506        0.139      336.829        8.391      864.160
01/23/2014  13:55:00      159.843       85.038       92.278      109.785      117.530       87.011    12052.640    13813.373     7570.828        3.736        1.672      181.056       76.898        0.180      337.046        8.753      864.174
01/23/2014  13:56:00      338.803      199.584      112.959      201.748      149.615      141.242    40702.426    22384.554    19949.322       12.519        4.152      393.219      116.705        0.088      336.783        8.313      864.136
01/23/2014  13:57:00      232.520      211.949      228.762      169.916      150.468      122.405    28871.610    22640.623    14983.038       10.889        3.325      314.624      119.163        0.143      336.705        8.184      864.129
01/23/2014  13:58:00      161.801      111.271      146.692      181.007      135.351      127.350    32763.681    18319.967    16217.941        6.368        3.365      196.369      111.409        0.322      336.821        8.378      864.113
01/23/2014  13:59:00      247.380      128.062       79.651      165.879      116.773       97.467    27515.945    13635.913     9499.728        6.729        2.533      278.562       84.221        0.091      336.782        8.311      864.106
01/23/2014  14:00:00      319.430      196.529       70.546      148.189      101.776       92.299    21960.011    10358.412     8519.088        9.323        2.042      375.045       71.919        0.037      336.855        8.434      864.075
01/23/2014  14:01:00      113.120       -7.658       53.323      117.697      123.309       83.278    13852.665    15205.069     6935.206        2.584        1.800      113.379       83.337        0.540      337.171        8.963      864.115
01/23/2014  14:02:00      247.280      169.952      134.641      170.241      135.987      135.625    28982.066    18492.476    18394.193        8.700        3.293      300.051      109.867        0.134      336.826        8.385      864.116
01/23/2014  14:03:00      307.845      151.728       54.121      191.782      116.229       98.865    36780.285    13509.216     9774.297        9.038        3.003      343.205       85.927        0.063      336.828        8.389      864.128
01/23/2014  14:04:00      253.584      113.781       94.904      155.873      100.937       94.980    24296.450    10188.293     9021.144        6.487        2.175      277.940       83.642        0.091      336.969        8.623      864.126
01/23/2014  14:05:00      157.249      103.763      129.530      142.607      134.313      115.539    20336.619    18039.893    13349.272        5.199        2.586      188.398       88.362        0.220      336.979        8.641      864.131
01/23/2014  14:06:00      278.379      193.552      172.856      179.551      180.615      137.250    32238.631    32621.865    18837.562       11.425        4.185      339.053      104.241        0.095      336.763        8.279      864.104
01/23/2014  14:07:00      197.045       40.697       78.213      151.375      152.631       93.619    22914.436    23296.194     8764.431        5.078        2.749      201.204       74.679        0.138      336.976        8.635      864.135
01/23/2014  14:08:00       99.546      110.848      137.745      127.309      104.897       81.775    16207.639    11003.403     6687.197        3.753        1.695      148.985       78.904        0.280      336.993        8.665      864.143
01/23/2014  14:09:00       97.759       24.913       65.522       95.909       93.110       65.858     9198.508     8669.535     4337.263        1.833        1.110      100.884       52.445        0.270      337.153        8.933      864.177
01/23/2014  14:10:00      116.517      -52.366       -4.443       60.313       79.275       59.851     3637.657     6284.605     3582.135        1.492        0.675      127.744       36.937        0.084      337.109        8.862      864.181
01/23/2014  14:11:00       45.630       27.677       37.915       58.830       65.103       58.890     3461.018     4238.388     3468.077        0.772        0.558       53.368       52.269        0.959      337.458        9.445      864.189
01/23/2014  14:12:00      310.963      166.236      102.271      155.827      134.140       98.245    24282.110    17993.662     9651.983        9.335        2.596      352.608       74.352        0.044      337.043        8.749      864.168
01/23/2014  14:13:00      260.310      173.407      113.031      202.895      138.159      115.357    41166.545    19088.000    13307.249        9.207        3.678      312.779      109.599        0.123      337.182        8.980      864.131
01/23/2014  14:14:00      217.721      162.855      169.542      164.911      143.325      142.727    27195.790    20541.976    20371.093        8.538        3.405      271.890      116.095        0.182      336.997        8.671      864.144
01/23/2014  14:15:00      153.044     -134.785       33.544      123.967      172.525       88.866    15367.742    29764.734     7897.143        4.786        2.651      203.935       92.669        0.206      336.935        8.567      864.155
01/23/2014  14:16:00      168.343     -167.938       39.737      120.649      149.653       97.526    14556.133    22396.027     9511.362        5.228        2.323      237.786      105.302        0.196      336.810        8.359      864.200
01/23/2014  14:17:00       85.170     -145.892       -6.694      104.031      131.199       57.970    10822.445    17213.078     3360.472        2.998        1.570      168.933       77.036        0.208      337.036        8.737      864.232
01/23/2014  14:18:00       79.252     -122.237       -5.598       91.639      119.667       79.030     8397.769    14320.237     6245.743        2.510        1.448      145.680       69.146        0.225      337.053        8.765      864.228
01/23/2014  14:19:00       59.718      100.400      136.411       79.250      163.320      100.633     6280.595    26673.421    10127.036        3.766        2.154      116.818      117.728        1.016      336.659        8.107      864.250
01/23/2014  14:20:00      129.041      -22.217       84.466      112.552      185.965       95.162    12668.022    34582.854     9055.799        4.028        2.815      130.939      116.503        0.792      336.873        8.463      864.268
01/23/2014  14:21:00       74.481      -30.556       61.772       79.611      140.440       81.439     6337.837    19723.484     6632.230        2.149        1.635       80.505      102.174        1.611      337.067        8.788      864.271
01/23/2014  14:22:00      148.058      -37.877       33.675       98.652      179.380       85.948     9732.201    32177.228     7387.122        3.688        2.465      152.826       93.099        0.371      336.908        8.522      864.260
01/23/2014  14:23:00      167.820     -115.752       -2.512      116.089       93.055       47.678    13476.617     8659.236     2273.211        3.298        1.220      203.868       58.965        0.084      336.809        8.358      864.252
01/23/2014  14:24:00       15.007       16.219       82.196       46.543       88.110       61.068     2166.288     7763.423     3729.353        1.045        0.683       22.097       68.808        9.697      336.967        8.623      864.264
01/23/2014  14:25:00       66.013     -134.147       -5.421       86.450      116.544       70.328     7473.653    13582.398     4946.091        2.419        1.300      149.510       59.078        0.156      336.930        8.561      864.253
01/23/2014  14:26:00       44.724     -131.622       -2.276       75.957      140.794       73.339     5769.439    19823.075     5378.536        2.514        1.549      139.013       73.203        0.277      336.972        8.631      864.262
01/23/2014  14:27:00       29.027      -35.987       49.862       67.358       81.608       63.699     4537.064     6659.926     4057.617        0.994        0.763       46.235       55.739        1.453      337.337        9.242      864.270
01/23/2014  14:28:00       49.843      -91.479       15.885       91.472       71.117       55.841     8367.127     5057.672     3118.166        1.382        0.827      104.176       37.414        0.129      337.241        9.081      864.274
01/23/2014  14:29:00       -4.938       25.668       91.620       39.616       71.585       54.194     1569.441     5124.455     2936.967        0.935        0.482       26.138       50.786        3.775      337.381        9.316      864.284
01/23/2014  14:30:00      200.650     -195.308      -22.950       99.741       96.369       57.748     9948.365     9287.060     3334.814        5.075        1.129      280.010       50.594        0.033      336.868        8.454      864.283
01/23/2014  14:31:00       82.824       29.406       87.455       74.016      100.951       72.333     5478.306    10191.128     5232.107        1.813        1.045       87.889       69.346        0.623      337.039        8.744      864.305
01/23/2014  14:32:00       57.173       -7.071       21.341       75.297       73.627       44.776     5669.617     5421.007     2004.887        0.843        0.655       57.608       35.358        0.377      337.167        8.958      864.357
01/23/2014  14:33:00      151.962       63.936      115.156      115.566      135.703      100.756    13355.396    18415.174    10151.696        4.117        2.096      164.865      102.955        0.390      336.963        8.615      864.372
01/23/2014  14:34:00      216.162      103.261      124.498      129.446      103.563       82.031    16756.259    10725.397     6729.122        5.354        1.711      239.560       78.482        0.107      336.968        8.622      864.361
01/23/2014  14:35:00      202.878      147.942       70.756      111.090      112.516       89.677    12341.077    12659.959     8042.020        5.054        1.652      251.090       69.996        0.078      336.952        8.595      864.379
01/23/2014  14:36:00      181.893      121.522       60.821      111.665       81.811       91.302    12469.124     6692.972     8336.092        3.952        1.375      218.752       65.293        0.089      337.010        8.693      864.396
01/23/2014  14:37:00      166.562       65.258       69.686      134.202       92.400       85.847    18010.143     8537.682     7369.677        3.538        1.696      178.890       79.924        0.200      336.673        8.131      864.398
01/23/2014  14:38:00      113.331       68.777       60.141       96.398       77.508       48.148     9292.541     6007.428     2318.271        1.940        0.881      132.568       45.489        0.118      336.898        8.506      864.418
01/23/2014  14:39:00       95.429       65.387       91.610      121.292      100.955       88.661    14711.797    10191.854     7860.818        2.726        1.638      115.681       57.957        0.251      337.134        8.900      864.420
01/23/2014  14:40:00      195.922      162.188      153.867      148.529      130.653      133.928    22060.875    17070.312    17936.628        7.271        2.853      254.343      105.714        0.173      336.903        8.515      864.391
01/23/2014  14:41:00      196.279      128.106      128.864      128.579      117.776       97.950    16532.556    13871.303     9594.274        5.576        2.000      234.385       91.268        0.152      336.870        8.457      864.420
01/23/2014  14:42:00      162.311       66.070       90.318      115.815      140.733       90.142    13413.029    19805.764     8125.666        4.010        2.067      175.243       87.102        0.247      336.863        8.446      864.389
01/23/2014  14:43:00      270.929       97.600       93.046      185.583      143.704      113.290    34441.219    20650.963    12834.587        7.974        3.396      287.972      101.363        0.124      336.846        8.418      864.360
01/23/2014  14:44:00      185.925      135.186      117.017      159.404      152.352       93.356    25409.503    23211.061     8715.384        6.192        2.867      229.877       85.242        0.138      336.939        8.574      864.364
01/23/2014  14:45:00      227.801      173.860      142.538      157.545      122.266      103.430    24820.559    14949.014    10697.690        7.644        2.523      286.566       74.747        0.068      336.888        8.488      864.406
01/23/2014  14:46:00       69.752      118.397      156.194       91.281      124.835       70.959     8332.187    15583.841     5035.223        3.611        1.448      137.417       73.190        0.284      336.891        8.496      864.434
01/23/2014  14:47:00       80.276       89.651       79.181       93.976       71.555       70.251     8831.504     5120.090     4935.253        1.982        0.944      120.339       57.478        0.228      336.830        8.394      864.458
01/23/2014  14:48:00       71.741       46.506       58.948       90.548       60.474       57.343     8199.006     3657.126     3288.209        1.296        0.757       85.496       48.955        0.328      336.910        8.528      864.445
01/23/2014  14:49:00      135.770       92.422       34.193      107.872       66.701       56.510    11636.385     4449.034     3193.430        2.371        0.964      164.241       60.443        0.135      337.103        8.848      864.449
01/23/2014  14:50:00      221.911      141.967       49.924      127.731       95.215       76.065    16315.205     9065.895     5785.960        5.152        1.558      263.437       59.896        0.052      336.935        8.567      864.443
01/23/2014  14:51:00      152.144      150.152      170.015      148.299      107.554       82.642    21992.450    11567.863     6829.671        5.749        2.019      213.760       45.612        0.046      337.048        8.756      864.448
01/23/2014  14:52:00      128.286      -51.497       79.154      130.955      138.316       89.122    17149.246    19131.284     7942.649        3.479        2.211      138.236       92.820        0.451      337.039        8.742      864.426
01/23/2014  14:53:00      129.744       28.454       63.572       98.491      121.498       69.807     9700.457    14761.781     4872.957        2.550        1.467      132.827       52.251        0.155      337.067        8.789      864.461
01/23/2014  14:54:00      335.814      157.969       57.048      136.156      102.273       93.196    18538.337    10459.823     8685.561        8.932        1.884      371.113       49.166        0.018      337.022        8.713      864.484
01/23/2014  14:55:00      298.587      132.731       84.249      188.923      147.096      118.209    35692.087    21637.309    13973.335        9.257        3.565      326.760      106.907        0.107      336.894        8.499      864.454
01/23/2014  14:56:00      255.825      187.967      109.544      142.966      123.825      108.305    20439.289    15332.705    11730.068        8.013        2.375      317.456       98.949        0.097      336.838        8.404      864.478
01/23/2014  14:57:00      292.621      209.956       31.876      157.508      127.607       85.481    24808.866    16283.587     7307.010        8.955        2.420      360.151       76.334        0.045      336.843        8.414      864.519
01/23/2014  14:58:00      340.544      196.274       72.665      156.762      138.298       85.224    24574.463    19126.452     7263.112       10.536        2.548      393.057       31.315        0.006      336.892        8.495      864.509
01/23/2014  14:59:00      337.445      209.049       37.342      169.231      113.420       91.210    28639.232    12864.099     8319.188       10.438        2.491      396.951       63.001        0.025      336.855        8.434      864.521
01/23/2014  15:00:00      219.546      112.546       98.778      157.137      108.121      100.923    24692.181    11690.215    10185.396        5.859        2.328      246.713       85.432        0.120      337.006        8.687      864.518
01/23/2014  15:01:00      343.447      180.207       86.008      159.404      114.427       83.023    25409.570    13093.475     6892.747       10.160        2.270      387.853       64.554        0.028      336.883        8.479      864.515
01/23/2014  15:02:00      264.016      154.025       51.990      150.023      103.549       90.856    22506.979    10722.478     8254.782        6.880        2.074      305.660       62.695        0.042      336.869        8.457      864.553
01/23/2014  15:03:00      158.460      131.015      105.877      145.158      115.353      100.867    21070.823    13306.354    10174.211        4.901        2.228      205.608       77.441        0.142      336.852        8.429      864.554
01/23/2014  15:04:00      121.003       64.770       72.202       83.405       81.108       62.168     6956.443     6578.577     3864.812        2.072        0.870      137.248       49.875        0.132      336.960        8.611      864.578
01/23/2014  15:05:00      232.977      170.462       86.120      126.558       84.623       93.809    16016.879     7161.078     8800.092        6.136        1.599      288.679       80.797        0.078      336.947        8.586      864.572
01/23/2014  15:06:00      195.809      122.399       33.627      106.538       86.470       70.234    11350.240     7476.979     4932.853        3.910        1.188      230.917       45.038        0.038      337.068        8.789      864.582
01/23/2014  15:07:00      234.643      116.728       49.631      128.197      101.438       70.612    16434.363    10289.615     4986.113        5.142        1.586      262.073       46.289        0.031      337.124        8.884      864.565
01/23/2014  15:08:00      280.684      159.054       15.866      128.108       99.223       77.297    16411.695     9845.132     5974.779        6.828        1.612      322.617       34.766        0.012      337.077        8.804      864.564
01/23/2014  15:09:00      245.674      150.819       36.114      114.432       80.496       83.496    13094.674     6479.548     6971.626        5.547        1.327      288.275       49.976        0.030      336.883        8.480      864.552
01/23/2014  15:10:00      284.176      135.684       35.556      187.569       98.187       84.079    35182.130     9640.685     7069.195        7.615        2.595      314.906       19.586        0.004      336.850        8.426      864.550
01/23/2014  15:11:00      253.491      160.147       67.431      167.052      111.640       78.373    27906.325    12463.456     6142.294        7.047        2.326      299.841       66.197        0.049      336.833        8.397      864.559
01/23/2014  15:12:00      241.967      115.814       34.990      138.149       96.369       73.162    19085.279     9286.977     5352.713        5.345        1.686      268.256       48.085        0.032      336.861        8.444      864.554
01/23/2014  15:13:00      345.287      197.041       43.996      173.511      138.964       87.052    30106.178    19311.130     7577.996       10.848        2.850      397.553       37.773        0.009      336.847        8.420      864.584
01/23/2014  15:14:00      335.445      205.794       33.794      162.129      122.307       84.408    26285.757    14958.891     7124.667       10.218        2.418      393.541       50.709        0.017      336.753        8.263      864.565
01/23/2014  15:15:00      236.127      134.162       51.241      151.210      124.929       99.823    22864.409    15607.184     9964.601        6.240        2.422      271.580       81.400        0.090      336.811        8.360      864.561
01/23/2014  15:16:00      308.137      160.162       49.165      230.833      141.382       78.423    53283.938    19988.807     6150.142       10.120        3.971      347.275       63.419        0.033      336.841        8.411      864.558
01/23/2014  15:17:00      286.746      150.104       70.972      167.216      143.301      118.917    27961.356    20535.248    14141.160        8.620        3.132      323.658       88.651        0.075      336.759        8.274      864.533
01/23/2014  15:18:00      171.872      108.978       73.962      131.483       90.402       78.620    17287.814     8172.506     6181.089        3.926        1.582      203.510       78.293        0.148      336.903        8.514      864.581
01/23/2014  15:19:00      123.426      100.028       36.349      117.755       68.624       68.591    13866.289     4709.260     4704.748        2.492        1.164      158.870       42.201        0.071      336.862        8.446      864.606
01/23/2014  15:20:00      236.299      196.257       25.656      145.720      101.848       71.942    21234.378    10372.986     5175.652        6.589        1.839      307.171       55.487        0.033      336.786        8.319      864.615
01/23/2014  15:21:00      293.965      154.816       12.265      103.585       82.763       53.671    10729.866     6849.732     2880.620        6.549        1.023      332.240       36.429        0.012      336.838        8.404      864.594
01/23/2014  15:22:00       90.267       86.440       67.411      100.270       86.710       68.272    10053.980     7518.655     4661.078        2.119        1.112      124.980       67.008        0.287      336.939        8.574      864.615
01/23/2014  15:23:00      231.376      139.210       33.974       92.726       77.003       61.349     8598.161     5929.456     3763.664        4.618        0.915      270.026       43.851        0.026      336.897        8.504      864.643
01/23/2014  15:24:00      307.936      181.886       80.327      181.331      138.843       89.416    32880.768    19277.512     7995.189        9.724        3.008      357.641       57.382        0.026      336.744        8.250      864.624
01/23/2014  15:25:00      306.220      199.311       72.027      127.452      140.740       91.083    16243.977    19807.718     8296.025        9.151        2.217      365.371       58.062        0.025      336.744        8.249      864.638
01/23/2014  15:26:00      244.881      125.767       59.076      117.991       87.568       70.751    13921.928     7668.221     5005.751        5.293        1.330      275.289       45.771        0.028      336.725        8.216      864.649
01/23/2014  15:27:00      175.811       81.525       78.269      132.438       97.106       78.101    17539.843     9429.511     6099.724        3.837        1.653      193.793       78.308        0.163      336.798        8.339      864.658
01/23/2014  15:28:00      313.149      166.991       54.560      112.447      105.939       75.536    12644.305    11223.013     5705.648        7.924        1.479      354.892       35.897        0.010      336.727        8.221      864.696
01/23/2014  15:29:00      205.693       77.233       37.239      141.193      100.700       63.872    19935.530    10140.510     4079.674        4.190        1.708      219.715       35.043        0.025      336.736        8.235      864.691
01/23/2014  15:30:00      314.465      178.579       55.047       74.930       94.837       71.781     5614.534     8994.084     5152.500        7.678        0.988      361.633       43.576        0.015      336.734        8.231      864.698
01/23/2014  15:31:00      245.822       81.615       35.000      126.272       93.918       72.987    15944.623     8820.657     5327.067        4.920        1.505      259.017       61.820        0.057      336.778        8.304      864.710
01/23/2014  15:32:00      286.992      179.725       96.363      179.624      126.135       98.251    32264.622    15909.924     9653.303        9.088        2.891      338.623       97.277        0.083      336.741        8.244      864.698
01/23/2014  15:33:00      132.115      161.353      123.807      115.444       79.548       98.723    13327.274     6327.945     9746.260        4.410        1.470      208.541       93.708        0.202      336.766        8.284      864.707
01/23/2014  15:34:00      140.099      148.500      139.435      117.937      137.150       97.728    13909.121    18810.105     9550.764        5.169        2.113      204.157       81.355        0.159      336.784        8.316      864.685
01/23/2014  15:35:00      209.618      168.312      163.611      158.523      121.704      117.316    25129.623    14811.971    13763.048        7.636        2.685      268.828      104.875        0.152      336.799        8.339      864.675
01/23/2014  15:36:00      207.227      141.009       97.196      133.038       90.130       83.220    17699.075     8123.477     6925.625        5.250        1.637      250.652       71.187        0.081      336.820        8.376      864.700
01/23/2014  15:37:00       93.654       84.718       88.924       78.573       78.092       56.697     6173.643     6098.343     3214.571        1.967        0.774      126.286       51.261        0.165      336.856        8.437      864.727
01/23/2014  15:38:00      130.423      116.393      123.782      135.361       93.956       90.200    18322.591     8827.714     8135.997        4.058        1.764      174.807       74.957        0.184      336.823        8.381      864.704
01/23/2014  15:39:00      127.635      158.168      105.771      108.714       82.383       87.749    11818.665     6786.948     7699.948        3.940        1.315      203.243       69.793        0.118      336.829        8.389      864.728
01/23/2014  15:40:00      116.058      120.799       57.171       79.799       77.068       59.207     6367.866     5939.408     3505.414        2.357        0.791      167.517       50.522        0.091      336.818        8.373      864.744
01/23/2014  15:41:00      172.595      116.049       78.001       94.497       60.912       73.676     8929.622     3710.221     5428.181        3.370        0.903      207.982       45.587        0.048      336.782        8.312      864.762
01/23/2014  15:42:00      179.183       92.944       86.200      138.312      110.514       84.805    19130.107    12213.301     7191.927        4.335        1.927      201.855       89.442        0.196      336.773        8.297      864.746
01/23/2014  15:43:00      270.267      169.735       85.672      152.391      118.731       99.658    23222.942    14096.947     9931.776        7.821        2.363      319.146       71.016        0.050      336.731        8.227      864.751
01/23/2014  15:44:00      204.178      102.876       83.058      206.721       95.077      103.794    42733.634     9039.713    10773.197        6.085        3.127      228.631       88.829        0.151      336.743        8.248      864.732
01/23/2014  15:45:00      185.102      159.520      100.245      132.298      128.489      114.828    17502.870    16509.328    13185.453        5.847        2.360      244.355       86.782        0.126      336.737        8.237      864.762
01/23/2014  15:46:00      170.393      187.454      152.945      142.748      131.746      127.740    20376.992    17357.097    16317.484        7.080        2.703      253.324       90.430        0.127      336.722        8.212      864.719
01/23/2014  15:47:00      251.419      171.313       82.765      124.713      109.188       99.987    15553.364    11922.092     9997.394        6.843        1.874      304.236       70.805        0.054      336.731        8.226      864.755
01/23/2014  15:48:00      352.563      223.061       94.021      126.728      114.508       87.137    16060.003    13112.170     7592.903       10.982        1.838      417.202       44.962        0.012      336.716        8.201      864.768
01/23/2014  15:49:00      229.802      136.908       57.440       83.274       90.768       68.465     6934.596     8238.822     4687.506        4.735        0.993      267.493       31.599        0.014      336.732        8.228      864.786
01/23/2014  15:50:00      200.953      143.987       92.748      117.037      100.655       82.035    13697.672    10131.405     6729.722        5.013        1.528      247.213       66.045        0.071      336.762        8.277      864.799
01/23/2014  15:51:00      180.472       58.455        5.151       88.332       96.718       67.402     7802.606     9354.419     4542.966        2.885        1.085      189.703       45.284        0.057      336.768        8.289      864.809
01/23/2014  15:52:00      133.179      127.315       71.756       80.806       64.415       67.821     6529.533     4149.263     4599.637        2.718        0.764      184.243       55.735        0.092      336.784        8.316      864.829
01/23/2014  15:53:00      211.261      109.573       76.839      120.549      101.950       73.128    14532.040    10393.724     5347.664        4.640        1.514      237.987       48.947        0.042      336.785        8.317      864.832
01/23/2014  15:54:00      244.555      105.432       38.679      134.178       90.326       92.699    18003.800     8158.876     8593.144        5.358        1.738      266.314       80.823        0.092      336.776        8.304      864.798
01/23/2014  15:55:00      202.735       66.318       58.994      165.726      112.976      105.375    27465.263    12763.635    11103.906        5.015        2.567      213.307       81.110        0.145      336.801        8.344      864.800
01/23/2014  15:56:00      224.167      106.133       71.621      148.804      115.544       80.305    22142.581    13350.388     6448.876        5.428        2.097      248.022       62.427        0.063      336.783        8.314      864.799
01/23/2014  15:57:00      211.101      128.569      128.525      129.236      103.856       94.262    16701.832    10786.066     8885.376        5.699        1.819      247.171       65.566        0.070      336.810        8.358      864.794
01/23/2014  15:58:00      285.135      148.715       72.195      163.357      120.824       80.072    26685.418    14598.496     6411.569        7.815        2.385      321.587       51.102        0.025      336.788        8.322      864.817
01/23/2014  15:59:00      257.706       92.967       46.305      107.502       99.326       94.327    11556.706     9865.591     8897.671        5.375        1.516      273.962       69.570        0.064      336.788        8.322      864.817
01/23/2014  16:00:00      212.352      169.038       58.949      125.138      107.240       86.599    15659.411    11500.406     7499.469        5.589        1.733      271.417       56.899        0.044      336.788        8.320      864.817
01/23/2014  16:01:00      116.442      100.690       91.394       97.806       86.986       62.379     9566.097     7566.600     3891.100        2.653        1.051      153.939       60.598        0.155      336.812        8.362      864.833
01/23/2014  16:02:00      223.720      103.396       90.830      153.498      135.378       97.709    23561.512    18327.156     9547.018        6.020        2.572      246.458       81.435        0.109      336.817        8.370      864.826
01/23/2014  16:03:00      139.576      156.474      148.809      108.133       92.786       90.558    11692.738     8609.172     8200.827        4.730        1.425      209.680       79.712        0.145      336.812        8.361      864.846
01/23/2014  16:04:00      127.452       91.830      108.732      112.268       91.899       70.548    12604.177     8445.356     4977.026        3.126        1.301      157.088       61.628        0.154      336.849        8.425      864.856
01/23/2014  16:05:00      112.149       56.228       59.693      124.920       87.157       47.153    15605.109     7596.417     2223.384        2.236        1.271      125.455       40.590        0.105      336.872        8.463      864.850
01/23/2014  16:06:00       85.157       51.911       89.017       59.229       75.998       47.609     3508.124     5775.717     2266.639        1.471        0.578       99.732       40.156        0.162      336.874        8.467      864.875
01/23/2014  16:07:00      139.552        4.936       58.752       82.859      103.096       68.786     6865.547    10628.828     4731.486        2.258        1.111      139.640       62.004        0.197      336.923        8.548      864.885
01/23/2014  16:08:00       43.053       78.558      120.619       96.491       88.520       53.763     9310.564     7835.767     2890.475        2.130        1.002       89.582       45.791        0.261      336.923        8.548      864.881
01/23/2014  16:09:00       83.563      129.488      160.254      115.935      126.640       82.111    13440.850    16037.739     6742.209        4.282        1.811      154.111       87.204        0.320      336.905        8.517      864.868
01/23/2014  16:10:00      192.765       13.378       94.050      148.998      136.174       95.502    22200.280    18543.410     9120.570        4.801        2.493      193.229      104.480        0.292      336.904        8.515      864.875
01/23/2014  16:11:00      102.367      -18.497       84.046      116.897      123.395       73.289    13665.006    15226.448     5371.296        2.607        1.713      104.025       82.461        0.628      336.913        8.533      864.891
01/23/2014  16:12:00      114.553      -24.689       51.295      102.859      118.711       66.130    10580.049    14092.393     4373.207        2.270        1.452      117.183       70.024        0.357      336.936        8.569      864.907
01/23/2014  16:13:00       53.363       58.588      114.543       87.156      146.036       86.810     7596.109    21326.501     7535.951        2.792        1.823       79.247       93.030        1.378      336.912        8.528      864.914
01/23/2014  16:14:00       64.229      104.206      128.214      108.380       85.606       65.550    11746.317     7328.390     4296.860        2.739        1.169      122.410       38.917        0.101      336.882        8.480      864.918
01/23/2014  16:15:00      140.159      128.490      140.634      143.043      101.566       76.945    20461.417    10315.643     5920.468        4.631        1.835      190.142       75.554        0.158      336.870        8.458      864.900
01/23/2014  16:16:00      139.935      145.780      137.401      156.269      134.232      107.706    24419.915    18018.309    11600.587        5.686        2.702      202.073      109.932        0.296      336.845        8.417      864.904
01/23/2014  16:17:00      154.960       82.746      128.591      130.817      124.726       89.104    17113.160    15556.687     7939.585        4.399        2.030      175.669       76.950        0.192      336.845        8.417      864.887
01/23/2014  16:18:00      112.029      -25.096       79.229      112.784      130.496       86.428    12720.172    17029.094     7469.858        2.833        1.861      114.805       97.655        0.724      336.876        8.469      864.903
01/23/2014  16:19:00      158.529     -177.957       -2.275      125.641      121.552       84.702    15785.618    14774.844     7174.457        4.726        1.887      238.328       83.799        0.124      336.887        8.486      864.897
01/23/2014  16:20:00      234.686     -302.530      -31.813      118.059      123.562       63.117    13937.818    15267.525     3983.777        9.039        1.659      382.886       68.651        0.032      336.862        8.445      864.900
01/23/2014  16:21:00      177.708     -194.563      -19.540      139.892      173.419       79.257    19569.686    30074.075     6281.682        6.286        2.796      263.505       81.459        0.096      336.866        8.452      864.903
01/23/2014  16:22:00      172.690     -182.319        5.849      111.384      125.628       77.365    12406.359    15782.395     5985.305        4.863        1.709      251.122       82.711        0.108      336.832        8.396      864.938
01/23/2014  16:23:00      144.076     -111.955       33.525      148.645      150.971       76.672    22095.474    22792.298     5878.646        4.258        2.538      182.460       81.616        0.200      336.832        8.396      864.938
01/23/2014  16:24:00      146.414       13.641       98.362      127.784      137.176      113.206    16328.728    18817.128    12815.542        3.962        2.398      147.048      113.160        0.592      336.758        8.273      864.937
01/23/2014  16:25:00      101.134       -5.859       83.255      114.417      150.245       78.383    13091.318    22573.621     6143.963        2.949        2.090      101.304       98.064        0.937      336.775        8.302      864.949
01/23/2014  16:26:00      163.608     -173.589      -15.782       83.862      126.715       69.962     7032.822    16056.735     4894.664        4.256        1.399      238.538       71.172        0.089      336.807        8.353      864.947
01/23/2014  16:27:00       84.635      -21.523       41.130       95.787      112.578       70.360     9175.112    12673.816     4950.477        1.805        1.340       87.329       67.730        0.602      336.785        8.319      864.955
01/23/2014  16:28:00      134.962      -25.260       73.277      130.058      109.676       85.251    16915.158    12028.753     7267.817        3.021        1.811      137.305       97.975        0.509      336.723        8.215      864.945
01/23/2014  16:29:00       71.643      151.489      201.659      125.661      122.214       87.251    15790.758    14936.334     7612.780        5.354        1.917      167.575       91.316        0.297      336.676        8.134      864.930
01/23/2014  16:30:00       50.349       71.190      142.379       83.261      123.577       89.475     6932.434    15271.358     8005.808        2.904        1.510       87.196       91.777        1.108      336.678        8.139      864.938
01/23/2014  16:31:00      146.921      -37.782       86.617      146.351      202.752      115.889    21418.600    41108.328    13430.165        5.322        3.798      151.701      143.884        0.900      336.647        8.087      864.942
01/23/2014  16:32:00       96.294       24.799       98.958       98.993      150.902       91.739     9799.537    22771.328     8416.030        3.033        2.049       99.436      112.189        1.273      336.639        8.074      864.954
01/23/2014  16:33:00      226.092     -160.269        8.372      112.853      145.434       78.926    12735.810    21151.172     6229.346        5.849        2.006      277.135       78.424        0.080      336.629        8.059      864.932
01/23/2014  16:34:00      106.724       23.566      114.267      143.345      125.057       85.548    20547.776    15639.336     7318.414        3.425        2.175      109.295       90.928        0.692      336.609        8.025      864.941
01/23/2014  16:35:00       89.968       90.153      132.095      102.667      106.250       76.629    10540.439    11289.118     5871.997        3.068        1.385      127.365       66.151        0.270      336.584        7.983      864.971
01/23/2014  16:36:00       90.022      102.081      138.605       90.599      132.262       97.019     8208.239    17493.334     9412.645        3.642        1.756      136.105       94.552        0.483      336.583        7.982      864.975
01/23/2014  16:37:00       85.938       88.898      109.694      116.329      115.855      100.400    13532.489    13422.366    10080.221        3.217        1.852      123.646       94.495        0.584      336.570        7.959      865.016
01/23/2014  16:38:00       87.546       31.877       93.545      120.320       94.204       78.085    14476.992     8874.335     6097.280        2.343        1.472       93.169       75.996        0.665      336.579        7.976      865.028
01/23/2014  16:39:00       80.343       17.259       70.157       83.398       90.166       61.892     6955.261     8129.839     3830.649        1.529        0.946       82.176       68.048        0.686      336.570        7.960      865.064
01/23/2014  16:40:00       90.752       15.698       91.321      126.854      117.624       83.960    16091.973    13835.490     7049.282        2.689        1.849       92.100       80.451        0.763      336.529        7.890      865.061
01/23/2014  16:41:00       93.526      -24.576       57.226      105.470      103.538       77.164    11123.829    10720.197     5954.333        2.021        1.390       96.701       72.607        0.564      336.526        7.886      865.072
01/23/2014  16:42:00       77.229       54.040      121.717       96.232       83.439       53.227     9260.629     6962.101     2833.082        2.137        0.953       94.258       39.733        0.178      336.490        7.826      865.101
01/23/2014  16:43:00      146.238       63.854      135.663      135.898      145.192      108.315    18468.299    21080.683    11732.185        4.756        2.564      159.571      102.404        0.412      336.465        7.783      865.107
01/23/2014  16:44:00       63.246       79.435      132.060      109.102      134.721       84.500    11903.271    18149.724     7140.218        3.246        1.860      101.538       79.873        0.619      336.455        7.765      865.122
01/23/2014  16:45:00      161.533      -16.100       51.208      126.944      160.472       97.978    16114.875    25751.199     9599.694        4.021        2.573      162.333       96.511        0.353      336.459        7.771      865.131
01/23/2014  16:46:00       83.109      -83.376       30.484       84.574      127.433       68.080     7152.734    16239.043     4634.938        2.140        1.401      117.722       74.505        0.401      336.484        7.813      865.149
01/23/2014  16:47:00      123.316      -40.390       75.312      108.865      181.989      117.982    11851.657    33120.105    13919.760        4.069        2.945      129.762      123.093        0.900      336.438        7.736      865.127
01/23/2014  16:48:00       66.347      -87.725       74.709       88.200      147.534       83.063     7779.266    21766.148     6899.446        2.705        1.822      109.990       80.808        0.540      336.455        7.765      865.159
01/23/2014  16:49:00      208.162      -77.309       28.032      119.555      160.676       85.827    14293.306    25816.876     7366.292        4.878        2.374      222.054      105.129        0.224      336.399        7.671      865.194
01/23/2014  16:50:00      174.779      -48.063       74.538      140.504      136.586       86.332    19741.404    18655.867     7453.253        4.212        2.293      181.267       93.855        0.268      336.366        7.617      865.217
01/23/2014  16:51:00      153.356     -103.724       46.325      135.149      164.286       93.030    18265.382    26989.775     8654.548        4.516        2.695      185.140      109.387        0.349      336.394        7.663      865.214
01/23/2014  16:52:00      128.618      -15.244      108.122      168.915      193.348      117.144    28532.210    37383.464    13722.758        5.404        3.982      129.518      145.656        1.265      336.340        7.572      865.210
01/23/2014  16:53:00       50.184      -87.794       50.012       85.773      133.763       74.408     7357.078    17892.608     5536.620        2.175        1.539      101.125       91.160        0.813      336.379        7.640      865.255
01/23/2014  16:54:00      161.173     -131.652       30.878       90.950      190.792      104.586     8271.909    36401.673    10938.153        4.993        2.781      208.108      127.415        0.375      336.343        7.576      865.261
01/23/2014  16:55:00      178.634     -119.570       33.420      114.281      154.087       96.967    13060.099    23742.653     9402.528        4.676        2.310      214.959      102.786        0.229      336.318        7.536      865.251
01/23/2014  16:56:00       91.817      -32.855       70.410      129.061      184.225      108.679    16656.785    33939.009    11811.080        3.842        3.120       97.518      121.056        1.541      336.290        7.490      865.279
01/23/2014  16:57:00      102.990       -3.299       89.330      115.292      120.729      100.928    13292.169    14575.393    10186.449        2.832        1.903      103.042       89.419        0.753      336.224        7.379      865.266
01/23/2014  16:58:00      191.548      -59.677       90.270      161.389      154.606      115.223    26046.266    23903.142    13276.348        5.580        3.161      200.629      110.375        0.303      336.210        7.356      865.218
01/23/2014  16:59:00      112.981       16.551       93.059      127.609      129.963       84.185    16284.141    16890.486     7087.185        3.097        2.013      114.187       90.748        0.632      336.202        7.343      865.286
01/23/2014  17:00:00       31.473       16.473      131.983       81.427      176.469      129.828     6630.349    31141.137    16855.183        3.664        2.731       35.524      142.853       16.171      336.218        7.370      865.336
01/23/2014  17:01:00       86.293       12.182       90.815      121.115       94.830       72.265    14668.821     8992.683     5222.284        2.236        1.444       87.148       75.678        0.754      336.183        7.314      865.338
01/23/2014  17:02:00       45.757       59.745      118.200      101.094      126.604       83.504    10219.975    16028.508     6972.876        2.642        1.661       75.254       85.639        1.295      336.177        7.301      865.369
01/23/2014  17:03:00      107.251       93.480      123.149      102.035      134.016       93.606    10411.076    17960.389     8762.034        3.626        1.857      142.271       82.128        0.333      336.157        7.267      865.373
01/23/2014  17:04:00      185.735      120.834      138.342      116.055      112.940       94.636    13468.817    12755.536     8956.023        5.170        1.759      221.582       67.199        0.092      336.133        7.226      865.393
01/23/2014  17:05:00      151.575      157.724      160.868      133.309      123.415      106.454    17771.360    15231.199    11332.455        5.902        2.217      218.751      106.061        0.235      336.127        7.217      865.406
01/23/2014  17:06:00      124.493      138.320      159.003      101.484       99.022       88.000    10299.036     9805.450     7744.080        4.388        1.392      186.094       64.050        0.118      336.125        7.213      865.415
01/23/2014  17:07:00      135.759      148.994      153.392      179.607      159.027      118.072    32258.530    25289.525    13941.001        6.781        3.574      201.568      121.205        0.362      336.104        7.178      865.432
01/23/2014  17:08:00       68.222      -42.541       86.465      100.345      157.141       83.425    10069.207    24693.434     6959.661        2.782        2.086       80.399       81.026        1.016      336.138        7.235      865.443
01/23/2014  17:09:00      107.938       78.752      128.648      113.413      127.249       85.802    12862.553    16192.276     7361.981        3.540        1.821      133.614       92.178        0.476      336.127        7.217      865.501
01/23/2014  17:10:00      100.023       66.967      130.881      135.230      127.208       79.968    18287.204    16181.934     6394.930        3.623        2.043      120.371       96.100        0.637      336.155        7.264      865.506
01/23/2014  17:11:00       88.801       74.702      108.074      110.806       88.120       63.568    12277.939     7765.138     4040.836        2.461        1.204      116.043       52.020        0.201      336.142        7.243      865.520
01/23/2014  17:12:00       83.231       25.832      100.126       92.837      131.398       97.066     8618.637    17265.304     9421.758        2.646        1.765       87.148      105.556        1.467      336.143        7.243      865.543
01/23/2014  17:13:00      134.651       71.982      113.458      160.309      145.134      119.563    25698.828    21063.888    14295.358        4.861        3.053      152.684      116.680        0.584      336.127        7.216      865.529
01/23/2014  17:14:00      117.478      103.522      139.577      114.252      119.406       90.199    13053.631    14257.838     8135.941        3.972        1.772      156.582       79.408        0.257      336.116        7.200      865.551
01/23/2014  17:15:00      113.803       59.170      125.702       90.800      124.556       72.928     8244.700    15514.152     5318.500        3.066        1.454      128.267       74.878        0.341      336.104        7.180      865.557
01/23/2014  17:16:00       35.539       94.910      137.000       81.912       99.729       71.443     6709.631     9945.932     5104.130        2.540        1.088      101.345       67.013        0.437      336.079        7.139      865.581
01/23/2014  17:17:00      120.119       47.433       75.637      140.483       93.587       69.176    19735.476     8758.519     4785.281        2.783        1.664      129.145       61.627        0.228      336.044        7.080      865.602
01/23/2014  17:18:00      120.534      128.727      143.214      120.694      106.932       70.342    14566.961    11434.558     4947.960        4.127        1.547      176.349       58.533        0.110      336.027        7.051      865.626
01/23/2014  17:19:00      140.286       63.305      113.883      111.072       95.442       84.315    12336.990     9109.222     7109.085        3.260        1.428      153.908       72.317        0.221      336.015        7.032      865.653
01/23/2014  17:20:00       87.818       69.061       92.309       73.226      103.082       71.752     5362.112    10626.000     5148.416        2.107        1.057      111.720       69.558        0.388      336.018        7.034      865.681
01/23/2014  17:21:00      124.333       56.141       76.106       80.977       90.436       67.961     6557.315     8178.673     4618.708        2.187        0.968      136.421       66.428        0.237      335.990        6.990      865.700
01/23/2014  17:22:00      112.023       80.894      105.158       99.120       90.143       61.283     9824.696     8125.784     3755.590        2.592        1.085      138.178       61.021        0.195      335.970        6.955      865.701
01/23/2014  17:23:00      129.130      134.749      146.991       95.521       86.787       59.924     9124.177     7531.901     3590.909        3.834        1.012      186.633       42.798        0.053      335.937        6.899      865.719
01/23/2014  17:24:00       73.757       54.013       84.382       77.763       79.950       44.636     6047.026     6392.067     1992.344        1.495        0.722       91.420       37.548        0.169      335.922        6.878      865.750
01/23/2014  17:25:00       85.887       23.201       98.380       77.675      146.791       70.586     6033.397    21547.639     4982.356        2.507        1.628       88.966       75.540        0.721      335.957        6.936      865.758
01/23/2014  17:26:00      167.183      -98.399       27.732      108.903       98.104       63.514    11859.772     9624.400     4034.013        3.195        1.276      193.991       56.372        0.084      335.959        6.937      865.772
01/23/2014  17:27:00       77.419       12.959       78.650       68.166      114.533       60.977     4646.636    13117.857     3718.205        1.691        1.074       78.496       69.811        0.791      335.913        6.861      865.781
01/23/2014  17:28:00       91.533       43.082       52.406       78.580       99.040       64.275     6174.876     9808.827     4131.328        1.654        1.006      101.165       57.808        0.327      335.903        6.846      865.788
01/23/2014  17:29:00       50.254       59.623       91.979       49.416       61.333       47.097     2441.915     3761.778     2218.152        1.148        0.421       77.977       38.355        0.242      335.904        6.849      865.791
01/23/2014  17:30:00       73.558       75.536       95.841       67.958       69.061       54.677     4618.340     4769.467     2989.627        1.634        0.619      105.434       48.305        0.210      335.889        6.824      865.801
01/23/2014  17:31:00       88.044       17.924       76.883       99.329      101.220       76.601     9866.329    10245.562     5867.769        1.998        1.299       89.850       80.548        0.804      335.895        6.830      865.816
01/23/2014  17:32:00       77.290       -0.509       92.955       55.390       80.231       50.592     3068.071     6437.093     2559.596        1.334        0.603       77.291       52.527        0.462      335.913        6.863      865.829
01/23/2014  17:33:00       84.445       34.519       79.676       90.764       78.788       73.224     8238.185     6207.555     5361.738        1.724        0.990       91.227       64.625        0.502      335.924        6.881      865.839
01/23/2014  17:34:00      126.965       -1.044       65.994       97.314      106.109       70.791     9470.063    11259.106     5011.312        2.310        1.287      126.969       80.933        0.406      335.912        6.860      865.831
01/23/2014  17:35:00       49.572      -10.819       69.538       75.633      116.258       61.674     5720.359    13515.929     3803.677        1.522        1.152       50.739       70.419        1.926      335.922        6.877      865.836
01/23/2014  17:36:00      112.000      -25.503       45.325      100.981      102.558       52.239    10197.228    10518.215     2728.903        1.934        1.172      114.867       60.066        0.273      335.878        6.802      865.812
01/23/2014  17:37:00       80.674       19.351       88.775       68.414       84.192       58.616     4680.504     7088.341     3435.833        1.498        0.760       82.962       53.781        0.420      335.887        6.818      865.767
01/23/2014  17:38:00      120.783       87.904      109.373      118.668      115.867       81.229    14082.036    13425.085     6598.186        3.418        1.705      149.385       80.442        0.290      335.861        6.774      865.731
01/23/2014  17:39:00      131.744      169.520      147.036       93.365       90.933       79.600     8717.008     8268.892     6336.226        4.551        1.166      214.694       58.629        0.075      335.829        6.721      865.740
01/23/2014  17:40:00      170.140      -43.193       65.004       88.026      118.105       73.659     7748.535    13948.849     5425.680        3.108        1.356      175.537       73.117        0.173      335.862        6.775      865.746
01/23/2014  17:41:00      126.242       50.516       71.273      100.696       82.204       72.366    10139.655     6757.508     5236.878        2.285        1.107      135.974       64.811        0.227      335.843        6.745      865.749
01/23/2014  17:42:00       72.411      139.575      118.852       92.894       64.255       65.926     8629.348     4128.672     4346.266        2.797        0.855      157.240       56.605        0.130      335.838        6.735      865.743
01/23/2014  17:43:00      153.128      103.842       94.871       89.931       96.704       86.635     8087.552     9351.698     7505.640        3.408        1.247      185.017       75.187        0.165      335.817        6.699      865.726
01/23/2014  17:44:00      125.649      115.431      121.202       72.366       78.374       60.224     5236.841     6142.436     3626.916        2.940        0.750      170.622       33.030        0.037      335.802        6.676      865.684
01/23/2014  17:45:00      107.089       91.232       74.486       85.424       65.167       55.132     7297.240     4246.749     3039.485        1.996        0.729      140.682       55.385        0.155      335.759        6.606      865.647
01/23/2014  17:46:00      141.939       22.915       47.426       72.313       48.769       45.388     5229.144     2378.439     2060.052        1.629        0.483      143.776       43.269        0.091      335.723        6.547      865.624
01/23/2014  17:47:00      106.579      112.656      123.816       66.689       67.761       54.161     4447.433     4591.519     2933.453        2.567        0.599      155.082       49.248        0.101      335.740        6.573      865.628
01/23/2014  17:48:00       94.718      110.630      107.792       92.267       86.549       65.520     8513.226     7490.698     4292.864        2.656        1.015      145.638       58.472        0.161      335.734        6.562      865.628
01/23/2014  17:49:00       89.813       66.031       74.701       71.022       71.449       57.550     5044.169     5105.021     3312.000        1.573        0.673      111.474       49.628        0.198      335.688        6.490      865.640
01/23/2014  17:50:00      130.096       51.803       73.307       90.309       66.390       62.438     8155.714     4407.600     3898.448        2.072        0.823      140.030       38.082        0.074      335.675        6.466      865.639
01/23/2014  17:51:00      118.266       74.464       57.670       90.275       65.021       54.545     8149.565     4227.741     2975.199        1.910        0.768      139.756       40.358        0.083      335.650        6.425      865.634
01/23/2014  17:52:00      130.578       71.102       25.512       76.795       52.350       50.080     5897.525     2740.536     2508.029        1.695        0.557      148.681       23.467        0.025      335.619        6.372      865.651
01/23/2014  17:53:00      109.171       47.871       33.718       51.997       59.603       40.236     2703.696     3552.524     1618.906        1.161        0.394      119.206       19.952        0.028      335.594        6.333      865.658
01/23/2014  17:54:00      130.462       56.829       39.132       89.061       54.596       45.411     7931.906     2980.768     2062.169        1.738        0.649      142.302       41.942        0.087      335.615        6.364      865.674
01/23/2014  17:55:00      126.594       84.163       64.801       50.909       37.976       41.844     2591.696     1442.206     1750.952        1.655        0.289      152.018       18.947        0.016      335.607        6.353      865.666
01/23/2014  17:56:00      153.529       76.502       59.307       92.166       87.063       69.534     8494.558     7580.016     4834.990        2.692        1.045      171.533       57.321        0.112      335.676        6.467      865.666
01/23/2014  17:57:00      160.058       91.227       35.326       71.845       55.543       60.341     5161.699     3084.979     3641.059        2.354        0.594      184.230       36.126        0.038      335.608        6.353      865.661
01/23/2014  17:58:00      160.659       76.837       40.168      108.366       75.398       61.293    11743.261     5684.789     3756.796        2.725        1.059      178.088       48.582        0.074      335.608        6.353      865.667
01/23/2014  17:59:00      124.115       75.291       43.126       59.496       58.207       39.363     3539.720     3388.090     1549.462        1.570        0.424      145.166       30.846        0.045      335.577        6.304      865.690
01/23/2014  18:00:00      152.750       76.512       36.507       80.685       49.496       38.297     6510.027     2449.872     1466.663        2.047        0.521      170.840       31.705        0.034      335.553        6.264      865.710
01/23/2014  18:01:00      139.711       77.377       39.155       83.261       47.620       51.306     6932.460     2267.662     2632.276        1.943        0.592      159.707       51.871        0.105      335.567        6.285      865.724
01/23/2014  18:02:00      132.473       74.777       43.765       73.351       73.404       57.334     5380.368     5388.112     3287.153        1.955        0.703      152.121       38.427        0.064      335.588        6.320      865.732
01/23/2014  18:03:00      205.178       88.347       45.975       99.798       86.855       73.612     9959.712     7543.878     5418.705        3.747        1.146      223.390       43.234        0.037      335.611        6.357      865.752
01/23/2014  18:04:00      152.523       44.234       40.169      119.855       68.090       65.945    14365.225     4636.273     4348.726        2.509        1.168      158.808       61.733        0.151      335.639        6.405      865.751
01/23/2014  18:05:00      123.515       32.310        9.188      102.712       73.005       63.482    10549.672     5329.701     4029.977        1.814        0.995      127.671       60.334        0.223      335.659        6.440      865.755
01/23/2014  18:06:00      146.724       89.785       68.768      130.556       68.573       73.542    17044.835     4702.271     5408.475        3.073        1.358      172.016       75.081        0.191      335.677        6.469      865.768
01/23/2014  18:07:00      187.034       97.179       47.681      110.210       58.045       66.837    12146.146     3369.274     4467.149        3.334        0.999      210.774       62.195        0.087      335.672        6.460      865.776
01/23/2014  18:08:00      118.251       51.360       44.764       95.046       61.897       57.988     9033.673     3831.289     3362.633        1.742        0.811      128.923       56.939        0.195      335.677        6.469      865.781
01/23/2014  18:09:00      185.088      102.011       32.517      100.151       79.689       58.967    10030.280     6350.321     3477.141        3.279        0.993      211.338       44.070        0.043      335.675        6.463      865.803
01/23/2014  18:10:00      156.949       51.733       46.859       92.045       74.142       54.449     8472.215     5496.976     2964.727        2.322        0.847      165.255       37.431        0.051      335.649        6.423      865.823
01/23/2014  18:11:00      158.294       93.564       56.556      123.950       80.359       67.184    15363.573     6457.575     4513.693        3.167        1.317      183.878       48.709        0.070      335.674        6.463      865.841
01/23/2014  18:12:00      198.196      107.258       41.561       69.180       78.862       53.873     4785.813     6219.274     2902.266        3.321        0.695      225.357       33.906        0.023      335.673        6.461      865.849
01/23/2014  18:13:00      199.329      119.031       57.348       95.440       68.946       72.465     9108.701     4753.599     5251.203        3.815        0.956      232.165       36.635        0.025      335.668        6.452      865.876
01/23/2014  18:14:00      147.597       84.026       55.258       91.518       68.652       64.148     8375.498     4713.048     4114.922        2.455        0.860      169.839       46.885        0.076      335.650        6.424      865.898
01/23/2014  18:15:00      197.247      115.876       42.644       84.581       84.264       50.295     7153.872     7100.349     2529.612        3.546        0.839      228.766       27.949        0.015      335.607        6.351      865.900
01/23/2014  18:16:00      166.150       73.377       24.939       89.910       76.347       55.922     8083.754     5828.856     3127.230        2.532        0.852      181.632       40.062        0.049      335.592        6.327      865.910
01/23/2014  18:17:00      135.966       87.716       60.450       73.762       72.632       64.105     5440.895     5275.381     4109.467        2.233        0.741      161.805       42.761        0.070      335.567        6.284      865.932
01/23/2014  18:18:00      205.587      115.383       68.449       97.954       73.652       51.054     9595.008     5424.656     2606.501        3.894        0.881      235.752       46.017        0.038      335.563        6.277      865.941
01/23/2014  18:19:00      149.625       87.549       52.745       76.373       51.527       56.646     5832.849     2654.989     3208.745        2.226        0.585      173.356       48.746        0.079      335.571        6.292      865.938
01/23/2014  18:20:00      176.185       65.905       32.126      100.630       79.312       65.691    10126.369     6290.349     4315.342        2.857        1.037      188.108       52.613        0.078      335.592        6.326      865.961
01/23/2014  18:21:00      146.152       42.298       16.042       94.102       69.395       59.006     8855.158     4815.614     3481.740        2.028        0.858      152.149       44.422        0.085      335.554        6.263      865.978
01/23/2014  18:22:00      175.794       39.971       41.906      127.100       56.711       63.651    16154.459     3216.086     4051.454        2.884        1.171      180.281       49.471        0.075      335.513        6.195      866.013
01/23/2014  18:23:00      179.521       74.428       25.847      106.050       77.490       69.956    11246.525     6004.659     4893.830        3.029        1.107      194.338       48.920        0.063      335.512        6.193      866.032
01/23/2014  18:24:00       94.239       44.082       47.556       72.507       69.454       55.401     5257.268     4823.874     3069.324        1.312        0.658      104.040       45.721        0.193      335.491        6.158      866.039
01/23/2014  18:25:00      133.962       82.066       50.429       68.193       51.257       52.192     4650.249     2627.292     2723.990        1.861        0.500      157.101       34.483        0.048      335.491        6.160      866.054
01/23/2014  18:26:00      192.918       83.399       19.071       88.493       72.069       61.532     7830.949     5193.994     3786.192        3.067        0.841      210.173       38.048        0.033      335.510        6.188      866.093
01/23/2014  18:27:00      100.659       50.335       31.265       71.906       50.843       44.393     5170.469     2584.963     1970.718        1.168        0.486      112.542       26.712        0.056      335.514        6.197      866.133
01/23/2014  18:28:00       91.458       61.287       53.691       76.730       71.323       57.542     5887.453     5086.972     3311.031        1.464        0.714      110.094       27.323        0.062      335.578        6.306      866.152
01/23/2014  18:29:00       61.423       65.379       79.461       60.307       50.917       35.338     3636.916     2592.576     1248.761        1.092        0.374       89.707       30.778        0.118      335.598        6.338      866.171
01/23/2014  18:30:00       71.713       59.568       78.299       56.072       47.052       44.988     3144.064     2213.906     2023.901        1.110        0.369       93.226       31.839        0.117      335.601        6.344      866.209
01/23/2014  18:31:00       57.098       73.859       93.585       60.782       49.247       28.052     3694.466     2425.244      786.908        1.219        0.345       93.356       19.783        0.045      335.568        6.289      866.228
01/23/2014  18:32:00      117.461       35.520       38.471       73.252       53.971       50.770     5365.812     2912.846     2577.584        1.370        0.543      122.714       34.557        0.079      335.496        6.169      866.240
01/23/2014  18:33:00      106.138       52.170       61.669       70.171       50.786       45.670     4924.002     2579.239     2085.709        1.369        0.479      118.267       36.464        0.095      335.476        6.135      866.248
01/23/2014  18:34:00       85.567       66.704       80.115       55.350       49.104       39.286     3063.574     2411.168     1543.357        1.260        0.351      108.495       30.021        0.077      335.472        6.128      866.286
01/23/2014  18:35:00       85.816       20.074       37.756       60.027       44.046       38.015     3603.281     1940.014     1445.157        0.809        0.349       88.132       29.006        0.108      335.531        6.225      866.322
01/23/2014  18:36:00      105.341        5.649       41.724       63.903       52.566       48.289     4083.560     2763.234     2331.850        1.102        0.459      105.492       36.737        0.121      335.519        6.208      866.351
01/23/2014  18:37:00       52.764       44.062       71.695       65.308       40.513       36.857     4265.182     1641.282     1358.435        0.856        0.363       68.743       31.211        0.206      335.550        6.258      866.368
01/23/2014  18:38:00      102.570       59.965       82.591       67.516       64.626       44.817     4558.394     4176.525     2008.605        1.584        0.537      118.813       40.731        0.118      335.563        6.281      866.379
01/23/2014  18:39:00       32.840       18.754       50.233       46.938       75.901       45.036     2203.133     5760.917     2028.282        0.697        0.500       37.817       45.767        1.465      335.631        6.394      866.375
01/23/2014  18:40:00       79.840      -48.451       32.061       64.574       69.530       53.500     4169.767     4834.416     2862.237        1.081        0.593       93.392       36.236        0.151      335.646        6.419      866.386
01/23/2014  18:41:00       71.849       27.754       84.302       79.463       87.936       60.836     6314.353     7732.816     3700.995        1.539        0.887       77.024       65.499        0.723      335.676        6.468      866.401
01/23/2014  18:42:00       74.979      -21.690       48.091       90.034       81.874       62.824     8106.159     6703.428     3946.899        1.358        0.938       78.053       65.448        0.703      335.705        6.516      866.418
01/23/2014  18:43:00       92.313      -55.798       26.033       80.919      105.214       47.166     6547.960    11069.913     2224.626        1.607        0.992      107.866       49.324        0.209      335.708        6.522      866.432
01/23/2014  18:44:00      140.665      -90.367       23.600       65.463      104.743       57.051     4285.342    10971.131     3254.846        2.351        0.926      167.191       60.615        0.131      335.689        6.488      866.447
01/23/2014  18:45:00      134.837      -27.717       92.828      106.824      113.671       67.787    11411.393    12921.189     4595.046        2.824        1.446      137.656       74.890        0.296      335.655        6.432      866.443
01/23/2014  18:46:00      115.708      -13.030       69.139       87.429      123.548       72.354     7643.892    15264.214     5235.055        2.324        1.407      116.439       79.446        0.466      335.660        6.441      866.447
01/23/2014  18:47:00       90.627       33.123       89.473       87.382      108.263       67.377     7635.533    11720.812     4539.722        2.060        1.195       96.491       65.638        0.463      335.659        6.438      866.491
01/23/2014  18:48:00       82.815       56.899       61.567       87.218       93.244       59.405     7606.995     8694.422     3528.973        1.685        0.992      100.478       51.209        0.260      335.667        6.452      866.484
01/23/2014  18:49:00      161.434       22.616       49.028      128.105      109.303       69.753    16410.820    11947.110     4865.545        3.109        1.661      163.010       40.136        0.061      335.651        6.426      866.501
01/23/2014  18:50:00       82.273      -37.733       39.184       89.040       97.252       61.713     7928.048     9457.871     3808.501        1.546        1.060       90.513       61.991        0.469      335.687        6.485      866.512
01/23/2014  18:51:00      161.925       97.323      117.041      107.368      117.223       91.139    11527.935    13741.245     8306.262        4.148        1.679      188.922       70.093        0.138      335.665        6.447      866.509
01/23/2014  18:52:00       74.512       65.160       94.066       90.281       98.164       54.887     8150.615     9636.120     3012.625        1.972        1.040       98.985       47.500        0.230      335.676        6.467      866.525
01/23/2014  18:53:00      117.981      -15.456       60.091      138.678      108.008       73.387    19231.511    11665.720     5385.678        2.702        1.814      118.989       83.593        0.494      335.724        6.549      866.543
01/23/2014  18:54:00       51.320       33.276       98.754       89.295      104.771       65.328     7973.644    10976.896     4267.725        1.835        1.161       61.164       72.623        1.410      335.739        6.573      866.545
01/23/2014  18:55:00      104.369       18.402       98.532       95.224      139.828       86.680     9067.522    19551.871     7513.372        2.853        1.807      105.978       99.538        0.882      335.768        6.620      866.555
01/23/2014  18:56:00      144.078     -110.010       25.207       84.766      154.406       84.256     7185.339    23841.279     7099.026        3.580        1.906      181.275      101.506        0.314      335.782        6.644      866.576
01/23/2014  18:57:00      129.184     -143.105       17.965       99.208      127.995       78.693     9842.322    16382.628     6192.574        3.495        1.621      192.789       83.033        0.185      335.779        6.637      866.577
01/23/2014  18:58:00       55.377       61.215      123.675      122.140      149.570       92.368    14918.247    22371.161     8531.782        3.396        2.291       82.547      117.963        2.042      335.744        6.580      866.571
01/23/2014  18:59:00       96.531       18.806       83.229       98.320       92.315       62.356     9666.917     8521.980     3888.271        1.933        1.104       98.346       54.415        0.306      335.728        6.555      866.597
01/23/2014  19:00:00       81.574       18.830       88.335       82.324      149.898       78.831     6777.280    22469.423     6214.261        2.513        1.773       83.719       80.957        0.935      335.731        6.557      866.598
01/23/2014  19:01:00      129.187      -86.928       11.119       94.935       83.702       53.214     9012.585     7006.086     2831.751        2.161        0.943      155.711       55.956        0.129      335.734        6.563      866.596
01/23/2014  19:02:00      118.860       -9.893       61.573       95.558       96.468       62.793     9131.383     9306.164     3943.019        2.019        1.119      119.271       65.416        0.301      335.704        6.514      866.596
01/23/2014  19:03:00       34.174       11.773       62.718       50.099       71.244       47.337     2509.873     5075.677     2240.746        0.753        0.491       36.145       49.195        1.852      335.722        6.546      866.593
01/23/2014  19:04:00      103.540       24.041       74.378       69.252       95.274       68.797     4795.885     9077.073     4733.020        1.771        0.930      106.295       70.162        0.436      335.706        6.518      866.577
01/23/2014  19:05:00       37.210       26.045       75.916       63.177       55.373       52.346     3991.339     3066.147     2740.149        0.881        0.490       45.420       45.423        1.000      335.773        6.630      866.575
01/23/2014  19:06:00       66.114      -67.211       30.747       53.892       92.012       48.149     2904.331     8466.141     2318.304        1.176        0.684       94.278       45.237        0.230      335.769        6.622      866.547
01/23/2014  19:07:00       77.738       16.533       64.485       43.759      102.383       58.360     1914.833    10482.373     3405.922        1.314        0.790       79.476       71.396        0.807      335.719        6.540      866.540
01/23/2014  19:08:00      103.697      101.760       79.914       89.341       73.205       57.773     7981.787     5359.036     3337.742        2.208        0.834      145.286       50.703        0.122      335.684        6.479      866.564
01/23/2014  19:09:00      122.993       -4.393       51.748       82.636      101.037       55.796     6828.718    10208.437     3113.172        1.898        1.008      123.071       63.853        0.269      335.707        6.519      866.568
01/23/2014  19:10:00      108.342       35.425       83.294       83.528       95.907       75.783     6976.861     9198.112     5743.003        2.092        1.096      113.987       69.307        0.370      335.707        6.519      866.553
01/23/2014  19:11:00      112.993       12.417       40.860       75.649       62.049       51.974     5722.725     3850.023     2701.281        1.343        0.614      113.674       36.783        0.105      335.700        6.509      866.536
01/23/2014  19:12:00       87.069       54.459       72.016       77.248       66.134       60.887     5967.251     4373.703     3707.264        1.489        0.702      102.697       53.416        0.271      335.688        6.488      866.544
01/23/2014  19:13:00       48.484       39.179       72.850       59.348       61.744       44.227     3522.179     3812.275     1956.035        0.924        0.465       62.335       40.802        0.428      335.714        6.533      866.545
01/23/2014  19:14:00      102.752       -2.099       49.954       91.146       73.504       49.879     8307.623     5402.908     2487.887        1.462        0.810      102.774       52.667        0.263      335.690        6.491      866.520
01/23/2014  19:15:00       98.343       91.494       96.148       93.521       66.391       47.254     8746.208     4407.724     2232.896        2.133        0.769      134.323       30.705        0.052      335.675        6.466      866.488
01/23/2014  19:16:00       95.044       62.664       66.309       87.554       59.313       57.825     7665.661     3517.985     3343.695        1.594        0.726      113.843       50.007        0.193      335.665        6.449      866.440
01/23/2014  19:17:00      103.483       81.643      102.269       81.721       74.344       52.201     6678.246     5527.030     2724.967        2.138        0.747      131.812       48.568        0.136      335.653        6.429      866.413
01/23/2014  19:18:00       78.033       90.793      100.954       62.902       47.665       44.759     3956.627     2271.989     2003.400        1.638        0.412      119.718       32.184        0.072      335.677        6.469      866.401
01/23/2014  19:19:00       86.590       71.969       71.259       63.070       68.273       45.179     3977.879     4661.224     2041.159        1.422        0.534      112.594       32.541        0.084      335.668        6.455      866.378
01/23/2014  19:20:00      126.214       79.161       65.962       54.060       71.329       48.046     2922.434     5087.867     2308.407        1.843        0.516      148.985       44.870        0.091      335.655        6.434      866.373
01/23/2014  19:21:00      141.285       85.897       71.066       59.777       60.298       49.720     3573.274     3635.848     2472.099        2.103        0.484      165.347       35.347        0.046      335.656        6.433      866.369
01/23/2014  19:22:00       84.137       72.280       87.039      100.314       66.694       41.662    10062.878     4448.090     1735.729        1.806        0.812      110.921       42.972        0.150      335.699        6.506      866.376
01/23/2014  19:23:00       91.241      -16.924       42.842       58.788       62.204       47.185     3455.989     3869.357     2226.396        1.000        0.478       92.797       50.183        0.292      335.690        6.492      866.407
01/23/2014  19:24:00       45.620       49.099       66.687       54.808       64.067       42.159     3003.910     4104.637     1777.383        0.891        0.444       67.022       49.639        0.549      335.731        6.561      866.437
01/23/2014  19:25:00        5.857       29.824       64.777       28.161       46.339       29.457      793.062     2147.347      867.733        0.446        0.190       30.393       30.198        0.987      335.730        6.561      866.474
01/23/2014  19:26:00       38.154       15.309       52.782       39.690       39.297       30.003     1575.332     1544.221      900.185        0.425        0.201       41.111       20.074        0.238      335.721        6.544      866.512
01/23/2014  19:27:00       76.249      -46.987       15.009       60.796       66.772       47.464     3696.128     4458.535     2252.817        0.933        0.520       89.564       46.058        0.264      335.744        6.582      866.542
01/23/2014  19:28:00       43.625      -28.935       31.554       46.132       56.854       37.851     2128.118     3232.399     1432.666        0.526        0.340       52.348       37.580        0.515      335.777        6.638      866.570
01/23/2014  19:29:00      102.536     -139.040      -12.372       50.917       61.732       33.144     2592.512     3810.886     1098.508        1.875        0.375      172.759       18.325        0.011      335.781        6.642      866.575
01/23/2014  19:30:00       47.192       10.158       68.330       43.635       76.855       38.835     1904.021     5906.732     1508.151        0.816        0.466       48.273       41.341        0.733      335.708        6.523      866.593
01/23/2014  19:31:00      144.660     -127.451       -4.758       50.202       57.797       33.750     2520.273     3340.490     1139.036        2.209        0.350      192.796       29.209        0.023      335.712        6.528      866.612
01/23/2014  19:32:00       46.830       23.266       64.090       48.222       61.773       50.872     2325.397     3815.919     2587.920        0.778        0.436       52.292       50.741        0.942      335.697        6.506      866.634
01/23/2014  19:33:00      103.942     -105.892       -2.615       56.831       73.476       35.701     3229.724     5398.684     1274.534        1.596        0.495      148.382       46.468        0.098      335.757        6.603      866.657
01/23/2014  19:34:00      122.516     -155.955      -22.610       54.539       49.788       35.515     2974.456     2478.808     1261.305        2.328        0.336      198.324       23.085        0.014      335.794        6.663      866.689
01/23/2014  19:35:00      147.791     -159.397      -29.895       64.996       79.891       47.516     4224.507     6382.606     2257.815        3.050        0.643      217.369       46.463        0.046      335.784        6.645      866.712
01/23/2014  19:36:00      134.935     -139.849       -6.131      111.974       96.849       61.484    12538.260     9379.824     3780.329        3.175        1.285      194.332       62.766        0.104      335.770        6.623      866.733
01/23/2014  19:37:00      121.883     -136.513      -10.392       92.437       61.378       37.310     8544.555     3767.251     1392.027        2.365        0.685      183.006       34.559        0.036      335.792        6.659      866.750
01/23/2014  19:38:00       85.749      -54.640       20.625       76.957       58.565       32.130     5922.449     3429.872     1032.311        1.057        0.519      101.678       38.790        0.146      335.737        6.570      866.760
01/23/2014  19:39:00       64.930      -79.919       25.384       59.795       74.851       54.793     3575.475     5602.699     3002.285        1.171        0.609      102.971       46.854        0.207      335.739        6.574      866.751
01/23/2014  19:40:00       38.727       10.466       54.020       49.746       63.968       40.613     2474.642     4091.869     1649.408        0.637        0.411       40.116       38.957        0.943      335.733        6.565      866.730
01/23/2014  19:41:00       37.973      -60.933       22.388       49.486       61.675       35.502     2448.859     3803.762     1260.366        0.658        0.376       71.797       42.466        0.350      335.853        6.764      866.720
01/23/2014  19:42:00       81.607      -85.089        7.726       64.832       82.672       43.830     4203.236     6834.627     1921.111        1.346        0.648      117.898       52.864        0.201      335.778        6.638      866.723
01/23/2014  19:43:00       50.524      -47.748       25.445       72.151       77.186       56.080     5205.742     5957.661     3144.991        0.989        0.715       69.516       54.994        0.626      335.716        6.537      866.730
01/23/2014  19:44:00       30.184      -29.142       35.972       39.061       47.660       38.443     1525.801     2271.495     1477.879        0.416        0.264       41.957       35.211        0.704      335.734        6.566      866.743
01/23/2014  19:45:00       53.529      -43.644       13.966       55.865       61.962       41.096     3120.912     3839.289     1688.892        0.681        0.432       69.066       46.657        0.456      335.744        6.583      866.754
01/23/2014  19:46:00       88.669      -70.216       21.237       78.964       79.513       47.589     6235.318     6322.265     2264.710        1.403        0.741      113.104       57.154        0.255      335.754        6.598      866.765
01/23/2014  19:47:00       65.008      -58.313       29.206       64.561       88.528       64.685     4168.070     7837.256     4184.095        1.233        0.809       87.329       65.125        0.556      335.696        6.502      866.791
01/23/2014  19:48:00       -8.916        5.221       78.239       35.758       81.162       47.828     1278.650     6587.245     2287.507        0.819        0.508       10.333       42.795       17.154      335.698        6.505      866.818
01/23/2014  19:49:00       40.560      -67.319       39.206       59.312       74.959       57.742     3517.874     5618.816     3334.154        1.009        0.624       78.594       48.366        0.379      335.712        6.528      866.840
01/23/2014  19:50:00       83.458      -66.406       27.110       91.600       84.437       69.241     8390.630     7129.625     4794.364        1.621        1.016      106.654       69.841        0.429      335.658        6.436      866.870
01/23/2014  19:51:00       69.202      -62.348       24.576       71.863       95.385       75.501     5164.253     9098.232     5700.435        1.462        0.998       93.146       74.707        0.643      335.726        6.552      866.913
01/23/2014  19:52:00       79.064      -95.130        7.678       72.706       96.384       59.235     5286.173     9289.923     3508.737        1.672        0.904      123.696       65.181        0.278      335.779        6.639      866.935
01/23/2014  19:53:00      167.081     -142.528      -36.573       69.891       68.039       36.642     4884.820     4629.245     1342.654        3.021        0.543      219.614       31.319        0.020      335.676        6.467      866.956
01/23/2014  19:54:00       51.321       -4.693       58.989       94.628      114.025       78.237     8954.402    13001.721     6121.052        1.710        1.404       51.535       94.630        3.372      335.669        6.456      866.974
01/23/2014  19:55:00       63.321      -76.459       16.427       76.631       50.812       40.428     5872.304     2581.868     1634.396        1.010        0.504       99.275       41.072        0.171      335.722        6.545      866.973
01/23/2014  19:56:00       77.884      -40.671       26.483       75.303       99.208       65.103     5670.571     9842.158     4238.433        1.408        0.988       87.864       71.380        0.660      335.670        6.458      866.969
01/23/2014  19:57:00       10.390       13.254       65.813       48.737       65.306       46.497     2375.281     4264.826     2161.991        0.671        0.440       16.841       45.115        7.176      335.692        6.496      866.993
01/23/2014  19:58:00      145.586     -119.774        6.713       94.926      148.443       65.459     9010.888    22035.224     4284.911        3.545        1.767      188.523       93.569        0.246      335.699        6.504      866.999
01/23/2014  19:59:00      128.725     -127.426      -13.670       97.723       96.957       59.972     9549.700     9400.655     3596.589        2.777        1.127      181.128       65.552        0.131      335.705        6.513      867.007
01/23/2014  20:00:00       50.803      -45.451       32.242       48.539       78.137       58.214     2356.068     6105.401     3388.830        0.877        0.593       68.167       57.959        0.723      335.682        6.477      867.016
01/23/2014  20:01:00       58.999      -16.333       40.615       76.784       94.905       66.310     5895.720     9006.935     4397.073        1.234        0.965       61.218       80.221        1.717      335.675        6.467      867.037
01/23/2014  20:02:00       56.754      -26.740       62.471       70.761      127.312       79.772     5007.131    16208.430     6363.623        1.770        1.379       62.738       95.741        2.329      335.682        6.477      867.028
01/23/2014  20:03:00       46.803      -25.718       63.331       50.007       98.784       54.379     2500.672     9758.269     2957.080        1.104        0.761       53.403       65.387        1.499      335.678        6.472      867.034
01/23/2014  20:04:00       68.794      -46.726       41.031       63.670       81.974       54.573     4053.872     6719.658     2978.186        1.117        0.688       83.162       52.149        0.393      335.697        6.503      867.042
01/23/2014  20:05:00       32.429       -8.471       77.211       51.658       79.168       63.371     2668.597     6267.569     4015.946        1.002        0.648       33.517       64.744        3.731      335.701        6.511      867.078
01/23/2014  20:06:00      111.052     -132.575        1.804      107.999      111.332       55.398    11663.826    12394.710     3068.907        2.851        1.356      172.941       73.665        0.181      335.719        6.539      867.108
01/23/2014  20:07:00        9.749       37.522       84.098       45.764       66.099       43.519     2094.313     4369.075     1893.938        0.846        0.418       38.768       33.676        0.755      335.689        6.489      867.138
01/23/2014  20:08:00       65.959      -59.256       26.549       83.814       81.754       52.649     7024.808     6683.702     2771.939        1.252        0.824       88.668       66.615        0.564      335.703        6.513      867.174
01/23/2014  20:09:00       13.573       17.009       49.723       34.194       45.820       27.121     1169.257     2099.489      735.537        0.347        0.200       21.761       20.938        0.926      335.659        6.440      867.188
01/23/2014  20:10:00       53.185       54.119       99.210       51.309       76.630       53.950     2632.637     5872.228     2910.586        1.351        0.571       75.879       53.573        0.498      335.598        6.337      867.185
01/23/2014  20:11:00       91.727       72.989       73.467       85.150       68.299       50.896     7250.575     4664.740     2590.444        1.682        0.725      117.223       39.296        0.112      335.543        6.246      867.153
01/23/2014  20:12:00      113.777       72.177       73.229       70.467       54.578       55.365     4965.608     2978.748     3065.323        1.726        0.550      134.739       46.002        0.117      335.506        6.186      867.140
01/23/2014  20:13:00      112.024       50.716       43.734       62.485       52.763       44.293     3904.325     2783.920     1961.847        1.284        0.433      122.970       24.285        0.039      335.516        6.201      867.139
01/23/2014  20:14:00       50.886       17.521       80.751       55.996       64.075       48.262     3135.601     4105.639     2329.257        0.949        0.479       53.818       46.275        0.739      335.550        6.259      867.138
01/23/2014  20:15:00      103.584      112.954      118.453       94.476       88.317       61.294     8925.698     7799.867     3756.909        2.900        1.024      153.259       51.584        0.113      335.461        6.109      867.151
01/23/2014  20:16:00       99.204       90.903       77.126      101.484       81.393       67.768    10299.037     6624.888     4592.441        2.278        1.076      134.554       51.198        0.145      335.390        5.991      867.165
01/23/2014  20:17:00       82.822       67.228       51.474       56.953       46.880       44.511     3243.668     2197.710     1981.206        1.072        0.371      106.673       27.282        0.065      335.441        6.076      867.191
01/23/2014  20:18:00      123.990       45.698       61.219       75.932       60.233       57.192     5765.637     3628.018     3270.926        1.693        0.633      132.143       40.204        0.093      335.402        6.010      867.191
01/23/2014  20:19:00       80.724        0.139       52.461       51.602       77.996       41.564     2662.817     6083.313     1727.557        0.987        0.524       80.724       45.510        0.318      335.413        6.029      867.188
01/23/2014  20:20:00       71.517       79.115       86.644       62.933       53.687       48.072     3960.599     2882.266     2310.870        1.402        0.458      106.648       42.995        0.163      335.403        6.013      867.195
01/23/2014  20:21:00       17.664       37.814       60.398       35.606       54.071       37.805     1267.791     2923.699     1429.236        0.550        0.281       41.736       39.405        0.891      335.427        6.052      867.196
01/23/2014  20:22:00       75.804       22.837       31.800       60.715       40.956       38.240     3686.333     1677.415     1462.319        0.705        0.341       79.169       37.200        0.221      335.402        6.012      867.186
01/23/2014  20:23:00       48.951       34.458       35.040       50.376       48.305       39.426     2537.772     2333.379     1554.398        0.562        0.321       59.863       35.666        0.355      335.419        6.038      867.163
01/23/2014  20:24:00       98.439       52.867       38.091       54.548       45.352       28.503     2975.533     2056.828      812.447        0.989        0.292      111.737       21.460        0.037      335.378        5.972      867.157
01/23/2014  20:25:00       83.796       59.501       57.397       53.602       44.754       43.496     2873.141     2002.912     1891.865        1.031        0.338      102.772       33.164        0.104      335.333        5.897      867.175
01/23/2014  20:26:00       88.186       78.500       82.748       47.424       54.122       44.391     2249.013     2929.174     1970.569        1.397        0.357      118.064       40.245        0.116      335.326        5.883      867.198
01/23/2014  20:27:00       94.839       42.745       54.084       46.647       57.402       39.736     2175.950     3295.004     1578.989        1.040        0.352      104.027       34.991        0.113      335.380        5.975      867.219
01/23/2014  20:28:00       57.393       62.736       56.962       52.581       32.808       31.532     2764.729     1076.370      994.264        0.765        0.242       85.028       33.014        0.151      335.341        5.909      867.233
01/23/2014  20:29:00      119.636       30.693       16.841       56.348       38.439       35.642     3175.146     1477.550     1270.355        1.073        0.296      123.511       20.378        0.027      335.328        5.890      867.234
01/23/2014  20:30:00       86.985       12.531       16.369       39.807       30.272       31.184     1584.609      916.372      972.463        0.573        0.174       87.883       26.380        0.090      335.295        5.830      867.203
01/23/2014  20:31:00       72.471       51.588       -2.331       33.241       28.692       20.972     1104.932      823.248      439.830        0.514        0.118       88.957        8.260        0.009      335.278        5.802      867.184
01/23/2014  20:32:00       96.891       47.360       13.909       38.144       28.798       20.932     1454.980      829.315      438.168        0.727        0.136      107.846       16.439        0.023      335.292        5.828      867.212
01/23/2014  20:33:00       50.931       50.477       35.968       35.522       25.765       24.085     1261.793      663.849      580.068        0.447        0.125       71.707       21.557        0.090      335.300        5.841      867.244
01/23/2014  20:34:00       58.727       45.254       38.423       38.541       38.925       31.025     1485.378     1515.123      962.557        0.547        0.198       74.140       18.192        0.060      335.321        5.875      867.256
01/23/2014  20:35:00       31.736       34.463       35.144       23.186       27.934       20.145      537.606      780.311      405.833        0.258        0.086       46.850       15.301        0.107      335.303        5.847      867.247
01/23/2014  20:36:00       64.854       65.189       51.755       22.291       19.829       15.864      496.906      393.180      251.675        0.614        0.057       91.955        8.900        0.009      335.303        5.845      867.233
01/23/2014  20:37:00       71.240       54.817       40.232       29.257       19.360       15.676      855.992      374.807      245.745        0.559        0.074       89.890        8.889        0.010      335.291        5.825      867.243
01/23/2014  20:38:00       58.623       31.071       22.745       31.362       19.940       23.808      983.554      397.595      566.807        0.343        0.097       66.348       18.801        0.080      335.285        5.816      867.262
01/23/2014  20:39:00       36.618       34.442       14.340       17.541       27.325       18.096      307.679      746.681      327.478        0.206        0.069       50.270        7.442        0.022      335.284        5.816      867.248
01/23/2014  20:40:00       38.614       31.416        5.485       10.462        9.751        9.030      109.443       95.080       81.540        0.140        0.014       49.779        6.518        0.017      335.232        5.727      867.247
01/23/2014  20:41:00       26.549       34.650        8.296       10.918        9.942       13.886      119.206       98.849      192.824        0.119        0.021       43.652        6.485        0.022      335.247        5.755      867.248
01/23/2014  20:42:00       10.263       23.692       -2.035       16.188       11.194       10.489      262.051      125.313      110.027        0.058        0.025       25.820        4.378        0.029      335.238        5.738      867.252
01/23/2014  20:43:00      -47.007       17.219       -2.940       29.694       13.601        8.268      881.711      184.997       68.367        0.182        0.057       50.062       12.026        0.058      335.294        5.832      867.218
01/23/2014  20:44:00      -31.216        7.989        7.413       27.203       14.932       14.296      739.985      222.964      204.363        0.113        0.058       32.222       14.951        0.215      335.316        5.867      867.185
01/23/2014  20:45:00       11.299        0.127        3.856       26.488       10.395       14.582      701.614      108.050      212.632        0.058        0.051       11.300       14.032        1.542      335.280        5.807      867.186
01/23/2014  20:46:00       28.305       34.791        3.644       12.885       16.857       15.707      166.021      284.174      246.712        0.136        0.035       44.851        6.087        0.018      335.300        5.842      867.210
01/23/2014  20:47:00       20.549       51.210        7.340       22.095       20.663       18.177      488.178      426.939      330.386        0.217        0.062       55.179       12.525        0.052      335.263        5.779      867.211
01/23/2014  20:48:00       37.176       51.207       -3.314       26.349       20.043       13.349      694.275      401.713      178.193        0.264        0.064       63.279        6.472        0.010      335.343        5.912      867.172
01/23/2014  20:49:00      -12.171       88.457      -18.718       22.749       23.230       12.290      517.510      539.640      151.040        0.477        0.060       89.290        7.227        0.007      335.463        6.113      867.102
01/23/2014  20:50:00      -15.880       64.342       -4.331       27.251       41.472       17.411      742.599     1719.949      303.131        0.359        0.138       66.273       19.575        0.087      335.469        6.123      867.065
01/23/2014  20:51:00       26.611      161.759      -27.083       21.452       28.966       16.733      460.182      839.018      279.996        1.459        0.079      163.933       16.136        0.010      335.243        5.746      867.073
01/23/2014  20:52:00       32.002      116.741      -12.394       32.673       55.361       32.573     1067.505     3064.870     1061.029        1.000        0.260      121.048       30.877        0.065      335.171        5.626      867.086
01/23/2014  20:53:00       31.804      174.806      -18.555       29.936       35.937       28.355      896.145     1291.472      804.033        1.745        0.150      177.676       21.350        0.014      335.126        5.552      867.093
01/23/2014  20:54:00       22.982      166.670      -24.155       28.862       35.447       20.334      832.991     1256.512      413.454        1.570        0.125      168.247       17.752        0.011      335.095        5.503      867.087
01/23/2014  20:55:00       27.108      141.555      -22.569       21.324       33.197       19.133      454.708     1102.044      366.066        1.160        0.096      144.127       16.031        0.012      335.102        5.513      867.084
01/23/2014  20:56:00       33.103       98.668      -11.679       31.847       48.601       22.452     1014.206     2362.092      504.090        0.742        0.194      104.073       24.238        0.054      335.093        5.499      867.096
01/23/2014  20:57:00       39.016       65.954        0.506       30.708       41.982       23.746      942.971     1762.481      563.891        0.457        0.163       76.630       20.870        0.074      335.109        5.525      867.110
01/23/2014  20:58:00       25.132       60.882      -11.269       21.129       29.463       16.093      446.427      868.062      258.971        0.302        0.079       65.866        7.207        0.012      335.097        5.505      867.110
01/23/2014  20:59:00       22.265       61.152        6.335       22.797       28.202       22.597      519.706      795.353      510.603        0.305        0.091       65.079       19.963        0.094      335.142        5.581      867.114
01/23/2014  21:00:00      -10.861       83.401      -14.068       21.884       23.672       12.174      478.919      560.378      148.203        0.423        0.059       84.106        5.540        0.004      335.173        5.632      867.126
01/23/2014  21:01:00       -1.759      100.587      -13.812       11.823       20.608        9.831      139.795      424.694       96.656        0.549        0.033      100.603        5.787        0.003      335.176        5.637      867.153
01/23/2014  21:02:00       -8.278       82.689       -9.801       16.772       26.245       19.012      281.304      688.811      361.463        0.417        0.067       83.103       15.359        0.034      335.316        5.868      867.191
01/23/2014  21:03:00      -38.279      112.601      -16.202       27.860       27.669       17.728      776.168      765.578      314.281        0.813        0.093      118.930       15.626        0.017      335.361        5.942      867.226
01/23/2014  21:04:00       15.406       93.305      -11.335       27.457       30.493       20.924      753.904      929.839      437.827        0.560        0.106       94.569       17.922        0.036      335.322        5.878      867.264
01/23/2014  21:05:00       20.172       96.052       -4.776       32.112       30.405       24.707     1031.158      924.477      610.444        0.611        0.128       98.147       19.790        0.041      335.193        5.663      867.300
01/23/2014  21:06:00       11.058      102.490      -12.603       25.865       40.256       15.036      668.993     1620.520      226.078        0.665        0.126      103.085       15.802        0.023      335.191        5.659      867.310
01/23/2014  21:07:00       33.260      174.399      -23.879       32.001       34.346       24.603     1024.084     1179.627      605.322        1.745        0.140      177.542       16.580        0.009      335.209        5.689      867.325
01/23/2014  21:08:00        6.335      134.278       -8.792       27.398       67.373       31.968      750.641     4539.117     1021.939        1.223        0.316      134.428       37.263        0.077      335.251        5.759      867.364
01/23/2014  21:09:00       41.508       72.271        0.804       46.962       58.511       35.923     2205.417     3423.528     1290.456        0.693        0.346       83.343       24.632        0.087      335.287        5.819      867.418
01/23/2014  21:10:00       21.245       60.518       -6.823       28.577       36.622       21.152      816.617     1341.194      447.409        0.338        0.130       64.139       20.543        0.103      335.300        5.841      867.462
01/23/2014  21:11:00      -26.370       43.891       -1.924       40.488       23.422       17.054     1639.272      548.570      290.831        0.255        0.124       51.204       16.166        0.100      335.373        5.962      867.472
01/23/2014  21:12:00       -8.573       28.980        9.970       25.533       36.148       20.965      651.923     1306.695      439.543        0.170        0.120       30.222       22.870        0.573      335.391        5.993      867.493
01/23/2014  21:13:00       12.677       80.737       -8.365       24.977       47.951       24.836      623.831     2299.296      616.823        0.514        0.177       81.726       18.397        0.051      335.456        6.102      867.524
01/23/2014  21:14:00       32.690       75.752       -1.474       26.040       48.408       27.063      678.082     2343.294      732.411        0.528        0.188       82.505       27.440        0.111      335.363        5.946      867.567
01/23/2014  21:15:00       83.624       59.203       -3.970       28.875       23.465       21.429      833.790      550.602      459.216        0.618        0.092      102.460       14.302        0.019      335.269        5.790      867.616
01/23/2014  21:16:00       91.421       44.973        4.706       23.890       22.558       18.825      570.712      508.872      354.399        0.592        0.072      101.884       15.636        0.024      335.213        5.696      867.654
01/23/2014  21:17:00       84.142       55.697       12.414       22.048       20.148       23.343      486.117      405.926      544.889        0.589        0.072      100.906        9.450        0.009      335.203        5.680      867.680
01/23/2014  21:18:00       78.471       51.226       -5.120       53.622       31.155       23.446     2875.271      970.611      549.700        0.660        0.220       93.712       15.512        0.027      335.229        5.723      867.705
01/23/2014  21:19:00       47.703       81.716       -2.688       33.702       49.125       25.314     1135.829     2413.288      640.792        0.657        0.209       94.621       21.013        0.049      335.198        5.672      867.715
01/23/2014  21:20:00       69.511       77.752       -5.305       48.692       37.944       26.215     2370.939     1439.774      687.202        0.770        0.225      104.294       20.228        0.038      335.184        5.648      867.737
01/23/2014  21:21:00       69.784       56.170        2.554       29.872       30.582       24.589      892.335      935.243      604.613        0.523        0.122       89.582       20.923        0.055      335.201        5.678      867.767
01/23/2014  21:22:00       64.901       79.550       -6.029       41.331       29.905       34.199     1708.241      894.299     1169.567        0.717        0.189      102.666       17.816        0.030      335.200        5.677      867.796
01/23/2014  21:23:00      141.163       85.711        7.940       40.412       29.755       29.203     1633.120      885.383      852.796        1.535        0.169      165.146       19.288        0.014      335.156        5.602      867.799
01/23/2014  21:24:00      138.351       86.734       14.034       53.593       51.101       34.185     2872.230     2611.261     1168.613        1.676        0.333      163.290       20.324        0.015      335.154        5.598      867.775
01/23/2014  21:25:00       74.590       72.271       12.516       59.459       42.172       40.917     3535.420     1778.451     1674.237        0.896        0.349      103.859       27.578        0.071      335.151        5.594      867.735
01/23/2014  21:26:00       83.092       95.000        6.785       73.556       62.661       47.801     5410.475     3926.383     2284.950        1.380        0.581      126.211       40.508        0.103      335.163        5.612      867.705
01/23/2014  21:27:00       35.948      100.908       -7.184       54.423       63.308       46.882     2961.888     4007.863     2197.879        1.035        0.458      107.120       39.483        0.136      335.154        5.600      867.667
01/23/2014  21:28:00       -1.728      167.493      -25.028       31.832       51.556       24.542     1013.295     2658.068      602.298        1.648        0.214      167.502       23.785        0.020      335.133        5.566      867.664
01/23/2014  21:29:00       38.016      121.060        0.151       63.465       86.882       53.797     4027.749     7548.435     2894.156        1.528        0.724      126.889       54.294        0.183      335.130        5.560      867.692
01/23/2014  21:30:00       43.627       86.789       -2.715       51.710       46.975       41.397     2673.936     2206.645     1713.753        0.802        0.330       97.138       35.024        0.130      335.087        5.490      867.753
01/23/2014  21:31:00       72.841      127.582      -19.164       60.538       83.151       46.106     3664.900     6914.035     2125.785        1.732        0.635      146.911       51.800        0.124      335.095        5.503      867.803
01/23/2014  21:32:00       61.938      138.962      -22.052       36.743       77.585       37.236     1350.014     6019.408     1386.505        1.619        0.438      152.141       33.192        0.048      335.107        5.522      867.831
01/23/2014  21:33:00       44.298      131.994      -21.294       33.178       53.840       31.548     1100.808     2898.766      995.264        1.242        0.250      139.229       29.454        0.045      335.122        5.548      867.855
01/23/2014  21:34:00       19.523      126.741       -6.275       45.650       65.068       39.012     2083.890     4233.866     1521.901        1.216        0.392      128.236       32.374        0.064      335.099        5.507      867.874
01/23/2014  21:35:00       39.179      121.390       -4.801       53.048       65.638       38.645     2814.129     4308.313     1493.446        1.245        0.431      127.556       37.215        0.085      335.106        5.519      867.879
01/23/2014  21:36:00       25.810      114.696       -3.503       56.664       72.369       42.524     3210.757     5237.334     1808.302        1.204        0.513      117.564       39.515        0.113      335.134        5.567      867.889
01/23/2014  21:37:00       17.968      141.673      -13.769       44.145       64.460       31.145     1948.745     4155.080      970.039        1.383        0.354      142.808       32.868        0.053      335.159        5.608      867.899
01/23/2014  21:38:00        6.758      105.488       -0.522       37.319       53.639       34.460     1392.728     2877.161     1187.478        0.831        0.273      105.704       34.648        0.107      335.235        5.735      867.921
01/23/2014  21:39:00        5.806      113.192       -9.554       32.568       36.260       25.061     1060.672     1314.806      628.048        0.797        0.150      113.341       20.043        0.031      335.222        5.711      867.937
01/23/2014  21:40:00      -33.275       70.435        2.062       29.991       39.624       22.423      899.451     1570.064      502.775        0.452        0.149       77.900       23.952        0.095      335.365        5.951      867.945
01/23/2014  21:41:00      -14.004       66.216       -9.263       22.112       45.706       19.963      488.939     2089.010      398.534        0.382        0.149       67.681       23.920        0.125      335.312        5.860      867.959
01/23/2014  21:42:00      -46.936       74.189      -11.280       35.406       25.546       18.984     1253.610      652.579      360.386        0.505        0.113       87.789       16.422        0.035      335.385        5.983      867.954
01/23/2014  21:43:00      -49.792       83.658      -14.917       27.807       35.395       19.944      773.236     1252.806      397.745        0.606        0.121       97.355       16.662        0.029      335.385        5.985      867.947
01/23/2014  21:44:00      -45.864       94.167      -14.305       31.495       34.045       20.791      991.964     1159.079      432.271        0.688        0.129      104.742       14.808        0.020      335.427        6.052      867.946
01/23/2014  21:45:00      -17.843      125.034      -15.226       28.800       26.059       16.671      829.431      679.069      277.920        0.898        0.089      126.301       10.188        0.007      335.530        6.225      867.941
01/23/2014  21:46:00      -17.360       80.952        3.833       19.084       48.245       20.753      364.194     2327.596      430.703        0.500        0.156       82.792       23.142        0.078      335.523        6.213      867.944
01/23/2014  21:47:00      -35.605      126.320      -22.419       33.483       29.158       17.789     1121.111      850.183      316.433        1.001        0.114      131.242       17.866        0.019      335.516        6.201      867.957
01/23/2014  21:48:00      -25.215       62.094      -13.187       33.146       36.657       17.658     1098.665     1343.725      311.804        0.371        0.138       67.018       14.365        0.046      335.549        6.257      867.979
01/23/2014  21:49:00      -13.328       99.427      -10.846       29.121       32.453       24.615      848.029     1053.222      605.883        0.634        0.125      100.316       22.258        0.049      335.507        6.186      868.000
01/23/2014  21:50:00      -22.311      122.760      -16.377       30.024       29.717       21.173      901.440      883.126      448.278        0.903        0.112      124.771       12.927        0.011      335.504        6.182      868.018
01/23/2014  21:51:00      -45.428       81.971       -3.880       34.007       34.617       21.799     1156.455     1198.344      475.191        0.581        0.141       93.717       15.799        0.028      335.600        6.343      868.023
01/23/2014  21:52:00      -40.316      104.772      -16.543       30.339       40.695       25.842      920.485     1656.120      667.805        0.806        0.162      112.261       25.530        0.052      335.631        6.393      868.019
01/23/2014  21:53:00      -20.221       90.002       -5.179       26.790       34.392       22.429      717.730     1182.779      503.079        0.547        0.120       92.246       23.034        0.062      335.709        6.524      868.023
01/23/2014  21:54:00       -1.301       67.361        2.854       29.288       37.971       20.502      857.791     1441.804      420.318        0.363        0.136       67.374       20.366        0.091      335.666        6.453      868.052
01/23/2014  21:55:00       19.130       34.826       -0.622       22.289       27.930       25.384      496.783      780.069      644.362        0.175        0.096       39.734       21.450        0.291      335.480        6.142      868.068
01/23/2014  21:56:00        6.731      106.588      -20.248       17.221       23.237       12.146      296.550      539.969      147.525        0.640        0.049      106.801       12.791        0.014      335.448        6.089      868.061
01/23/2014  21:57:00       10.964       98.290      -18.164       15.893       17.995        8.013      252.589      323.812       64.202        0.538        0.032       98.900        5.110        0.003      335.431        6.059      868.052
01/23/2014  21:58:00        0.751       75.107      -12.000       15.687       17.428       12.923      246.071      303.731      167.002        0.325        0.036       75.110       12.173        0.026      335.457        6.102      868.058
01/23/2014  21:59:00       -0.130      111.829      -15.205       26.301       28.968       20.178      691.724      839.172      407.141        0.734        0.097      111.829       18.671        0.028      335.489        6.157      868.069
01/23/2014  22:00:00        6.352       87.618      -11.355       20.782       17.969       10.627      431.900      322.873      112.934        0.436        0.043       87.848        5.561        0.004      335.543        6.246      868.073
01/23/2014  22:01:00       -6.795       68.733       -6.254       25.351       31.115       15.387      642.661      968.132      236.750        0.333        0.092       69.068       16.186        0.055      335.550        6.259      868.080
01/23/2014  22:02:00        5.334      110.117      -14.006       18.867       27.495       14.828      355.955      755.970      219.859        0.684        0.067      110.246        7.138        0.004      335.524        6.214      868.093
01/23/2014  22:03:00       20.974       95.542       -8.520       22.771       23.121       20.913      518.540      534.578      437.345        0.557        0.075       97.817       18.945        0.038      335.511        6.192      868.103
01/23/2014  22:04:00       21.508       68.659       -8.140       19.188       27.362       14.740      368.161      748.691      217.278        0.329        0.067       71.949       13.547        0.035      335.479        6.139      868.118
01/23/2014  22:05:00       26.761       85.040      -10.853       25.205       31.887       19.907      635.311     1016.810      396.283        0.506        0.102       89.152       21.542        0.058      335.456        6.102      868.119
01/23/2014  22:06:00       21.930      110.633      -17.408       20.320       22.465       11.409      412.889      504.677      130.161        0.704        0.052      112.786        7.827        0.005      335.469        6.123      868.115
01/23/2014  22:07:00       37.709       79.795       -0.980       32.516       48.021       25.797     1057.290     2305.996      665.471        0.591        0.201       88.257       28.096        0.101      335.463        6.114      868.107
01/23/2014  22:08:00       38.386       64.942       -1.507       29.216       32.777       22.854      853.584     1074.338      522.288        0.407        0.123       75.438       20.012        0.070      335.441        6.076      868.102
01/23/2014  22:09:00       18.591       34.768        8.471       27.325       25.252       17.741      746.678      637.678      314.749        0.166        0.085       39.427       12.894        0.107      335.449        6.090      868.088
01/23/2014  22:10:00       20.510       78.201      -10.310       28.380       43.483       21.472      805.410     1890.756      461.029        0.490        0.158       80.846       19.016        0.055      335.467        6.121      868.090
01/23/2014  22:11:00        6.451       98.006       -6.724       21.162       37.984       20.582      447.820     1442.800      423.605        0.600        0.116       98.218       24.374        0.062      335.522        6.212      868.097
01/23/2014  22:12:00        6.342      102.506      -10.633       25.788       52.374       22.773      665.021     2742.993      518.587        0.729        0.196      102.702       27.112        0.070      335.499        6.174      868.110
01/23/2014  22:13:00       20.103      146.598      -26.342       29.047       31.378       16.597      843.749      984.581      275.468        1.235        0.105      147.969       14.721        0.010      335.513        6.198      868.124
01/23/2014  22:14:00        2.655      138.107      -17.101       21.524       22.725       15.834      463.304      516.444      250.707        1.030        0.062      138.132       12.152        0.008      335.507        6.186      868.134
01/23/2014  22:15:00       25.804      123.357      -17.219       26.779       33.094       18.826      717.106     1095.230      354.432        0.917        0.108      126.027       16.276        0.017      335.495        6.168      868.146
01/23/2014  22:16:00        6.015       88.969      -14.005       31.798       33.377       16.201     1011.136     1114.040      262.483        0.527        0.119       89.172       19.400        0.047      335.533        6.229      868.157
01/23/2014  22:17:00        3.793       92.508      -13.521       21.138       31.039       13.821      446.836      963.443      191.017        0.518        0.080       92.586       16.556        0.032      335.509        6.191      868.164
01/23/2014  22:18:00       21.371       73.020       -6.046       18.698       33.442       20.035      349.610     1118.373      401.398        0.385        0.093       76.084       22.115        0.084      335.494        6.164      868.176
01/23/2014  22:19:00       29.774       48.177       -1.989       23.132       30.189       22.872      535.089      911.376      523.110        0.259        0.098       56.635       19.739        0.121      335.488        6.155      868.193
01/23/2014  22:20:00       50.524       49.719        8.437       30.742       27.156       23.227      945.060      737.441      539.500        0.366        0.111       70.885       19.275        0.074      335.472        6.129      868.211
01/23/2014  22:21:00       47.307       81.590       -3.693       29.448       40.455       30.319      867.164     1636.596      919.254        0.617        0.171       94.312       25.586        0.074      335.477        6.137      868.226
01/23/2014  22:22:00       61.902       67.393        2.399       45.264       40.470       37.112     2048.865     1637.857     1377.297        0.672        0.253       91.508       30.349        0.110      335.497        6.172      868.244
01/23/2014  22:23:00       89.187       64.913        3.978       48.025       27.014       29.251     2306.436      729.742      855.606        0.804        0.195      110.309       17.511        0.025      335.480        6.142      868.271
01/23/2014  22:24:00      106.337       73.080       11.830       37.175       36.709       35.667     1382.018     1347.523     1272.125        1.039        0.200      129.028       27.702        0.046      335.521        6.210      868.290
01/23/2014  22:25:00       84.475       63.932        8.930       42.006       28.295       27.406     1764.474      800.611      751.107        0.731        0.166      105.940       17.312        0.027      335.513        6.197      868.314
01/23/2014  22:26:00       58.456       55.086        5.930       45.054       30.389       25.548     2029.845      923.476      652.676        0.505        0.180       80.322       16.657        0.043      335.499        6.172      868.334
01/23/2014  22:27:00       99.349       62.966       11.578       33.554       28.740       26.963     1125.901      826.004      726.982        0.832        0.134      117.622       17.472        0.022      335.511        6.194      868.355
01/23/2014  22:28:00       79.398       44.414       12.562       26.246       24.340       32.328      688.852      592.446     1045.102        0.538        0.116       90.976       17.317        0.036      335.472        6.128      868.377
01/23/2014  22:29:00      119.987       54.624       19.113       36.725       29.563       24.591     1348.724      873.991      604.700        1.029        0.141      131.836       21.172        0.026      335.533        6.230      868.391
01/23/2014  22:30:00       51.687       33.489       11.529       51.168       27.912       20.022     2618.183      779.070      400.883        0.386        0.190       61.588       10.631        0.030      335.486        6.152      868.402
01/23/2014  22:31:00       67.349       52.126       30.468       50.280       32.909       23.113     2528.120     1082.980      534.203        0.616        0.207       85.165       14.788        0.030      335.509        6.190      868.411
01/23/2014  22:32:00       74.892       43.543       21.821       57.349       38.139       30.019     3288.885     1454.608      901.161        0.681        0.282       86.630       22.144        0.065      335.560        6.277      868.431
01/23/2014  22:33:00       67.805       67.444        0.308       55.855       45.214       35.974     3119.834     2044.273     1294.107        0.780        0.323       95.636       30.731        0.103      335.529        6.223      868.454
01/23/2014  22:34:00       76.324       56.484       -0.927       54.188       48.861       24.862     2936.331     2387.390      618.098        0.748        0.297       94.952       30.541        0.103      335.507        6.186      868.473
01/23/2014  22:35:00       69.643       49.352       14.386       64.306       33.919       27.771     4135.260     1150.479      771.255        0.677        0.303       85.357       19.305        0.051      335.516        6.202      868.489
01/23/2014  22:36:00       45.343       86.155       -3.681       52.898       76.048       37.605     2798.176     5783.246     1414.161        0.974        0.500       97.358       42.393        0.190      335.535        6.233      868.492
01/23/2014  22:37:00       57.925       54.989       15.329       36.826       38.526       36.315     1356.144     1484.262     1318.752        0.539        0.208       79.870       29.355        0.135      335.523        6.214      868.490
01/23/2014  22:38:00       65.315       67.330        8.321       46.828       38.613       33.215     2192.861     1490.966     1103.259        0.683        0.239       93.805       24.808        0.070      335.517        6.203      868.503
01/23/2014  22:39:00       77.452      104.708        9.831       69.706       50.266       45.786     4858.966     2526.624     2096.402        1.327        0.474      130.240       32.700        0.063      335.530        6.225      868.522
01/23/2014  22:40:00       53.658       87.911      -11.416       60.017       44.837       28.400     3602.018     2010.349      806.570        0.858        0.321      102.993       24.692        0.057      335.547        6.253      868.550
01/23/2014  22:41:00       96.607       71.991        4.786       58.553       36.196       28.333     3428.412     1310.174      802.779        1.004        0.277      120.481       22.427        0.035      335.530        6.223      868.571
01/23/2014  22:42:00       61.119       61.034       -0.972       53.945       34.030       27.843     2910.103     1158.029      775.226        0.615        0.242       86.376       13.690        0.025      335.520        6.209      868.588
01/23/2014  22:43:00       62.878       76.445       -1.699       43.707       48.822       32.924     1910.278     2383.612     1083.987        0.759        0.269       98.982       30.782        0.097      335.532        6.229      868.598
01/23/2014  22:44:00       76.837       63.488       10.400       43.348       39.278       30.912     1879.029     1542.732      955.559        0.721        0.219       99.672       26.470        0.071      335.522        6.211      868.610
01/23/2014  22:45:00       65.236       68.184       -8.991       44.653       36.993       22.824     1993.934     1368.473      520.934        0.643        0.194       94.365       19.713        0.044      335.559        6.273      868.625
01/23/2014  22:46:00       90.819       72.532       13.516       48.115       45.901       38.662     2315.099     2106.871     1494.761        0.980        0.296      116.228       30.054        0.067      335.564        6.282      868.654
01/23/2014  22:47:00      145.274       68.980       16.054       68.406       53.964       40.381     4679.419     2912.096     1630.598        1.767        0.461      160.819       17.843        0.012      335.566        6.285      868.674
01/23/2014  22:48:00      155.130       89.044       22.130       86.368       41.845       35.614     7459.443     1750.991     1268.336        2.148        0.524      178.869       19.317        0.012      335.584        6.313      868.701
01/23/2014  22:49:00      129.102       79.389       24.500       60.118       56.520       46.701     3614.213     3194.527     2180.963        1.628        0.449      151.559       23.753        0.025      335.590        6.325      868.718
01/23/2014  22:50:00       95.275       64.797       30.960       51.919       32.051       35.510     2695.627     1027.264     1260.954        0.961        0.249      115.221       27.635        0.058      335.543        6.248      868.736
01/23/2014  22:51:00       64.375       38.422       21.370       36.828       35.451       29.496     1356.289     1256.774      870.037        0.478        0.174       74.970       16.330        0.047      335.549        6.256      868.737
01/23/2014  22:52:00       71.334       44.684       11.821       41.950       33.136       28.010     1759.786     1098.027      784.586        0.543        0.182       84.173       20.053        0.057      335.537        6.238      868.722
01/23/2014  22:53:00      106.278       71.836        9.132       40.148       30.408       26.064     1611.846      924.640      679.320        0.988        0.161      128.278       16.822        0.017      335.530        6.228      868.701
01/23/2014  22:54:00       97.707       71.162       15.733       47.296       32.289       36.209     2236.949     1042.573     1311.070        0.972        0.230      120.875       24.084        0.040      335.563        6.280      868.684
01/23/2014  22:55:00       72.929       41.179        6.075       46.916       40.227       24.811     2201.093     1618.230      615.601        0.574        0.222       83.752       14.880        0.032      335.544        6.247      868.688
01/23/2014  22:56:00       79.288       32.392       17.324       53.929       39.006       32.034     2908.377     1521.506     1026.200        0.654        0.273       85.650       25.386        0.088      335.579        6.307      868.681
01/23/2014  22:57:00      106.031       54.940       14.674       36.650       35.279       32.289     1343.213     1244.626     1042.585        0.905        0.182      119.419       23.126        0.038      335.560        6.275      868.689
01/23/2014  22:58:00       46.409       25.546       13.547       65.556       47.410       35.021     4297.529     2247.703     1226.445        0.538        0.389       52.975       24.231        0.209      335.552        6.261      868.697
01/23/2014  22:59:00      116.493       83.044       18.978       51.631       34.660       31.371     2665.760     1201.298      984.117        1.284        0.243      143.063       13.695        0.009      335.548        6.254      868.705
01/23/2014  23:00:00       70.276       80.004       -5.883       58.092       54.526       37.528     3374.672     2973.035     1408.374        0.956        0.388      106.486       29.221        0.075      335.571        6.296      868.716
01/23/2014  23:01:00       79.554       58.731       11.425       40.041       35.502       35.956     1603.311     1260.374     1292.852        0.703        0.208       98.884       24.672        0.062      335.566        6.286      868.735
01/23/2014  23:02:00       87.747       57.930        1.592       35.629       30.477       25.200     1269.391      928.827      635.058        0.695        0.142      105.145        3.415        0.001      335.550        6.259      868.753
01/23/2014  23:03:00       49.419       38.786       22.996       51.024       38.965       29.582     2603.449     1518.258      875.103        0.474        0.250       62.822       28.488        0.206      335.568        6.289      868.758
01/23/2014  23:04:00       33.057        3.086       16.747       22.890       21.900       18.650      523.969      479.592      347.822        0.137        0.068       33.201        9.522        0.082      335.572        6.294      868.767
01/23/2014  23:05:00       50.152       37.095       19.517       22.524       26.600       22.632      507.321      707.560      512.203        0.300        0.086       62.380       12.329        0.039      335.524        6.215      868.772
01/23/2014  23:06:00       51.748       33.206       16.553       21.105       21.666       19.711      445.403      469.432      388.543        0.268        0.065       61.486       10.740        0.031      335.546        6.251      868.768
01/23/2014  23:07:00       64.902       32.945       22.391       37.175       25.044       23.702     1382.003      627.184      561.795        0.418        0.129       72.784       21.050        0.084      335.573        6.296      868.757
01/23/2014  23:08:00       76.083       55.172       18.723       28.408       18.815       19.233      807.030      354.003      369.919        0.536        0.077       93.982        9.170        0.010      335.542        6.244      868.751
01/23/2014  23:09:00       94.799       62.660       33.098       33.530       25.993       30.774     1124.286      675.652      947.057        0.838        0.137      113.636       23.381        0.042      335.555        6.268      868.755
01/23/2014  23:10:00       90.811       51.304       29.918       32.306       24.702       24.189     1043.656      610.213      585.089        0.701        0.112      104.301       15.404        0.022      335.557        6.269      868.748
01/23/2014  23:11:00      114.118       59.591       23.683       45.984       33.915       27.053     2114.536     1150.212      731.891        1.057        0.200      128.740       19.883        0.024      335.559        6.273      868.752
01/23/2014  23:12:00       56.861       31.707       17.034       46.812       32.605       22.227     2191.374     1063.077      494.026        0.414        0.187       65.103       22.641        0.121      335.526        6.218      868.766
01/23/2014  23:13:00       95.476       40.466       17.466       37.282       24.371       22.368     1389.980      593.939      500.338        0.677        0.124      103.698       14.205        0.019      335.503        6.180      868.783
01/23/2014  23:14:00      107.027       70.788        4.023       40.957       43.897       23.426     1677.505     1926.962      548.762        1.032        0.208      128.319       20.366        0.025      335.492        6.161      868.798
01/23/2014  23:15:00      111.084       79.950        9.863       32.005       32.205       25.032     1024.306     1037.132      626.590        1.076        0.134      136.864       16.568        0.015      335.495        6.167      868.813
01/23/2014  23:16:00      119.170       74.786        9.228       54.316       56.269       44.775     2950.276     3166.228     2004.821        1.400        0.406      140.693       30.829        0.048      335.527        6.219      868.824
01/23/2014  23:17:00      120.525       64.757       11.641       61.531       35.618       35.096     3786.099     1268.621     1231.749        1.257        0.314      136.820       31.758        0.054      335.558        6.273      868.836
01/23/2014  23:18:00      127.044       66.053       22.913       50.311       27.554       27.029     2531.173      759.215      730.592        1.252        0.201      143.189       15.495        0.012      335.504        6.181      868.857
01/23/2014  23:19:00      138.694       77.147       36.493       49.667       36.178       31.167     2466.804     1308.839      971.399        1.563        0.237      158.706       28.706        0.033      335.509        6.192      868.880
01/23/2014  23:20:00       75.742       26.977       19.030       43.285       34.177       27.054     1873.585     1168.101      731.943        0.530        0.189       80.403       13.387        0.028      335.495        6.166      868.894
01/23/2014  23:21:00       70.761       19.714        7.393       46.175       30.605       28.730     2132.095      936.673      825.395        0.467        0.195       73.456       20.737        0.080      335.493        6.164      868.893
01/23/2014  23:22:00       93.800       51.220       26.033       39.626       36.392       31.153     1570.223     1324.372      970.495        0.798        0.193      106.873       19.870        0.035      335.494        6.164      868.906
01/23/2014  23:23:00       49.817       65.245       57.455       33.067       26.839       23.513     1093.402      720.306      552.850        0.620        0.118       82.089        8.153        0.010      335.475        6.133      868.933
01/23/2014  23:24:00       50.297       26.585       39.810       30.836       33.763       27.426      950.862     1139.968      752.187        0.383        0.142       56.891       20.554        0.131      335.500        6.175      868.951
01/23/2014  23:25:00       34.411       26.908       40.085       33.086       32.723       19.790     1094.712     1070.762      391.636        0.304        0.128       43.682       20.613        0.223      335.512        6.195      868.956
01/23/2014  23:26:00       55.299       18.076        8.730       32.140       22.049       24.854     1032.978      486.138      617.740        0.280        0.107       58.178       20.083        0.119      335.490        6.159      868.957
01/23/2014  23:27:00       75.319       41.044       26.935       26.696       21.351       20.821      712.666      455.864      433.510        0.484        0.080       85.776       11.009        0.016      335.451        6.092      868.962
01/23/2014  23:28:00       37.820       17.333       15.294       24.910       15.160       17.797      620.527      229.820      316.744        0.157        0.058       41.602       15.358        0.136      335.467        6.119      868.968
01/23/2014  23:29:00       35.232       30.924       22.375       21.239       16.826       14.268      451.080      283.122      203.582        0.182        0.047       46.878        6.252        0.018      335.508        6.189      868.970
01/23/2014  23:30:00       45.982       32.308        1.390       14.502       11.100       12.745      210.304      123.208      162.428        0.183        0.025       56.198        5.422        0.009      335.459        6.106      868.972
01/23/2014  23:31:00       77.262       56.726       13.853       20.025       19.191       16.476      401.009      368.307      271.474        0.521        0.052       95.850        8.977        0.009      335.434        6.066      868.994
01/23/2014  23:32:00       70.071       59.960       33.836       42.730       25.102       28.897     1825.868      630.129      835.028        0.647        0.165       92.224       24.043        0.068      335.430        6.058      869.018
01/23/2014  23:33:00       97.264       52.045       25.463       22.914       21.427       27.430      525.069      459.105      752.424        0.728        0.087      110.313       17.137        0.024      335.421        6.043      869.035
01/23/2014  23:34:00       91.936       50.580       -0.325       31.881       30.906       18.168     1016.388      955.177      330.072        0.666        0.115      104.932        4.864        0.002      335.349        5.921      869.043
01/23/2014  23:35:00      103.511       50.394        6.393       36.417       29.414       19.000     1326.202      865.195      360.989        0.792        0.128      115.126       16.708        0.021      335.336        5.901      869.065
01/23/2014  23:36:00       96.888       67.891       19.437       24.884       25.763       20.569      619.227      663.729      423.071        0.804        0.085      118.307       11.901        0.010      335.329        5.889      869.080
01/23/2014  23:37:00       93.111       62.314       24.636       40.643       28.628       32.235     1651.878      819.537     1039.098        0.833        0.176      112.039       18.486        0.027      335.305        5.848      869.080
01/23/2014  23:38:00       51.802       48.376       21.789       57.041       33.822       35.712     3253.663     1143.908     1275.377        0.558        0.284       70.878       21.567        0.093      335.337        5.903      869.069
01/23/2014  23:39:00      136.465       79.279        6.699       46.093       34.566       35.872     2124.592     1194.827     1286.805        1.478        0.230      157.822       23.925        0.023      335.327        5.886      869.077
01/23/2014  23:40:00      114.128       70.933        5.213       39.644       37.769       33.742     1571.607     1426.485     1138.552        1.111        0.207      134.375       21.043        0.025      335.296        5.834      869.095
01/23/2014  23:41:00      124.420       68.441       26.622       59.381       50.168       34.908     3526.085     2516.822     1218.597        1.407        0.363      142.002       18.227        0.016      335.334        5.896      869.100
01/23/2014  23:42:00      122.778       91.522       20.531       44.501       37.338       43.660     1980.309     1394.116     1906.191        1.458        0.264      153.136       24.244        0.025      335.388        5.987      869.102
01/23/2014  23:43:00      143.888       68.953       35.922       53.272       41.946       40.799     2837.935     1759.443     1664.546        1.650        0.313      159.557       23.172        0.021      335.365        5.948      869.110
01/23/2014  23:44:00      135.201       76.210       25.011       27.823       25.721       31.457      774.120      661.583      989.519        1.357        0.121      155.201       20.644        0.018      335.324        5.881      869.120
01/23/2014  23:45:00       80.964       67.483       20.230       52.321       26.321       29.275     2737.479      692.788      857.010        0.790        0.214      105.400       19.271        0.033      335.286        5.819      869.132
01/23/2014  23:46:00       84.107       52.195       26.906       46.297       47.689       30.235     2143.415     2274.222      914.157        0.793        0.267       98.987       23.670        0.057      335.300        5.840      869.135
01/23/2014  23:47:00      167.871       95.638       39.049       58.017       48.343       44.911     3365.953     2337.089     2017.008        2.328        0.386      193.202       35.374        0.034      335.303        5.844      869.130
01/23/2014  23:48:00      155.540       59.506       17.886       52.205       47.332       34.560     2725.321     2240.300     1194.368        1.711        0.308      166.535       14.949        0.008      335.265        5.781      869.126
01/23/2014  23:49:00       80.948       30.072        1.556       56.700       44.457       29.377     3214.932     1976.438      863.004        0.676        0.303       86.353       23.052        0.071      335.293        5.828      869.111
01/23/2014  23:50:00       68.380       23.393        4.579       36.036       38.914       22.363     1298.598     1514.300      500.085        0.428        0.166       72.271       18.799        0.068      335.271        5.793      869.109
01/23/2014  23:51:00       64.163       28.878       16.430       31.680       27.289       21.379     1003.650      744.689      457.045        0.371        0.110       70.362       14.292        0.041      335.252        5.761      869.110
01/23/2014  23:52:00       75.322       73.251       -2.278       32.297       31.385       28.646     1043.120      985.013      820.597        0.695        0.142      105.067       24.933        0.056      335.351        5.926      869.119
01/23/2014  23:53:00       51.302       12.091       10.681       24.355       19.997       21.375      593.163      399.864      456.879        0.217        0.072       52.708       14.955        0.081      335.359        5.939      869.118
01/23/2014  23:54:00       19.876       14.193       11.713       25.709       31.683       21.839      660.955     1003.811      476.944        0.144        0.107       24.424       14.404        0.348      335.354        5.930      869.119
01/23/2014  23:55:00       11.240        8.791       15.284       26.585       15.066       16.743      706.740      226.979      280.319        0.083        0.061       14.269       15.684        1.208      335.313        5.859      869.118
01/23/2014  23:56:00        6.742       12.661       -3.772       11.258       10.695        7.324      126.734      114.387       53.645        0.026        0.015       14.344        4.500        0.098      335.299        5.838      869.116
01/23/2014  23:57:00       21.060       27.140        0.519       13.832       10.480       10.981      191.318      109.824      120.591        0.080        0.021       34.352        4.224        0.015      335.310        5.860      869.112
01/23/2014  23:58:00       23.036       24.062       -4.568       14.097       14.063        8.160      198.733      197.761       66.588        0.080        0.023       33.311        6.918        0.043      335.309        5.856      869.115
01/23/2014  23:59:00       27.526       11.182        4.217       17.830       15.074       13.017      317.898      227.230      169.442        0.081        0.036       29.710       11.198        0.142      335.317        5.867      869.143
